<?xml version="1.0" encoding="UTF-8"?>
<gpx version="1.1" creator="https://www.youtrack.es" xsi:schemaLocation="http://www.topografix.com/GPX/1/1 http://www.topografix.com/GPX/1/1/gpx.xsd http://www.garmin.com/xmlschemas/GpxExtensions/v3 http://www.garmin.com/xmlschemas/GpxExtensionsv3.xsd http://www.garmin.com/xmlschemas/TrackPointExtension/v1 http://www.garmin.com/xmlschemas/TrackPointExtensionv1.xsd" xmlns:gpxtpx="http://www.garmin.com/xmlschemas/TrackPointExtension/v1" xmlns:gpxx="http://www.garmin.com/xmlschemas/GpxExtensions/v3" xmlns:xsi="http://www.w3.org/2001/XMLSchema-instance">
  <metadata>
    <link href="https://www.youtrack.es">
      <text>YouTrack.es</text>
    </link>
    <time>2026-05-08T10:34:08Z</time>
  </metadata>
  <trk>
    <src>https://www.youtrack.es</src>
    <link href="https://www.youtrack.es/ruta/33039-pedales-de-cantabria">
      <text>YouTrack.es</text>
    </link>
    <trkseg>
      <trkpt lat="43.387098" lon="-3.731198">
        <ele>24.4</ele>
        <time>2018-05-15T09:00:29Z</time>
      </trkpt>
      <trkpt lat="43.386694" lon="-3.731399">
        <ele>25.0</ele>
        <time>2018-05-15T09:00:43Z</time>
      </trkpt>
      <trkpt lat="43.386325" lon="-3.731252">
        <ele>26.2</ele>
        <time>2018-05-15T09:00:56Z</time>
      </trkpt>
      <trkpt lat="43.385883" lon="-3.731315">
        <ele>28.4</ele>
        <time>2018-05-15T09:01:10Z</time>
      </trkpt>
      <trkpt lat="43.385681" lon="-3.731645">
        <ele>29.4</ele>
        <time>2018-05-15T09:01:21Z</time>
      </trkpt>
      <trkpt lat="43.385681" lon="-3.732267">
        <ele>30.1</ele>
        <time>2018-05-15T09:01:36Z</time>
      </trkpt>
      <trkpt lat="43.386671" lon="-3.732128">
        <ele>28.6</ele>
        <time>2018-05-15T09:02:09Z</time>
      </trkpt>
      <trkpt lat="43.386867" lon="-3.731992">
        <ele>27.1</ele>
        <time>2018-05-15T09:02:17Z</time>
      </trkpt>
      <trkpt lat="43.387007" lon="-3.731613">
        <ele>25.1</ele>
        <time>2018-05-15T09:02:27Z</time>
      </trkpt>
      <trkpt lat="43.388809" lon="-3.731291">
        <ele>24.4</ele>
        <time>2018-05-15T09:03:27Z</time>
      </trkpt>
      <trkpt lat="43.390242" lon="-3.731335">
        <ele>24.8</ele>
        <time>2018-05-15T09:04:15Z</time>
      </trkpt>
      <trkpt lat="43.391194" lon="-3.730835">
        <ele>25.0</ele>
        <time>2018-05-15T09:04:49Z</time>
      </trkpt>
      <trkpt lat="43.391817" lon="-3.730785">
        <ele>25.7</ele>
        <time>2018-05-15T09:05:10Z</time>
      </trkpt>
      <trkpt lat="43.392583" lon="-3.731589">
        <ele>31.9</ele>
        <time>2018-05-15T09:05:42Z</time>
      </trkpt>
      <trkpt lat="43.393662" lon="-3.732031">
        <ele>28.2</ele>
        <time>2018-05-15T09:06:20Z</time>
      </trkpt>
      <trkpt lat="43.395591" lon="-3.733134">
        <ele>24.6</ele>
        <time>2018-05-15T09:07:29Z</time>
      </trkpt>
      <trkpt lat="43.397142" lon="-3.734568">
        <ele>25.4</ele>
        <time>2018-05-15T09:08:32Z</time>
      </trkpt>
      <trkpt lat="43.397675" lon="-3.734862">
        <ele>27.0</ele>
        <time>2018-05-15T09:08:51Z</time>
      </trkpt>
      <trkpt lat="43.398015" lon="-3.735419">
        <ele>28.5</ele>
        <time>2018-05-15T09:09:09Z</time>
      </trkpt>
      <trkpt lat="43.398154" lon="-3.735331">
        <ele>28.6</ele>
        <time>2018-05-15T09:09:14Z</time>
      </trkpt>
      <trkpt lat="43.398263" lon="-3.734809">
        <ele>29.6</ele>
        <time>2018-05-15T09:09:27Z</time>
      </trkpt>
      <trkpt lat="43.398385" lon="-3.734836">
        <ele>29.4</ele>
        <time>2018-05-15T09:09:31Z</time>
      </trkpt>
      <trkpt lat="43.398971" lon="-3.735217">
        <ele>28.1</ele>
        <time>2018-05-15T09:09:53Z</time>
      </trkpt>
      <trkpt lat="43.399896" lon="-3.736465">
        <ele>27.7</ele>
        <time>2018-05-15T09:10:36Z</time>
      </trkpt>
      <trkpt lat="43.403667" lon="-3.737435">
        <ele>30.5</ele>
        <time>2018-05-15T09:12:44Z</time>
      </trkpt>
      <trkpt lat="43.404216" lon="-3.738036">
        <ele>28.9</ele>
        <time>2018-05-15T09:13:07Z</time>
      </trkpt>
      <trkpt lat="43.406630" lon="-3.741544">
        <ele>40.1</ele>
        <time>2018-05-15T09:15:04Z</time>
      </trkpt>
      <trkpt lat="43.407892" lon="-3.742667">
        <ele>42.1</ele>
        <time>2018-05-15T09:15:54Z</time>
      </trkpt>
      <trkpt lat="43.408100" lon="-3.744755">
        <ele>45.0</ele>
        <time>2018-05-15T09:16:45Z</time>
      </trkpt>
      <trkpt lat="43.408367" lon="-3.745609">
        <ele>39.7</ele>
        <time>2018-05-15T09:17:08Z</time>
      </trkpt>
      <trkpt lat="43.407881" lon="-3.746702">
        <ele>31.7</ele>
        <time>2018-05-15T09:17:39Z</time>
      </trkpt>
      <trkpt lat="43.408060" lon="-3.746818">
        <ele>25.8</ele>
        <time>2018-05-15T09:17:46Z</time>
      </trkpt>
      <trkpt lat="43.407706" lon="-3.749424">
        <ele>26.6</ele>
        <time>2018-05-15T09:18:50Z</time>
      </trkpt>
      <trkpt lat="43.408357" lon="-3.750504">
        <ele>26.7</ele>
        <time>2018-05-15T09:19:24Z</time>
      </trkpt>
      <trkpt lat="43.408711" lon="-3.750739">
        <ele>30.1</ele>
        <time>2018-05-15T09:19:37Z</time>
      </trkpt>
      <trkpt lat="43.409337" lon="-3.750727">
        <ele>32.3</ele>
        <time>2018-05-15T09:19:58Z</time>
      </trkpt>
      <trkpt lat="43.409922" lon="-3.751273">
        <ele>27.6</ele>
        <time>2018-05-15T09:20:21Z</time>
      </trkpt>
      <trkpt lat="43.410860" lon="-3.751403">
        <ele>17.7</ele>
        <time>2018-05-15T09:20:53Z</time>
      </trkpt>
      <trkpt lat="43.413282" lon="-3.751149">
        <ele>8.4</ele>
        <time>2018-05-15T09:22:14Z</time>
      </trkpt>
      <trkpt lat="43.413576" lon="-3.750814">
        <ele>8.2</ele>
        <time>2018-05-15T09:22:27Z</time>
      </trkpt>
      <trkpt lat="43.413550" lon="-3.750148">
        <ele>9.4</ele>
        <time>2018-05-15T09:22:43Z</time>
      </trkpt>
      <trkpt lat="43.413707" lon="-3.749908">
        <ele>9.4</ele>
        <time>2018-05-15T09:22:51Z</time>
      </trkpt>
      <trkpt lat="43.414091" lon="-3.750215">
        <ele>8.0</ele>
        <time>2018-05-15T09:23:05Z</time>
      </trkpt>
      <trkpt lat="43.414700" lon="-3.750225">
        <ele>10.2</ele>
        <time>2018-05-15T09:23:26Z</time>
      </trkpt>
      <trkpt lat="43.414820" lon="-3.750354">
        <ele>9.7</ele>
        <time>2018-05-15T09:23:31Z</time>
      </trkpt>
      <trkpt lat="43.415087" lon="-3.752750">
        <ele>7.9</ele>
        <time>2018-05-15T09:24:30Z</time>
      </trkpt>
      <trkpt lat="43.413281" lon="-3.754268">
        <ele>7.4</ele>
        <time>2018-05-15T09:25:40Z</time>
      </trkpt>
      <trkpt lat="43.411254" lon="-3.756993">
        <ele>11.6</ele>
        <time>2018-05-15T09:27:15Z</time>
      </trkpt>
      <trkpt lat="43.411225" lon="-3.758912">
        <ele>8.8</ele>
        <time>2018-05-15T09:28:01Z</time>
      </trkpt>
      <trkpt lat="43.411762" lon="-3.760514">
        <ele>14.3</ele>
        <time>2018-05-15T09:28:44Z</time>
      </trkpt>
      <trkpt lat="43.412365" lon="-3.761235">
        <ele>19.7</ele>
        <time>2018-05-15T09:29:11Z</time>
      </trkpt>
      <trkpt lat="43.412586" lon="-3.761737">
        <ele>18.6</ele>
        <time>2018-05-15T09:29:25Z</time>
      </trkpt>
      <trkpt lat="43.412931" lon="-3.763430">
        <ele>19.0</ele>
        <time>2018-05-15T09:30:07Z</time>
      </trkpt>
      <trkpt lat="43.412872" lon="-3.764111">
        <ele>19.3</ele>
        <time>2018-05-15T09:30:24Z</time>
      </trkpt>
      <trkpt lat="43.412519" lon="-3.765157">
        <ele>21.1</ele>
        <time>2018-05-15T09:30:52Z</time>
      </trkpt>
      <trkpt lat="43.411938" lon="-3.765832">
        <ele>22.0</ele>
        <time>2018-05-15T09:31:17Z</time>
      </trkpt>
      <trkpt lat="43.412128" lon="-3.766525">
        <ele>23.1</ele>
        <time>2018-05-15T09:31:35Z</time>
      </trkpt>
      <trkpt lat="43.412313" lon="-3.766850">
        <ele>23.1</ele>
        <time>2018-05-15T09:31:45Z</time>
      </trkpt>
      <trkpt lat="43.412904" lon="-3.767226">
        <ele>19.1</ele>
        <time>2018-05-15T09:32:07Z</time>
      </trkpt>
      <trkpt lat="43.413969" lon="-3.767548">
        <ele>15.9</ele>
        <time>2018-05-15T09:32:43Z</time>
      </trkpt>
      <trkpt lat="43.414584" lon="-3.767561">
        <ele>15.8</ele>
        <time>2018-05-15T09:33:04Z</time>
      </trkpt>
      <trkpt lat="43.415131" lon="-3.767808">
        <ele>15.0</ele>
        <time>2018-05-15T09:33:23Z</time>
      </trkpt>
      <trkpt lat="43.415492" lon="-3.766977">
        <ele>16.2</ele>
        <time>2018-05-15T09:33:47Z</time>
      </trkpt>
      <trkpt lat="43.415501" lon="-3.767129">
        <ele>15.6</ele>
        <time>2018-05-15T09:33:50Z</time>
      </trkpt>
      <trkpt lat="43.415813" lon="-3.767111">
        <ele>15.4</ele>
        <time>2018-05-15T09:34:01Z</time>
      </trkpt>
      <trkpt lat="43.416406" lon="-3.767383">
        <ele>16.7</ele>
        <time>2018-05-15T09:34:22Z</time>
      </trkpt>
      <trkpt lat="43.416859" lon="-3.767968">
        <ele>14.5</ele>
        <time>2018-05-15T09:34:42Z</time>
      </trkpt>
      <trkpt lat="43.417087" lon="-3.768000">
        <ele>13.8</ele>
        <time>2018-05-15T09:34:50Z</time>
      </trkpt>
      <trkpt lat="43.417994" lon="-3.767339">
        <ele>16.9</ele>
        <time>2018-05-15T09:35:24Z</time>
      </trkpt>
      <trkpt lat="43.419314" lon="-3.767608">
        <ele>15.1</ele>
        <time>2018-05-15T09:36:09Z</time>
      </trkpt>
      <trkpt lat="43.419736" lon="-3.767468">
        <ele>16.2</ele>
        <time>2018-05-15T09:36:23Z</time>
      </trkpt>
      <trkpt lat="43.420836" lon="-3.767465">
        <ele>23.2</ele>
        <time>2018-05-15T09:37:00Z</time>
      </trkpt>
      <trkpt lat="43.421081" lon="-3.767708">
        <ele>27.8</ele>
        <time>2018-05-15T09:37:10Z</time>
      </trkpt>
      <trkpt lat="43.421546" lon="-3.769192">
        <ele>25.2</ele>
        <time>2018-05-15T09:37:49Z</time>
      </trkpt>
      <trkpt lat="43.422099" lon="-3.769179">
        <ele>25.5</ele>
        <time>2018-05-15T09:38:08Z</time>
      </trkpt>
      <trkpt lat="43.423004" lon="-3.769771">
        <ele>25.0</ele>
        <time>2018-05-15T09:38:41Z</time>
      </trkpt>
      <trkpt lat="43.423805" lon="-3.769577">
        <ele>27.2</ele>
        <time>2018-05-15T09:39:08Z</time>
      </trkpt>
      <trkpt lat="43.423895" lon="-3.769666">
        <ele>26.9</ele>
        <time>2018-05-15T09:39:12Z</time>
      </trkpt>
      <trkpt lat="43.424082" lon="-3.770413">
        <ele>29.1</ele>
        <time>2018-05-15T09:39:31Z</time>
      </trkpt>
      <trkpt lat="43.424170" lon="-3.772899">
        <ele>34.0</ele>
        <time>2018-05-15T09:40:31Z</time>
      </trkpt>
      <trkpt lat="43.424478" lon="-3.773558">
        <ele>37.1</ele>
        <time>2018-05-15T09:40:50Z</time>
      </trkpt>
      <trkpt lat="43.424613" lon="-3.774752">
        <ele>37.4</ele>
        <time>2018-05-15T09:41:19Z</time>
      </trkpt>
      <trkpt lat="43.424943" lon="-3.774916">
        <ele>38.9</ele>
        <time>2018-05-15T09:41:31Z</time>
      </trkpt>
      <trkpt lat="43.425136" lon="-3.775881">
        <ele>41.7</ele>
        <time>2018-05-15T09:41:55Z</time>
      </trkpt>
      <trkpt lat="43.425279" lon="-3.776025">
        <ele>41.8</ele>
        <time>2018-05-15T09:42:01Z</time>
      </trkpt>
      <trkpt lat="43.426573" lon="-3.776241">
        <ele>41.8</ele>
        <time>2018-05-15T09:42:45Z</time>
      </trkpt>
      <trkpt lat="43.426754" lon="-3.776432">
        <ele>42.2</ele>
        <time>2018-05-15T09:42:52Z</time>
      </trkpt>
      <trkpt lat="43.427003" lon="-3.777664">
        <ele>42.7</ele>
        <time>2018-05-15T09:43:23Z</time>
      </trkpt>
      <trkpt lat="43.426907" lon="-3.778940">
        <ele>40.9</ele>
        <time>2018-05-15T09:43:55Z</time>
      </trkpt>
      <trkpt lat="43.427178" lon="-3.781003">
        <ele>38.9</ele>
        <time>2018-05-15T09:44:45Z</time>
      </trkpt>
      <trkpt lat="43.429847" lon="-3.787579">
        <ele>33.0</ele>
        <time>2018-05-15T09:47:48Z</time>
      </trkpt>
      <trkpt lat="43.430319" lon="-3.787693">
        <ele>33.7</ele>
        <time>2018-05-15T09:48:04Z</time>
      </trkpt>
      <trkpt lat="43.431056" lon="-3.789581">
        <ele>20.6</ele>
        <time>2018-05-15T09:48:56Z</time>
      </trkpt>
      <trkpt lat="43.431151" lon="-3.789653">
        <ele>19.5</ele>
        <time>2018-05-15T09:48:59Z</time>
      </trkpt>
      <trkpt lat="43.431454" lon="-3.789459">
        <ele>18.8</ele>
        <time>2018-05-15T09:49:10Z</time>
      </trkpt>
      <trkpt lat="43.431782" lon="-3.787859">
        <ele>19.1</ele>
        <time>2018-05-15T09:49:51Z</time>
      </trkpt>
      <trkpt lat="43.431736" lon="-3.787504">
        <ele>19.6</ele>
        <time>2018-05-15T09:49:59Z</time>
      </trkpt>
      <trkpt lat="43.431344" lon="-3.787290">
        <ele>25.0</ele>
        <time>2018-05-15T09:50:14Z</time>
      </trkpt>
      <trkpt lat="43.431794" lon="-3.786820">
        <ele>14.3</ele>
        <time>2018-05-15T09:50:32Z</time>
      </trkpt>
      <trkpt lat="43.431860" lon="-3.786330">
        <ele>10.5</ele>
        <time>2018-05-15T09:50:44Z</time>
      </trkpt>
      <trkpt lat="43.431161" lon="-3.784696">
        <ele>8.6</ele>
        <time>2018-05-15T09:51:30Z</time>
      </trkpt>
      <trkpt lat="43.431691" lon="-3.784038">
        <ele>5.3</ele>
        <time>2018-05-15T09:51:54Z</time>
      </trkpt>
      <trkpt lat="43.431880" lon="-3.783545">
        <ele>3.6</ele>
        <time>2018-05-15T09:52:08Z</time>
      </trkpt>
      <trkpt lat="43.432300" lon="-3.783511">
        <ele>2.5</ele>
        <time>2018-05-15T09:52:22Z</time>
      </trkpt>
      <trkpt lat="43.432833" lon="-3.781708">
        <ele>2.5</ele>
        <time>2018-05-15T09:53:09Z</time>
      </trkpt>
      <trkpt lat="43.433601" lon="-3.780222">
        <ele>2.0</ele>
        <time>2018-05-15T09:53:53Z</time>
      </trkpt>
      <trkpt lat="43.434690" lon="-3.779235">
        <ele>2.7</ele>
        <time>2018-05-15T09:54:37Z</time>
      </trkpt>
      <trkpt lat="43.437390" lon="-3.777678">
        <ele>2.5</ele>
        <time>2018-05-15T09:56:14Z</time>
      </trkpt>
      <trkpt lat="43.437146" lon="-3.776221">
        <ele>3.1</ele>
        <time>2018-05-15T09:56:50Z</time>
      </trkpt>
      <trkpt lat="43.438192" lon="-3.775410">
        <ele>2.8</ele>
        <time>2018-05-15T09:57:30Z</time>
      </trkpt>
      <trkpt lat="43.438587" lon="-3.774648">
        <ele>3.4</ele>
        <time>2018-05-15T09:57:53Z</time>
      </trkpt>
      <trkpt lat="43.439478" lon="-3.773792">
        <ele>2.9</ele>
        <time>2018-05-15T09:58:29Z</time>
      </trkpt>
      <trkpt lat="43.439688" lon="-3.773362">
        <ele>3.0</ele>
        <time>2018-05-15T09:58:42Z</time>
      </trkpt>
      <trkpt lat="43.440964" lon="-3.772522">
        <ele>4.0</ele>
        <time>2018-05-15T09:59:29Z</time>
      </trkpt>
      <trkpt lat="43.441444" lon="-3.772390">
        <ele>3.8</ele>
        <time>2018-05-15T09:59:45Z</time>
      </trkpt>
      <trkpt lat="43.442568" lon="-3.772628">
        <ele>3.6</ele>
        <time>2018-05-15T10:00:23Z</time>
      </trkpt>
      <trkpt lat="43.443090" lon="-3.772427">
        <ele>3.9</ele>
        <time>2018-05-15T10:00:41Z</time>
      </trkpt>
      <trkpt lat="43.443167" lon="-3.772157">
        <ele>4.0</ele>
        <time>2018-05-15T10:00:49Z</time>
      </trkpt>
      <trkpt lat="43.442499" lon="-3.770649">
        <ele>8.7</ele>
        <time>2018-05-15T10:01:31Z</time>
      </trkpt>
      <trkpt lat="43.442947" lon="-3.770596">
        <ele>7.8</ele>
        <time>2018-05-15T10:01:46Z</time>
      </trkpt>
      <trkpt lat="43.444017" lon="-3.770799">
        <ele>5.1</ele>
        <time>2018-05-15T10:02:22Z</time>
      </trkpt>
      <trkpt lat="43.445227" lon="-3.770254">
        <ele>7.3</ele>
        <time>2018-05-15T10:03:05Z</time>
      </trkpt>
      <trkpt lat="43.446030" lon="-3.770718">
        <ele>5.9</ele>
        <time>2018-05-15T10:03:34Z</time>
      </trkpt>
      <trkpt lat="43.446223" lon="-3.770972">
        <ele>3.9</ele>
        <time>2018-05-15T10:03:43Z</time>
      </trkpt>
      <trkpt lat="43.446632" lon="-3.770876">
        <ele>4.0</ele>
        <time>2018-05-15T10:03:57Z</time>
      </trkpt>
      <trkpt lat="43.447342" lon="-3.770344">
        <ele>6.7</ele>
        <time>2018-05-15T10:04:24Z</time>
      </trkpt>
      <trkpt lat="43.447797" lon="-3.770917">
        <ele>5.1</ele>
        <time>2018-05-15T10:04:44Z</time>
      </trkpt>
      <trkpt lat="43.448452" lon="-3.771063">
        <ele>4.1</ele>
        <time>2018-05-15T10:05:06Z</time>
      </trkpt>
      <trkpt lat="43.448636" lon="-3.770824">
        <ele>2.7</ele>
        <time>2018-05-15T10:05:15Z</time>
      </trkpt>
      <trkpt lat="43.448785" lon="-3.769897">
        <ele>2.5</ele>
        <time>2018-05-15T10:05:38Z</time>
      </trkpt>
      <trkpt lat="43.448444" lon="-3.768994">
        <ele>3.2</ele>
        <time>2018-05-15T10:06:02Z</time>
      </trkpt>
      <trkpt lat="43.447559" lon="-3.767478">
        <ele>4.3</ele>
        <time>2018-05-15T10:06:49Z</time>
      </trkpt>
      <trkpt lat="43.446128" lon="-3.765940">
        <ele>3.9</ele>
        <time>2018-05-15T10:07:50Z</time>
      </trkpt>
      <trkpt lat="43.446034" lon="-3.765403">
        <ele>4.1</ele>
        <time>2018-05-15T10:08:03Z</time>
      </trkpt>
      <trkpt lat="43.448048" lon="-3.760568">
        <ele>3.1</ele>
        <time>2018-05-15T10:10:18Z</time>
      </trkpt>
      <trkpt lat="43.448205" lon="-3.759465">
        <ele>1.9</ele>
        <time>2018-05-15T10:10:46Z</time>
      </trkpt>
      <trkpt lat="43.447900" lon="-3.757618">
        <ele>4.5</ele>
        <time>2018-05-15T10:11:31Z</time>
      </trkpt>
      <trkpt lat="43.448018" lon="-3.756078">
        <ele>3.0</ele>
        <time>2018-05-15T10:12:09Z</time>
      </trkpt>
      <trkpt lat="43.449293" lon="-3.751411">
        <ele>2.5</ele>
        <time>2018-05-15T10:14:10Z</time>
      </trkpt>
      <trkpt lat="43.450446" lon="-3.747882">
        <ele>1.5</ele>
        <time>2018-05-15T10:15:43Z</time>
      </trkpt>
      <trkpt lat="43.451705" lon="-3.744516">
        <ele>9.4</ele>
        <time>2018-05-15T10:17:15Z</time>
      </trkpt>
      <trkpt lat="43.453437" lon="-3.743206">
        <ele>5.3</ele>
        <time>2018-05-15T10:18:21Z</time>
      </trkpt>
      <trkpt lat="43.453907" lon="-3.742700">
        <ele>5.9</ele>
        <time>2018-05-15T10:18:41Z</time>
      </trkpt>
      <trkpt lat="43.454007" lon="-3.741905">
        <ele>7.0</ele>
        <time>2018-05-15T10:19:01Z</time>
      </trkpt>
      <trkpt lat="43.453844" lon="-3.741200">
        <ele>8.4</ele>
        <time>2018-05-15T10:19:18Z</time>
      </trkpt>
      <trkpt lat="43.454051" lon="-3.740295">
        <ele>12.1</ele>
        <time>2018-05-15T10:19:41Z</time>
      </trkpt>
      <trkpt lat="43.454308" lon="-3.739874">
        <ele>15.6</ele>
        <time>2018-05-15T10:19:55Z</time>
      </trkpt>
      <trkpt lat="43.454619" lon="-3.738772">
        <ele>27.1</ele>
        <time>2018-05-15T10:20:23Z</time>
      </trkpt>
      <trkpt lat="43.455044" lon="-3.738565">
        <ele>30.4</ele>
        <time>2018-05-15T10:20:38Z</time>
      </trkpt>
      <trkpt lat="43.455859" lon="-3.736679">
        <ele>40.0</ele>
        <time>2018-05-15T10:21:32Z</time>
      </trkpt>
      <trkpt lat="43.456126" lon="-3.734806">
        <ele>43.6</ele>
        <time>2018-05-15T10:22:18Z</time>
      </trkpt>
      <trkpt lat="43.456045" lon="-3.733759">
        <ele>45.0</ele>
        <time>2018-05-15T10:22:43Z</time>
      </trkpt>
      <trkpt lat="43.455923" lon="-3.733200">
        <ele>45.5</ele>
        <time>2018-05-15T10:22:57Z</time>
      </trkpt>
      <trkpt lat="43.455406" lon="-3.732286">
        <ele>45.0</ele>
        <time>2018-05-15T10:23:25Z</time>
      </trkpt>
      <trkpt lat="43.455379" lon="-3.730805">
        <ele>42.0</ele>
        <time>2018-05-15T10:24:01Z</time>
      </trkpt>
      <trkpt lat="43.455488" lon="-3.728083">
        <ele>37.5</ele>
        <time>2018-05-15T10:25:07Z</time>
      </trkpt>
      <trkpt lat="43.456172" lon="-3.724075">
        <ele>24.7</ele>
        <time>2018-05-15T10:26:47Z</time>
      </trkpt>
      <trkpt lat="43.456102" lon="-3.723760">
        <ele>23.6</ele>
        <time>2018-05-15T10:26:55Z</time>
      </trkpt>
      <trkpt lat="43.455984" lon="-3.723758">
        <ele>23.5</ele>
        <time>2018-05-15T10:26:59Z</time>
      </trkpt>
      <trkpt lat="43.456207" lon="-3.723652">
        <ele>23.1</ele>
        <time>2018-05-15T10:27:07Z</time>
      </trkpt>
      <trkpt lat="43.457115" lon="-3.724146">
        <ele>20.6</ele>
        <time>2018-05-15T10:27:39Z</time>
      </trkpt>
      <trkpt lat="43.458927" lon="-3.726428">
        <ele>12.5</ele>
        <time>2018-05-15T10:29:01Z</time>
      </trkpt>
      <trkpt lat="43.459141" lon="-3.726904">
        <ele>12.1</ele>
        <time>2018-05-15T10:29:15Z</time>
      </trkpt>
      <trkpt lat="43.459371" lon="-3.727070">
        <ele>10.2</ele>
        <time>2018-05-15T10:29:24Z</time>
      </trkpt>
      <trkpt lat="43.459703" lon="-3.727063">
        <ele>5.4</ele>
        <time>2018-05-15T10:29:35Z</time>
      </trkpt>
      <trkpt lat="43.460211" lon="-3.726388">
        <ele>4.0</ele>
        <time>2018-05-15T10:29:58Z</time>
      </trkpt>
      <trkpt lat="43.459776" lon="-3.725936">
        <ele>4.0</ele>
        <time>2018-05-15T10:30:16Z</time>
      </trkpt>
      <trkpt lat="43.459827" lon="-3.725411">
        <ele>4.3</ele>
        <time>2018-05-15T10:30:29Z</time>
      </trkpt>
      <trkpt lat="43.460742" lon="-3.725236">
        <ele>3.0</ele>
        <time>2018-05-15T10:31:00Z</time>
      </trkpt>
      <trkpt lat="43.461313" lon="-3.725384">
        <ele>3.9</ele>
        <time>2018-05-15T10:31:19Z</time>
      </trkpt>
      <trkpt lat="43.461569" lon="-3.725193">
        <ele>4.5</ele>
        <time>2018-05-15T10:31:29Z</time>
      </trkpt>
      <trkpt lat="43.461811" lon="-3.724687">
        <ele>4.4</ele>
        <time>2018-05-15T10:31:44Z</time>
      </trkpt>
      <trkpt lat="43.462420" lon="-3.724681">
        <ele>5.0</ele>
        <time>2018-05-15T10:32:04Z</time>
      </trkpt>
      <trkpt lat="43.462609" lon="-3.723488">
        <ele>6.5</ele>
        <time>2018-05-15T10:32:34Z</time>
      </trkpt>
      <trkpt lat="43.463104" lon="-3.722895">
        <ele>9.9</ele>
        <time>2018-05-15T10:32:55Z</time>
      </trkpt>
      <trkpt lat="43.463133" lon="-3.723002">
        <ele>10.7</ele>
        <time>2018-05-15T10:32:58Z</time>
      </trkpt>
      <trkpt lat="43.463360" lon="-3.722485">
        <ele>11.3</ele>
        <time>2018-05-15T10:33:13Z</time>
      </trkpt>
      <trkpt lat="43.463740" lon="-3.722763">
        <ele>14.5</ele>
        <time>2018-05-15T10:33:27Z</time>
      </trkpt>
      <trkpt lat="43.464823" lon="-3.724370">
        <ele>13.6</ele>
        <time>2018-05-15T10:34:20Z</time>
      </trkpt>
      <trkpt lat="43.465034" lon="-3.724439">
        <ele>13.1</ele>
        <time>2018-05-15T10:34:28Z</time>
      </trkpt>
      <trkpt lat="43.465875" lon="-3.721010">
        <ele>13.3</ele>
        <time>2018-05-15T10:35:55Z</time>
      </trkpt>
      <trkpt lat="43.469179" lon="-3.722414">
        <ele>22.7</ele>
        <time>2018-05-15T10:37:51Z</time>
      </trkpt>
      <trkpt lat="43.470031" lon="-3.722448">
        <ele>18.1</ele>
        <time>2018-05-15T10:38:19Z</time>
      </trkpt>
      <trkpt lat="43.469909" lon="-3.726189">
        <ele>13.2</ele>
        <time>2018-05-15T10:39:50Z</time>
      </trkpt>
      <trkpt lat="43.470755" lon="-3.726024">
        <ele>9.9</ele>
        <time>2018-05-15T10:40:18Z</time>
      </trkpt>
      <trkpt lat="43.471071" lon="-3.725302">
        <ele>15.3</ele>
        <time>2018-05-15T10:40:39Z</time>
      </trkpt>
      <trkpt lat="43.472577" lon="-3.723081">
        <ele>28.0</ele>
        <time>2018-05-15T10:41:52Z</time>
      </trkpt>
      <trkpt lat="43.472893" lon="-3.722300">
        <ele>27.7</ele>
        <time>2018-05-15T10:42:14Z</time>
      </trkpt>
      <trkpt lat="43.473297" lon="-3.720503">
        <ele>23.5</ele>
        <time>2018-05-15T10:42:59Z</time>
      </trkpt>
      <trkpt lat="43.473888" lon="-3.719134">
        <ele>27.1</ele>
        <time>2018-05-15T10:43:38Z</time>
      </trkpt>
      <trkpt lat="43.473719" lon="-3.718138">
        <ele>32.1</ele>
        <time>2018-05-15T10:44:03Z</time>
      </trkpt>
      <trkpt lat="43.474103" lon="-3.716139">
        <ele>40.6</ele>
        <time>2018-05-15T10:44:53Z</time>
      </trkpt>
      <trkpt lat="43.474286" lon="-3.715990">
        <ele>40.4</ele>
        <time>2018-05-15T10:45:00Z</time>
      </trkpt>
      <trkpt lat="43.474474" lon="-3.716050">
        <ele>37.2</ele>
        <time>2018-05-15T10:45:06Z</time>
      </trkpt>
      <trkpt lat="43.474778" lon="-3.715742">
        <ele>34.3</ele>
        <time>2018-05-15T10:45:19Z</time>
      </trkpt>
      <trkpt lat="43.474854" lon="-3.715089">
        <ele>38.2</ele>
        <time>2018-05-15T10:45:35Z</time>
      </trkpt>
      <trkpt lat="43.475173" lon="-3.714360">
        <ele>30.6</ele>
        <time>2018-05-15T10:45:55Z</time>
      </trkpt>
      <trkpt lat="43.475233" lon="-3.713609">
        <ele>38.1</ele>
        <time>2018-05-15T10:46:14Z</time>
      </trkpt>
      <trkpt lat="43.476003" lon="-3.711799">
        <ele>32.1</ele>
        <time>2018-05-15T10:47:04Z</time>
      </trkpt>
      <trkpt lat="43.476065" lon="-3.711472">
        <ele>37.3</ele>
        <time>2018-05-15T10:47:13Z</time>
      </trkpt>
      <trkpt lat="43.475888" lon="-3.710964">
        <ele>46.0</ele>
        <time>2018-05-15T10:47:26Z</time>
      </trkpt>
      <trkpt lat="43.476640" lon="-3.710230">
        <ele>38.9</ele>
        <time>2018-05-15T10:47:57Z</time>
      </trkpt>
      <trkpt lat="43.476595" lon="-3.708941">
        <ele>49.8</ele>
        <time>2018-05-15T10:48:28Z</time>
      </trkpt>
      <trkpt lat="43.476756" lon="-3.708601">
        <ele>48.5</ele>
        <time>2018-05-15T10:48:38Z</time>
      </trkpt>
      <trkpt lat="43.476907" lon="-3.707398">
        <ele>49.3</ele>
        <time>2018-05-15T10:49:08Z</time>
      </trkpt>
      <trkpt lat="43.477424" lon="-3.706445">
        <ele>50.2</ele>
        <time>2018-05-15T10:49:36Z</time>
      </trkpt>
      <trkpt lat="43.478112" lon="-3.706047">
        <ele>48.4</ele>
        <time>2018-05-15T10:50:01Z</time>
      </trkpt>
      <trkpt lat="43.478784" lon="-3.704658">
        <ele>42.5</ele>
        <time>2018-05-15T10:50:42Z</time>
      </trkpt>
      <trkpt lat="43.478986" lon="-3.703083">
        <ele>45.0</ele>
        <time>2018-05-15T10:51:20Z</time>
      </trkpt>
      <trkpt lat="43.478838" lon="-3.701983">
        <ele>48.2</ele>
        <time>2018-05-15T10:51:48Z</time>
      </trkpt>
      <trkpt lat="43.478488" lon="-3.701348">
        <ele>51.7</ele>
        <time>2018-05-15T10:52:07Z</time>
      </trkpt>
      <trkpt lat="43.478556" lon="-3.700683">
        <ele>40.4</ele>
        <time>2018-05-15T10:52:23Z</time>
      </trkpt>
      <trkpt lat="43.478355" lon="-3.700263">
        <ele>51.4</ele>
        <time>2018-05-15T10:52:35Z</time>
      </trkpt>
      <trkpt lat="43.478831" lon="-3.697920">
        <ele>41.7</ele>
        <time>2018-05-15T10:53:34Z</time>
      </trkpt>
      <trkpt lat="43.478774" lon="-3.696632">
        <ele>48.4</ele>
        <time>2018-05-15T10:54:05Z</time>
      </trkpt>
      <trkpt lat="43.479014" lon="-3.696004">
        <ele>19.5</ele>
        <time>2018-05-15T10:54:23Z</time>
      </trkpt>
      <trkpt lat="43.477436" lon="-3.696561">
        <ele>53.0</ele>
        <time>2018-05-15T10:55:17Z</time>
      </trkpt>
      <trkpt lat="43.476925" lon="-3.696127">
        <ele>47.0</ele>
        <time>2018-05-15T10:55:37Z</time>
      </trkpt>
      <trkpt lat="43.476256" lon="-3.695125">
        <ele>32.7</ele>
        <time>2018-05-15T10:56:10Z</time>
      </trkpt>
      <trkpt lat="43.476351" lon="-3.694147">
        <ele>22.7</ele>
        <time>2018-05-15T10:56:34Z</time>
      </trkpt>
      <trkpt lat="43.475330" lon="-3.693240">
        <ele>24.6</ele>
        <time>2018-05-15T10:57:14Z</time>
      </trkpt>
      <trkpt lat="43.474676" lon="-3.691898">
        <ele>20.1</ele>
        <time>2018-05-15T10:57:53Z</time>
      </trkpt>
      <trkpt lat="43.474424" lon="-3.691635">
        <ele>25.2</ele>
        <time>2018-05-15T10:58:04Z</time>
      </trkpt>
      <trkpt lat="43.474447" lon="-3.690789">
        <ele>20.2</ele>
        <time>2018-05-15T10:58:25Z</time>
      </trkpt>
      <trkpt lat="43.474279" lon="-3.690001">
        <ele>20.8</ele>
        <time>2018-05-15T10:58:44Z</time>
      </trkpt>
      <trkpt lat="43.474451" lon="-3.687605">
        <ele>29.8</ele>
        <time>2018-05-15T10:59:43Z</time>
      </trkpt>
      <trkpt lat="43.474716" lon="-3.686675">
        <ele>27.8</ele>
        <time>2018-05-15T11:00:07Z</time>
      </trkpt>
      <trkpt lat="43.475315" lon="-3.685730">
        <ele>26.1</ele>
        <time>2018-05-15T11:00:37Z</time>
      </trkpt>
      <trkpt lat="43.476280" lon="-3.683160">
        <ele>32.5</ele>
        <time>2018-05-15T11:01:47Z</time>
      </trkpt>
      <trkpt lat="43.477104" lon="-3.682198">
        <ele>26.1</ele>
        <time>2018-05-15T11:02:23Z</time>
      </trkpt>
      <trkpt lat="43.477388" lon="-3.680896">
        <ele>19.6</ele>
        <time>2018-05-15T11:02:56Z</time>
      </trkpt>
      <trkpt lat="43.477093" lon="-3.679999">
        <ele>22.0</ele>
        <time>2018-05-15T11:03:20Z</time>
      </trkpt>
      <trkpt lat="43.478184" lon="-3.679275">
        <ele>19.3</ele>
        <time>2018-05-15T11:04:00Z</time>
      </trkpt>
      <trkpt lat="43.478391" lon="-3.678117">
        <ele>10.8</ele>
        <time>2018-05-15T11:04:29Z</time>
      </trkpt>
      <trkpt lat="43.478246" lon="-3.677841">
        <ele>6.5</ele>
        <time>2018-05-15T11:04:38Z</time>
      </trkpt>
      <trkpt lat="43.478489" lon="-3.677239">
        <ele>11.8</ele>
        <time>2018-05-15T11:04:54Z</time>
      </trkpt>
      <trkpt lat="43.478888" lon="-3.676882">
        <ele>21.1</ele>
        <time>2018-05-15T11:05:10Z</time>
      </trkpt>
      <trkpt lat="43.478970" lon="-3.676632">
        <ele>25.2</ele>
        <time>2018-05-15T11:05:17Z</time>
      </trkpt>
      <trkpt lat="43.478851" lon="-3.675799">
        <ele>26.9</ele>
        <time>2018-05-15T11:05:37Z</time>
      </trkpt>
      <trkpt lat="43.479018" lon="-3.674897">
        <ele>29.9</ele>
        <time>2018-05-15T11:06:00Z</time>
      </trkpt>
      <trkpt lat="43.478665" lon="-3.674310">
        <ele>31.7</ele>
        <time>2018-05-15T11:06:18Z</time>
      </trkpt>
      <trkpt lat="43.478043" lon="-3.673806">
        <ele>25.5</ele>
        <time>2018-05-15T11:06:42Z</time>
      </trkpt>
      <trkpt lat="43.478190" lon="-3.672551">
        <ele>20.2</ele>
        <time>2018-05-15T11:07:13Z</time>
      </trkpt>
      <trkpt lat="43.477316" lon="-3.671848">
        <ele>10.5</ele>
        <time>2018-05-15T11:07:47Z</time>
      </trkpt>
      <trkpt lat="43.477131" lon="-3.671409">
        <ele>7.7</ele>
        <time>2018-05-15T11:07:59Z</time>
      </trkpt>
      <trkpt lat="43.477643" lon="-3.668970">
        <ele>4.6</ele>
        <time>2018-05-15T11:09:01Z</time>
      </trkpt>
      <trkpt lat="43.478239" lon="-3.667899">
        <ele>8.2</ele>
        <time>2018-05-15T11:09:33Z</time>
      </trkpt>
      <trkpt lat="43.478436" lon="-3.667780">
        <ele>6.1</ele>
        <time>2018-05-15T11:09:41Z</time>
      </trkpt>
      <trkpt lat="43.478623" lon="-3.667869">
        <ele>7.4</ele>
        <time>2018-05-15T11:09:47Z</time>
      </trkpt>
      <trkpt lat="43.479805" lon="-3.668701">
        <ele>26.4</ele>
        <time>2018-05-15T11:10:31Z</time>
      </trkpt>
      <trkpt lat="43.480315" lon="-3.669200">
        <ele>33.5</ele>
        <time>2018-05-15T11:10:52Z</time>
      </trkpt>
      <trkpt lat="43.480715" lon="-3.669954">
        <ele>38.5</ele>
        <time>2018-05-15T11:11:15Z</time>
      </trkpt>
      <trkpt lat="43.480903" lon="-3.670925">
        <ele>45.4</ele>
        <time>2018-05-15T11:11:39Z</time>
      </trkpt>
      <trkpt lat="43.480747" lon="-3.673125">
        <ele>32.8</ele>
        <time>2018-05-15T11:12:33Z</time>
      </trkpt>
      <trkpt lat="43.480822" lon="-3.673494">
        <ele>30.1</ele>
        <time>2018-05-15T11:12:42Z</time>
      </trkpt>
      <trkpt lat="43.481187" lon="-3.674010">
        <ele>28.9</ele>
        <time>2018-05-15T11:12:59Z</time>
      </trkpt>
      <trkpt lat="43.482622" lon="-3.674312">
        <ele>30.4</ele>
        <time>2018-05-15T11:13:48Z</time>
      </trkpt>
      <trkpt lat="43.483232" lon="-3.674204">
        <ele>28.4</ele>
        <time>2018-05-15T11:14:08Z</time>
      </trkpt>
      <trkpt lat="43.483894" lon="-3.673506">
        <ele>30.6</ele>
        <time>2018-05-15T11:14:36Z</time>
      </trkpt>
      <trkpt lat="43.483873" lon="-3.672868">
        <ele>28.6</ele>
        <time>2018-05-15T11:14:52Z</time>
      </trkpt>
      <trkpt lat="43.484371" lon="-3.672946">
        <ele>32.3</ele>
        <time>2018-05-15T11:15:08Z</time>
      </trkpt>
      <trkpt lat="43.484539" lon="-3.673139">
        <ele>33.5</ele>
        <time>2018-05-15T11:15:16Z</time>
      </trkpt>
      <trkpt lat="43.484678" lon="-3.672979">
        <ele>36.7</ele>
        <time>2018-05-15T11:15:22Z</time>
      </trkpt>
      <trkpt lat="43.484944" lon="-3.671694">
        <ele>36.3</ele>
        <time>2018-05-15T11:15:54Z</time>
      </trkpt>
      <trkpt lat="43.485314" lon="-3.671268">
        <ele>30.1</ele>
        <time>2018-05-15T11:16:10Z</time>
      </trkpt>
      <trkpt lat="43.485319" lon="-3.670770">
        <ele>35.3</ele>
        <time>2018-05-15T11:16:22Z</time>
      </trkpt>
      <trkpt lat="43.485177" lon="-3.670557">
        <ele>40.5</ele>
        <time>2018-05-15T11:16:29Z</time>
      </trkpt>
      <trkpt lat="43.484824" lon="-3.670571">
        <ele>48.0</ele>
        <time>2018-05-15T11:16:41Z</time>
      </trkpt>
      <trkpt lat="43.484280" lon="-3.671004">
        <ele>49.0</ele>
        <time>2018-05-15T11:17:02Z</time>
      </trkpt>
      <trkpt lat="43.484206" lon="-3.671347">
        <ele>48.1</ele>
        <time>2018-05-15T11:17:11Z</time>
      </trkpt>
      <trkpt lat="43.482843" lon="-3.671789">
        <ele>51.5</ele>
        <time>2018-05-15T11:17:57Z</time>
      </trkpt>
      <trkpt lat="43.482771" lon="-3.672017">
        <ele>48.0</ele>
        <time>2018-05-15T11:18:03Z</time>
      </trkpt>
      <trkpt lat="43.483002" lon="-3.672552">
        <ele>43.5</ele>
        <time>2018-05-15T11:18:18Z</time>
      </trkpt>
      <trkpt lat="43.482867" lon="-3.672721">
        <ele>45.5</ele>
        <time>2018-05-15T11:18:24Z</time>
      </trkpt>
      <trkpt lat="43.482589" lon="-3.671995">
        <ele>53.1</ele>
        <time>2018-05-15T11:18:44Z</time>
      </trkpt>
      <trkpt lat="43.482150" lon="-3.671519">
        <ele>64.7</ele>
        <time>2018-05-15T11:19:03Z</time>
      </trkpt>
      <trkpt lat="43.482066" lon="-3.671192">
        <ele>68.8</ele>
        <time>2018-05-15T11:19:11Z</time>
      </trkpt>
      <trkpt lat="43.482521" lon="-3.669414">
        <ele>91.4</ele>
        <time>2018-05-15T11:19:57Z</time>
      </trkpt>
      <trkpt lat="43.482972" lon="-3.668458">
        <ele>99.9</ele>
        <time>2018-05-15T11:20:25Z</time>
      </trkpt>
      <trkpt lat="43.484101" lon="-3.666798">
        <ele>111.7</ele>
        <time>2018-05-15T11:21:20Z</time>
      </trkpt>
      <trkpt lat="43.484816" lon="-3.664693">
        <ele>123.4</ele>
        <time>2018-05-15T11:22:16Z</time>
      </trkpt>
      <trkpt lat="43.484908" lon="-3.662965">
        <ele>128.8</ele>
        <time>2018-05-15T11:22:58Z</time>
      </trkpt>
      <trkpt lat="43.485339" lon="-3.660683">
        <ele>137.2</ele>
        <time>2018-05-15T11:23:55Z</time>
      </trkpt>
      <trkpt lat="43.485285" lon="-3.659795">
        <ele>138.8</ele>
        <time>2018-05-15T11:24:16Z</time>
      </trkpt>
      <trkpt lat="43.485741" lon="-3.658459">
        <ele>138.6</ele>
        <time>2018-05-15T11:24:52Z</time>
      </trkpt>
      <trkpt lat="43.484689" lon="-3.656948">
        <ele>133.0</ele>
        <time>2018-05-15T11:25:43Z</time>
      </trkpt>
      <trkpt lat="43.483587" lon="-3.656695">
        <ele>131.8</ele>
        <time>2018-05-15T11:26:20Z</time>
      </trkpt>
      <trkpt lat="43.482937" lon="-3.655020">
        <ele>148.2</ele>
        <time>2018-05-15T11:27:06Z</time>
      </trkpt>
      <trkpt lat="43.481704" lon="-3.652739">
        <ele>166.7</ele>
        <time>2018-05-15T11:28:15Z</time>
      </trkpt>
      <trkpt lat="43.480025" lon="-3.650942">
        <ele>161.2</ele>
        <time>2018-05-15T11:29:26Z</time>
      </trkpt>
      <trkpt lat="43.479289" lon="-3.649415">
        <ele>157.1</ele>
        <time>2018-05-15T11:30:10Z</time>
      </trkpt>
      <trkpt lat="43.478783" lon="-3.647188">
        <ele>152.5</ele>
        <time>2018-05-15T11:31:07Z</time>
      </trkpt>
      <trkpt lat="43.479420" lon="-3.646753">
        <ele>151.4</ele>
        <time>2018-05-15T11:31:30Z</time>
      </trkpt>
      <trkpt lat="43.480252" lon="-3.645379">
        <ele>157.9</ele>
        <time>2018-05-15T11:32:14Z</time>
      </trkpt>
      <trkpt lat="43.481720" lon="-3.643902">
        <ele>159.2</ele>
        <time>2018-05-15T11:33:14Z</time>
      </trkpt>
      <trkpt lat="43.482995" lon="-3.642301">
        <ele>161.5</ele>
        <time>2018-05-15T11:34:12Z</time>
      </trkpt>
      <trkpt lat="43.483837" lon="-3.641618">
        <ele>158.6</ele>
        <time>2018-05-15T11:34:45Z</time>
      </trkpt>
      <trkpt lat="43.484471" lon="-3.641416">
        <ele>158.0</ele>
        <time>2018-05-15T11:35:06Z</time>
      </trkpt>
      <trkpt lat="43.485246" lon="-3.641681">
        <ele>157.1</ele>
        <time>2018-05-15T11:35:33Z</time>
      </trkpt>
      <trkpt lat="43.485774" lon="-3.641945">
        <ele>156.1</ele>
        <time>2018-05-15T11:35:52Z</time>
      </trkpt>
      <trkpt lat="43.486981" lon="-3.643068">
        <ele>150.1</ele>
        <time>2018-05-15T11:36:40Z</time>
      </trkpt>
      <trkpt lat="43.487301" lon="-3.643094">
        <ele>149.8</ele>
        <time>2018-05-15T11:36:51Z</time>
      </trkpt>
      <trkpt lat="43.487851" lon="-3.642744">
        <ele>147.9</ele>
        <time>2018-05-15T11:37:11Z</time>
      </trkpt>
      <trkpt lat="43.488314" lon="-3.642218">
        <ele>148.0</ele>
        <time>2018-05-15T11:37:31Z</time>
      </trkpt>
      <trkpt lat="43.488480" lon="-3.641789">
        <ele>145.3</ele>
        <time>2018-05-15T11:37:43Z</time>
      </trkpt>
      <trkpt lat="43.487052" lon="-3.643048">
        <ele>150.1</ele>
        <time>2018-05-15T11:38:39Z</time>
      </trkpt>
      <trkpt lat="43.487540" lon="-3.642933">
        <ele>148.6</ele>
        <time>2018-05-15T11:38:56Z</time>
      </trkpt>
      <trkpt lat="43.487867" lon="-3.642667">
        <ele>147.8</ele>
        <time>2018-05-15T11:39:09Z</time>
      </trkpt>
      <trkpt lat="43.490267" lon="-3.639692">
        <ele>149.0</ele>
        <time>2018-05-15T11:40:56Z</time>
      </trkpt>
      <trkpt lat="43.490570" lon="-3.639613">
        <ele>148.0</ele>
        <time>2018-05-15T11:41:07Z</time>
      </trkpt>
      <trkpt lat="43.491325" lon="-3.639920">
        <ele>145.5</ele>
        <time>2018-05-15T11:41:33Z</time>
      </trkpt>
      <trkpt lat="43.491735" lon="-3.639528">
        <ele>141.9</ele>
        <time>2018-05-15T11:41:49Z</time>
      </trkpt>
      <trkpt lat="43.492257" lon="-3.638528">
        <ele>134.5</ele>
        <time>2018-05-15T11:42:19Z</time>
      </trkpt>
      <trkpt lat="43.492730" lon="-3.636857">
        <ele>118.6</ele>
        <time>2018-05-15T11:43:03Z</time>
      </trkpt>
      <trkpt lat="43.495325" lon="-3.631402">
        <ele>94.7</ele>
        <time>2018-05-15T11:45:41Z</time>
      </trkpt>
      <trkpt lat="43.495535" lon="-3.630007">
        <ele>69.2</ele>
        <time>2018-05-15T11:46:15Z</time>
      </trkpt>
      <trkpt lat="43.495365" lon="-3.629438">
        <ele>63.0</ele>
        <time>2018-05-15T11:46:30Z</time>
      </trkpt>
      <trkpt lat="43.495723" lon="-3.628535">
        <ele>66.8</ele>
        <time>2018-05-15T11:46:55Z</time>
      </trkpt>
      <trkpt lat="43.495552" lon="-3.626650">
        <ele>68.0</ele>
        <time>2018-05-15T11:47:41Z</time>
      </trkpt>
      <trkpt lat="43.495742" lon="-3.625252">
        <ele>65.3</ele>
        <time>2018-05-15T11:48:15Z</time>
      </trkpt>
      <trkpt lat="43.496693" lon="-3.624626">
        <ele>61.8</ele>
        <time>2018-05-15T11:48:50Z</time>
      </trkpt>
      <trkpt lat="43.497066" lon="-3.623837">
        <ele>60.1</ele>
        <time>2018-05-15T11:49:13Z</time>
      </trkpt>
      <trkpt lat="43.497304" lon="-3.622890">
        <ele>55.3</ele>
        <time>2018-05-15T11:49:37Z</time>
      </trkpt>
      <trkpt lat="43.497617" lon="-3.622882">
        <ele>51.3</ele>
        <time>2018-05-15T11:49:48Z</time>
      </trkpt>
      <trkpt lat="43.498071" lon="-3.622422">
        <ele>43.9</ele>
        <time>2018-05-15T11:50:07Z</time>
      </trkpt>
      <trkpt lat="43.497729" lon="-3.622230">
        <ele>46.0</ele>
        <time>2018-05-15T11:50:19Z</time>
      </trkpt>
      <trkpt lat="43.497137" lon="-3.621463">
        <ele>39.3</ele>
        <time>2018-05-15T11:50:46Z</time>
      </trkpt>
      <trkpt lat="43.496071" lon="-3.621119">
        <ele>40.3</ele>
        <time>2018-05-15T11:51:23Z</time>
      </trkpt>
      <trkpt lat="43.495635" lon="-3.621151">
        <ele>48.7</ele>
        <time>2018-05-15T11:51:37Z</time>
      </trkpt>
      <trkpt lat="43.495478" lon="-3.620665">
        <ele>39.5</ele>
        <time>2018-05-15T11:51:50Z</time>
      </trkpt>
      <trkpt lat="43.495976" lon="-3.618915">
        <ele>25.3</ele>
        <time>2018-05-15T11:52:36Z</time>
      </trkpt>
      <trkpt lat="43.496316" lon="-3.618346">
        <ele>21.5</ele>
        <time>2018-05-15T11:52:53Z</time>
      </trkpt>
      <trkpt lat="43.496715" lon="-3.618138">
        <ele>16.2</ele>
        <time>2018-05-15T11:53:08Z</time>
      </trkpt>
      <trkpt lat="43.496824" lon="-3.618260">
        <ele>14.8</ele>
        <time>2018-05-15T11:53:12Z</time>
      </trkpt>
      <trkpt lat="43.496452" lon="-3.616789">
        <ele>15.9</ele>
        <time>2018-05-15T11:53:50Z</time>
      </trkpt>
      <trkpt lat="43.496220" lon="-3.616495">
        <ele>15.2</ele>
        <time>2018-05-15T11:54:00Z</time>
      </trkpt>
      <trkpt lat="43.495035" lon="-3.615703">
        <ele>5.6</ele>
        <time>2018-05-15T11:54:44Z</time>
      </trkpt>
      <trkpt lat="43.494253" lon="-3.615534">
        <ele>5.0</ele>
        <time>2018-05-15T11:55:11Z</time>
      </trkpt>
      <trkpt lat="43.494110" lon="-3.615370">
        <ele>5.1</ele>
        <time>2018-05-15T11:55:17Z</time>
      </trkpt>
      <trkpt lat="43.494043" lon="-3.614082">
        <ele>6.0</ele>
        <time>2018-05-15T11:55:48Z</time>
      </trkpt>
      <trkpt lat="43.493219" lon="-3.613060">
        <ele>10.5</ele>
        <time>2018-05-15T11:56:25Z</time>
      </trkpt>
      <trkpt lat="43.492912" lon="-3.611877">
        <ele>13.1</ele>
        <time>2018-05-15T11:56:56Z</time>
      </trkpt>
      <trkpt lat="43.491937" lon="-3.610198">
        <ele>27.7</ele>
        <time>2018-05-15T11:57:48Z</time>
      </trkpt>
      <trkpt lat="43.490278" lon="-3.608419">
        <ele>32.2</ele>
        <time>2018-05-15T11:58:58Z</time>
      </trkpt>
      <trkpt lat="43.489538" lon="-3.607311">
        <ele>31.2</ele>
        <time>2018-05-15T11:59:34Z</time>
      </trkpt>
      <trkpt lat="43.489655" lon="-3.606942">
        <ele>33.5</ele>
        <time>2018-05-15T11:59:44Z</time>
      </trkpt>
      <trkpt lat="43.489177" lon="-3.605822">
        <ele>38.2</ele>
        <time>2018-05-15T12:00:15Z</time>
      </trkpt>
      <trkpt lat="43.488623" lon="-3.605156">
        <ele>39.5</ele>
        <time>2018-05-15T12:00:40Z</time>
      </trkpt>
      <trkpt lat="43.488375" lon="-3.603806">
        <ele>42.9</ele>
        <time>2018-05-15T12:01:14Z</time>
      </trkpt>
      <trkpt lat="43.487609" lon="-3.602404">
        <ele>42.3</ele>
        <time>2018-05-15T12:01:56Z</time>
      </trkpt>
      <trkpt lat="43.487166" lon="-3.601053">
        <ele>39.6</ele>
        <time>2018-05-15T12:02:32Z</time>
      </trkpt>
      <trkpt lat="43.486638" lon="-3.600141">
        <ele>33.8</ele>
        <time>2018-05-15T12:03:00Z</time>
      </trkpt>
      <trkpt lat="43.484863" lon="-3.600329">
        <ele>16.1</ele>
        <time>2018-05-15T12:04:00Z</time>
      </trkpt>
      <trkpt lat="43.483719" lon="-3.600198">
        <ele>12.2</ele>
        <time>2018-05-15T12:04:38Z</time>
      </trkpt>
      <trkpt lat="43.483570" lon="-3.599908">
        <ele>12.2</ele>
        <time>2018-05-15T12:04:47Z</time>
      </trkpt>
      <trkpt lat="43.483445" lon="-3.598676">
        <ele>13.4</ele>
        <time>2018-05-15T12:05:17Z</time>
      </trkpt>
      <trkpt lat="43.482767" lon="-3.597444">
        <ele>14.1</ele>
        <time>2018-05-15T12:05:54Z</time>
      </trkpt>
      <trkpt lat="43.482469" lon="-3.597503">
        <ele>16.1</ele>
        <time>2018-05-15T12:06:04Z</time>
      </trkpt>
      <trkpt lat="43.481741" lon="-3.598273">
        <ele>20.5</ele>
        <time>2018-05-15T12:06:35Z</time>
      </trkpt>
      <trkpt lat="43.480866" lon="-3.598763">
        <ele>22.5</ele>
        <time>2018-05-15T12:07:06Z</time>
      </trkpt>
      <trkpt lat="43.478861" lon="-3.598369">
        <ele>23.1</ele>
        <time>2018-05-15T12:08:14Z</time>
      </trkpt>
      <trkpt lat="43.477778" lon="-3.598346">
        <ele>20.1</ele>
        <time>2018-05-15T12:08:50Z</time>
      </trkpt>
      <trkpt lat="43.477078" lon="-3.598499">
        <ele>16.9</ele>
        <time>2018-05-15T12:09:14Z</time>
      </trkpt>
      <trkpt lat="43.476076" lon="-3.597925">
        <ele>15.2</ele>
        <time>2018-05-15T12:09:50Z</time>
      </trkpt>
      <trkpt lat="43.474927" lon="-3.598045">
        <ele>18.6</ele>
        <time>2018-05-15T12:10:28Z</time>
      </trkpt>
      <trkpt lat="43.474292" lon="-3.597939">
        <ele>24.3</ele>
        <time>2018-05-15T12:10:50Z</time>
      </trkpt>
      <trkpt lat="43.473616" lon="-3.594986">
        <ele>33.0</ele>
        <time>2018-05-15T12:12:05Z</time>
      </trkpt>
      <trkpt lat="43.471655" lon="-3.588069">
        <ele>5.0</ele>
        <time>2018-05-15T12:15:04Z</time>
      </trkpt>
      <trkpt lat="43.471531" lon="-3.586895">
        <ele>2.2</ele>
        <time>2018-05-15T12:15:33Z</time>
      </trkpt>
      <trkpt lat="43.471581" lon="-3.582995">
        <ele>8.7</ele>
        <time>2018-05-15T12:17:07Z</time>
      </trkpt>
      <trkpt lat="43.471828" lon="-3.583023">
        <ele>5.5</ele>
        <time>2018-05-15T12:17:16Z</time>
      </trkpt>
      <trkpt lat="43.472059" lon="-3.583319">
        <ele>5.0</ele>
        <time>2018-05-15T12:17:26Z</time>
      </trkpt>
      <trkpt lat="43.472517" lon="-3.583211">
        <ele>5.5</ele>
        <time>2018-05-15T12:17:42Z</time>
      </trkpt>
      <trkpt lat="43.472861" lon="-3.583379">
        <ele>7.2</ele>
        <time>2018-05-15T12:17:54Z</time>
      </trkpt>
      <trkpt lat="43.473108" lon="-3.583335">
        <ele>8.3</ele>
        <time>2018-05-15T12:18:02Z</time>
      </trkpt>
      <trkpt lat="43.473883" lon="-3.582670">
        <ele>13.4</ele>
        <time>2018-05-15T12:18:33Z</time>
      </trkpt>
      <trkpt lat="43.474288" lon="-3.581966">
        <ele>18.0</ele>
        <time>2018-05-15T12:18:54Z</time>
      </trkpt>
      <trkpt lat="43.474718" lon="-3.581763">
        <ele>19.6</ele>
        <time>2018-05-15T12:19:10Z</time>
      </trkpt>
      <trkpt lat="43.476033" lon="-3.582666">
        <ele>16.0</ele>
        <time>2018-05-15T12:19:59Z</time>
      </trkpt>
      <trkpt lat="43.476668" lon="-3.582725">
        <ele>15.2</ele>
        <time>2018-05-15T12:20:20Z</time>
      </trkpt>
      <trkpt lat="43.477293" lon="-3.582300">
        <ele>18.4</ele>
        <time>2018-05-15T12:20:43Z</time>
      </trkpt>
      <trkpt lat="43.478210" lon="-3.581164">
        <ele>16.9</ele>
        <time>2018-05-15T12:21:24Z</time>
      </trkpt>
      <trkpt lat="43.478394" lon="-3.581192">
        <ele>15.6</ele>
        <time>2018-05-15T12:21:30Z</time>
      </trkpt>
      <trkpt lat="43.478822" lon="-3.581805">
        <ele>14.3</ele>
        <time>2018-05-15T12:21:51Z</time>
      </trkpt>
      <trkpt lat="43.479559" lon="-3.584240">
        <ele>14.1</ele>
        <time>2018-05-15T12:22:55Z</time>
      </trkpt>
      <trkpt lat="43.479635" lon="-3.585431">
        <ele>7.2</ele>
        <time>2018-05-15T12:23:24Z</time>
      </trkpt>
      <trkpt lat="43.479941" lon="-3.586198">
        <ele>5.5</ele>
        <time>2018-05-15T12:23:45Z</time>
      </trkpt>
      <trkpt lat="43.481180" lon="-3.585788">
        <ele>9.2</ele>
        <time>2018-05-15T12:24:27Z</time>
      </trkpt>
      <trkpt lat="43.482241" lon="-3.586503">
        <ele>8.6</ele>
        <time>2018-05-15T12:25:07Z</time>
      </trkpt>
      <trkpt lat="43.482639" lon="-3.586426">
        <ele>6.1</ele>
        <time>2018-05-15T12:25:20Z</time>
      </trkpt>
      <trkpt lat="43.483459" lon="-3.586744">
        <ele>6.9</ele>
        <time>2018-05-15T12:25:49Z</time>
      </trkpt>
      <trkpt lat="43.483935" lon="-3.586701">
        <ele>8.6</ele>
        <time>2018-05-15T12:26:05Z</time>
      </trkpt>
      <trkpt lat="43.485462" lon="-3.587386">
        <ele>13.7</ele>
        <time>2018-05-15T12:26:58Z</time>
      </trkpt>
      <trkpt lat="43.485919" lon="-3.587316">
        <ele>18.7</ele>
        <time>2018-05-15T12:27:14Z</time>
      </trkpt>
      <trkpt lat="43.485955" lon="-3.586944">
        <ele>20.3</ele>
        <time>2018-05-15T12:27:23Z</time>
      </trkpt>
      <trkpt lat="43.486167" lon="-3.586626">
        <ele>20.9</ele>
        <time>2018-05-15T12:27:33Z</time>
      </trkpt>
      <trkpt lat="43.487072" lon="-3.585834">
        <ele>6.2</ele>
        <time>2018-05-15T12:28:09Z</time>
      </trkpt>
      <trkpt lat="43.487189" lon="-3.585582">
        <ele>3.9</ele>
        <time>2018-05-15T12:28:16Z</time>
      </trkpt>
      <trkpt lat="43.488168" lon="-3.585716">
        <ele>13.6</ele>
        <time>2018-05-15T12:28:49Z</time>
      </trkpt>
      <trkpt lat="43.489638" lon="-3.585133">
        <ele>25.0</ele>
        <time>2018-05-15T12:29:40Z</time>
      </trkpt>
      <trkpt lat="43.490274" lon="-3.584254">
        <ele>30.9</ele>
        <time>2018-05-15T12:30:10Z</time>
      </trkpt>
      <trkpt lat="43.490600" lon="-3.583265">
        <ele>39.4</ele>
        <time>2018-05-15T12:30:36Z</time>
      </trkpt>
      <trkpt lat="43.491508" lon="-3.581779">
        <ele>46.9</ele>
        <time>2018-05-15T12:31:23Z</time>
      </trkpt>
      <trkpt lat="43.492407" lon="-3.581525">
        <ele>48.0</ele>
        <time>2018-05-15T12:31:54Z</time>
      </trkpt>
      <trkpt lat="43.492707" lon="-3.580000">
        <ele>61.9</ele>
        <time>2018-05-15T12:32:32Z</time>
      </trkpt>
      <trkpt lat="43.493119" lon="-3.579327">
        <ele>64.1</ele>
        <time>2018-05-15T12:32:53Z</time>
      </trkpt>
      <trkpt lat="43.492559" lon="-3.577503">
        <ele>71.2</ele>
        <time>2018-05-15T12:33:41Z</time>
      </trkpt>
      <trkpt lat="43.492830" lon="-3.577339">
        <ele>72.3</ele>
        <time>2018-05-15T12:33:51Z</time>
      </trkpt>
      <trkpt lat="43.493822" lon="-3.577427">
        <ele>63.8</ele>
        <time>2018-05-15T12:34:24Z</time>
      </trkpt>
      <trkpt lat="43.495259" lon="-3.577150">
        <ele>72.8</ele>
        <time>2018-05-15T12:35:13Z</time>
      </trkpt>
      <trkpt lat="43.495845" lon="-3.575449">
        <ele>75.5</ele>
        <time>2018-05-15T12:35:58Z</time>
      </trkpt>
      <trkpt lat="43.496479" lon="-3.574442">
        <ele>82.1</ele>
        <time>2018-05-15T12:36:31Z</time>
      </trkpt>
      <trkpt lat="43.496953" lon="-3.574445">
        <ele>82.1</ele>
        <time>2018-05-15T12:36:46Z</time>
      </trkpt>
      <trkpt lat="43.497844" lon="-3.573616">
        <ele>82.1</ele>
        <time>2018-05-15T12:37:22Z</time>
      </trkpt>
      <trkpt lat="43.497700" lon="-3.572701">
        <ele>83.0</ele>
        <time>2018-05-15T12:37:45Z</time>
      </trkpt>
      <trkpt lat="43.497260" lon="-3.571901">
        <ele>76.0</ele>
        <time>2018-05-15T12:38:09Z</time>
      </trkpt>
      <trkpt lat="43.497259" lon="-3.571039">
        <ele>73.2</ele>
        <time>2018-05-15T12:38:30Z</time>
      </trkpt>
      <trkpt lat="43.497688" lon="-3.571315">
        <ele>72.6</ele>
        <time>2018-05-15T12:38:46Z</time>
      </trkpt>
      <trkpt lat="43.498050" lon="-3.571352">
        <ele>73.4</ele>
        <time>2018-05-15T12:38:58Z</time>
      </trkpt>
      <trkpt lat="43.498297" lon="-3.571103">
        <ele>74.4</ele>
        <time>2018-05-15T12:39:08Z</time>
      </trkpt>
      <trkpt lat="43.498567" lon="-3.570351">
        <ele>76.2</ele>
        <time>2018-05-15T12:39:29Z</time>
      </trkpt>
      <trkpt lat="43.499204" lon="-3.570701">
        <ele>87.9</ele>
        <time>2018-05-15T12:39:51Z</time>
      </trkpt>
      <trkpt lat="43.499379" lon="-3.571070">
        <ele>89.5</ele>
        <time>2018-05-15T12:40:02Z</time>
      </trkpt>
      <trkpt lat="43.499556" lon="-3.571106">
        <ele>90.9</ele>
        <time>2018-05-15T12:40:08Z</time>
      </trkpt>
      <trkpt lat="43.500064" lon="-3.570203">
        <ele>99.7</ele>
        <time>2018-05-15T12:40:36Z</time>
      </trkpt>
      <trkpt lat="43.501046" lon="-3.569700">
        <ele>107.5</ele>
        <time>2018-05-15T12:41:11Z</time>
      </trkpt>
      <trkpt lat="43.501833" lon="-3.567873">
        <ele>108.6</ele>
        <time>2018-05-15T12:42:02Z</time>
      </trkpt>
      <trkpt lat="43.502372" lon="-3.567515">
        <ele>105.1</ele>
        <time>2018-05-15T12:42:22Z</time>
      </trkpt>
      <trkpt lat="43.502925" lon="-3.567456">
        <ele>96.7</ele>
        <time>2018-05-15T12:42:40Z</time>
      </trkpt>
      <trkpt lat="43.502432" lon="-3.565779">
        <ele>89.7</ele>
        <time>2018-05-15T12:43:24Z</time>
      </trkpt>
      <trkpt lat="43.502459" lon="-3.564240">
        <ele>89.8</ele>
        <time>2018-05-15T12:44:02Z</time>
      </trkpt>
      <trkpt lat="43.503341" lon="-3.565069">
        <ele>96.1</ele>
        <time>2018-05-15T12:44:37Z</time>
      </trkpt>
      <trkpt lat="43.504114" lon="-3.565379">
        <ele>94.1</ele>
        <time>2018-05-15T12:45:04Z</time>
      </trkpt>
      <trkpt lat="43.504714" lon="-3.565165">
        <ele>90.7</ele>
        <time>2018-05-15T12:45:25Z</time>
      </trkpt>
      <trkpt lat="43.505344" lon="-3.564618">
        <ele>88.4</ele>
        <time>2018-05-15T12:45:49Z</time>
      </trkpt>
      <trkpt lat="43.505614" lon="-3.564773">
        <ele>86.8</ele>
        <time>2018-05-15T12:45:59Z</time>
      </trkpt>
      <trkpt lat="43.505860" lon="-3.564672">
        <ele>88.2</ele>
        <time>2018-05-15T12:46:08Z</time>
      </trkpt>
      <trkpt lat="43.506228" lon="-3.564794">
        <ele>89.6</ele>
        <time>2018-05-15T12:46:20Z</time>
      </trkpt>
      <trkpt lat="43.506670" lon="-3.564472">
        <ele>91.8</ele>
        <time>2018-05-15T12:46:37Z</time>
      </trkpt>
      <trkpt lat="43.507333" lon="-3.563195">
        <ele>107.3</ele>
        <time>2018-05-15T12:47:15Z</time>
      </trkpt>
      <trkpt lat="43.506846" lon="-3.562696">
        <ele>92.4</ele>
        <time>2018-05-15T12:47:35Z</time>
      </trkpt>
      <trkpt lat="43.506771" lon="-3.562441">
        <ele>87.3</ele>
        <time>2018-05-15T12:47:42Z</time>
      </trkpt>
      <trkpt lat="43.506899" lon="-3.561799">
        <ele>80.3</ele>
        <time>2018-05-15T12:47:58Z</time>
      </trkpt>
      <trkpt lat="43.507170" lon="-3.561552">
        <ele>76.8</ele>
        <time>2018-05-15T12:48:09Z</time>
      </trkpt>
      <trkpt lat="43.506934" lon="-3.559016">
        <ele>53.2</ele>
        <time>2018-05-15T12:49:11Z</time>
      </trkpt>
      <trkpt lat="43.507185" lon="-3.558301">
        <ele>44.1</ele>
        <time>2018-05-15T12:49:30Z</time>
      </trkpt>
      <trkpt lat="43.506768" lon="-3.557584">
        <ele>49.6</ele>
        <time>2018-05-15T12:49:52Z</time>
      </trkpt>
      <trkpt lat="43.506559" lon="-3.556486">
        <ele>53.0</ele>
        <time>2018-05-15T12:50:20Z</time>
      </trkpt>
      <trkpt lat="43.506515" lon="-3.555328">
        <ele>60.6</ele>
        <time>2018-05-15T12:50:48Z</time>
      </trkpt>
      <trkpt lat="43.506676" lon="-3.554160">
        <ele>55.8</ele>
        <time>2018-05-15T12:51:17Z</time>
      </trkpt>
      <trkpt lat="43.506594" lon="-3.553441">
        <ele>56.3</ele>
        <time>2018-05-15T12:51:34Z</time>
      </trkpt>
      <trkpt lat="43.506760" lon="-3.552728">
        <ele>44.9</ele>
        <time>2018-05-15T12:51:52Z</time>
      </trkpt>
      <trkpt lat="43.506449" lon="-3.551389">
        <ele>59.6</ele>
        <time>2018-05-15T12:52:26Z</time>
      </trkpt>
      <trkpt lat="43.507175" lon="-3.550256">
        <ele>53.0</ele>
        <time>2018-05-15T12:53:03Z</time>
      </trkpt>
      <trkpt lat="43.506799" lon="-3.549916">
        <ele>61.8</ele>
        <time>2018-05-15T12:53:18Z</time>
      </trkpt>
      <trkpt lat="43.506595" lon="-3.550464">
        <ele>68.6</ele>
        <time>2018-05-15T12:53:33Z</time>
      </trkpt>
      <trkpt lat="43.506307" lon="-3.550100">
        <ele>77.7</ele>
        <time>2018-05-15T12:53:46Z</time>
      </trkpt>
      <trkpt lat="43.505867" lon="-3.550435">
        <ele>84.4</ele>
        <time>2018-05-15T12:54:03Z</time>
      </trkpt>
      <trkpt lat="43.505563" lon="-3.549895">
        <ele>93.4</ele>
        <time>2018-05-15T12:54:19Z</time>
      </trkpt>
      <trkpt lat="43.504801" lon="-3.549277">
        <ele>96.6</ele>
        <time>2018-05-15T12:54:49Z</time>
      </trkpt>
      <trkpt lat="43.504248" lon="-3.547366">
        <ele>94.0</ele>
        <time>2018-05-15T12:55:38Z</time>
      </trkpt>
      <trkpt lat="43.503690" lon="-3.546803">
        <ele>76.2</ele>
        <time>2018-05-15T12:56:01Z</time>
      </trkpt>
      <trkpt lat="43.503440" lon="-3.544168">
        <ele>48.1</ele>
        <time>2018-05-15T12:57:06Z</time>
      </trkpt>
      <trkpt lat="43.503643" lon="-3.543642">
        <ele>49.1</ele>
        <time>2018-05-15T12:57:20Z</time>
      </trkpt>
      <trkpt lat="43.503280" lon="-3.543357">
        <ele>44.2</ele>
        <time>2018-05-15T12:57:34Z</time>
      </trkpt>
      <trkpt lat="43.503075" lon="-3.542693">
        <ele>34.3</ele>
        <time>2018-05-15T12:57:52Z</time>
      </trkpt>
      <trkpt lat="43.502546" lon="-3.542499">
        <ele>26.3</ele>
        <time>2018-05-15T12:58:10Z</time>
      </trkpt>
      <trkpt lat="43.502397" lon="-3.542575">
        <ele>25.7</ele>
        <time>2018-05-15T12:58:15Z</time>
      </trkpt>
      <trkpt lat="43.501902" lon="-3.544136">
        <ele>23.4</ele>
        <time>2018-05-15T12:58:56Z</time>
      </trkpt>
      <trkpt lat="43.500167" lon="-3.544900">
        <ele>20.3</ele>
        <time>2018-05-15T12:59:57Z</time>
      </trkpt>
      <trkpt lat="43.499533" lon="-3.543743">
        <ele>14.2</ele>
        <time>2018-05-15T13:00:32Z</time>
      </trkpt>
      <trkpt lat="43.499367" lon="-3.543791">
        <ele>13.0</ele>
        <time>2018-05-15T13:00:38Z</time>
      </trkpt>
      <trkpt lat="43.499179" lon="-3.544382">
        <ele>13.0</ele>
        <time>2018-05-15T13:00:53Z</time>
      </trkpt>
      <trkpt lat="43.498976" lon="-3.544542">
        <ele>10.4</ele>
        <time>2018-05-15T13:01:01Z</time>
      </trkpt>
      <trkpt lat="43.498134" lon="-3.544479">
        <ele>7.0</ele>
        <time>2018-05-15T13:01:29Z</time>
      </trkpt>
      <trkpt lat="43.497843" lon="-3.544152">
        <ele>8.6</ele>
        <time>2018-05-15T13:01:42Z</time>
      </trkpt>
      <trkpt lat="43.497602" lon="-3.543488">
        <ele>8.7</ele>
        <time>2018-05-15T13:02:00Z</time>
      </trkpt>
      <trkpt lat="43.497883" lon="-3.543294">
        <ele>5.6</ele>
        <time>2018-05-15T13:02:10Z</time>
      </trkpt>
      <trkpt lat="43.498028" lon="-3.542681">
        <ele>4.4</ele>
        <time>2018-05-15T13:02:26Z</time>
      </trkpt>
      <trkpt lat="43.497453" lon="-3.542250">
        <ele>5.4</ele>
        <time>2018-05-15T13:02:48Z</time>
      </trkpt>
      <trkpt lat="43.496767" lon="-3.541117">
        <ele>5.7</ele>
        <time>2018-05-15T13:03:24Z</time>
      </trkpt>
      <trkpt lat="43.496767" lon="-3.541117">
        <ele>2.288</ele>
        <time>2016-04-02T10:18:12Z</time>
      </trkpt>
      <trkpt lat="43.496197" lon="-3.540759">
        <ele>3.024</ele>
        <time>2016-04-02T10:18:34Z</time>
      </trkpt>
      <trkpt lat="43.495737" lon="-3.540970">
        <ele>1.226</ele>
        <time>2016-04-02T10:18:48Z</time>
      </trkpt>
      <trkpt lat="43.495910" lon="-3.541582">
        <ele>1.008</ele>
        <time>2016-04-02T10:19:03Z</time>
      </trkpt>
      <trkpt lat="43.496515" lon="-3.542069">
        <ele>0.659</ele>
        <time>2016-04-02T10:19:24Z</time>
      </trkpt>
      <trkpt lat="43.496115" lon="-3.543277">
        <ele>3.231</ele>
        <time>2016-04-02T10:19:41Z</time>
      </trkpt>
      <trkpt lat="43.495838" lon="-3.546915">
        <ele>10.438</ele>
        <time>2016-04-02T10:20:25Z</time>
      </trkpt>
      <trkpt lat="43.495154" lon="-3.548456">
        <ele>14.238</ele>
        <time>2016-04-02T10:20:47Z</time>
      </trkpt>
      <trkpt lat="43.493784" lon="-3.550036">
        <ele>14.614</ele>
        <time>2016-04-02T10:21:15Z</time>
      </trkpt>
      <trkpt lat="43.492435" lon="-3.549622">
        <ele>10.447</ele>
        <time>2016-04-02T10:21:33Z</time>
      </trkpt>
      <trkpt lat="43.492055" lon="-3.549736">
        <ele>10.440</ele>
        <time>2016-04-02T10:21:38Z</time>
      </trkpt>
      <trkpt lat="43.491563" lon="-3.550891">
        <ele>7.816</ele>
        <time>2016-04-02T10:21:51Z</time>
      </trkpt>
      <trkpt lat="43.490653" lon="-3.551437">
        <ele>9.085</ele>
        <time>2016-04-02T10:22:05Z</time>
      </trkpt>
      <trkpt lat="43.490364" lon="-3.552447">
        <ele>12.889</ele>
        <time>2016-04-02T10:22:18Z</time>
      </trkpt>
      <trkpt lat="43.490059" lon="-3.552796">
        <ele>12.417</ele>
        <time>2016-04-02T10:22:24Z</time>
      </trkpt>
      <trkpt lat="43.488328" lon="-3.553630">
        <ele>11.008</ele>
        <time>2016-04-02T10:22:56Z</time>
      </trkpt>
      <trkpt lat="43.488151" lon="-3.553442">
        <ele>10.899</ele>
        <time>2016-04-02T10:23:01Z</time>
      </trkpt>
      <trkpt lat="43.487032" lon="-3.554054">
        <ele>7.841</ele>
        <time>2016-04-02T10:23:21Z</time>
      </trkpt>
      <trkpt lat="43.486907" lon="-3.553671">
        <ele>6.238</ele>
        <time>2016-04-02T10:23:26Z</time>
      </trkpt>
      <trkpt lat="43.487218" lon="-3.552458">
        <ele>1.818</ele>
        <time>2016-04-02T10:23:39Z</time>
      </trkpt>
      <trkpt lat="43.487124" lon="-3.551351">
        <ele>0.694</ele>
        <time>2016-04-02T10:23:51Z</time>
      </trkpt>
      <trkpt lat="43.486769" lon="-3.550325">
        <ele>-0.877</ele>
        <time>2016-04-02T10:24:10Z</time>
      </trkpt>
      <trkpt lat="43.486051" lon="-3.549316">
        <ele>-0.270</ele>
        <time>2016-04-02T10:25:33Z</time>
      </trkpt>
      <trkpt lat="43.485055" lon="-3.548892">
        <ele>-0.476</ele>
        <time>2016-04-02T10:28:04Z</time>
      </trkpt>
      <trkpt lat="43.484703" lon="-3.549265">
        <ele>0.048</ele>
        <time>2016-04-02T10:28:19Z</time>
      </trkpt>
      <trkpt lat="43.484358" lon="-3.549172">
        <ele>-0.461</ele>
        <time>2016-04-02T10:28:32Z</time>
      </trkpt>
      <trkpt lat="43.482955" lon="-3.549788">
        <ele>-0.417</ele>
        <time>2016-04-02T10:30:43Z</time>
      </trkpt>
      <trkpt lat="43.483032" lon="-3.550352">
        <ele>-0.808</ele>
        <time>2016-04-02T10:30:52Z</time>
      </trkpt>
      <trkpt lat="43.482761" lon="-3.550680">
        <ele>-1.465</ele>
        <time>2016-04-02T10:31:00Z</time>
      </trkpt>
      <trkpt lat="43.482149" lon="-3.550204">
        <ele>-1.077</ele>
        <time>2016-04-02T10:31:13Z</time>
      </trkpt>
      <trkpt lat="43.481491" lon="-3.549067">
        <ele>2.044</ele>
        <time>2016-04-02T10:31:35Z</time>
      </trkpt>
      <trkpt lat="43.481186" lon="-3.547838">
        <ele>1.094</ele>
        <time>2016-04-02T10:31:54Z</time>
      </trkpt>
      <trkpt lat="43.481495" lon="-3.547040">
        <ele>0.280</ele>
        <time>2016-04-02T10:32:06Z</time>
      </trkpt>
      <trkpt lat="43.481204" lon="-3.546474">
        <ele>2.043</ele>
        <time>2016-04-02T10:32:17Z</time>
      </trkpt>
      <trkpt lat="43.481012" lon="-3.544739">
        <ele>2.426</ele>
        <time>2016-04-02T10:33:17Z</time>
      </trkpt>
      <trkpt lat="43.481614" lon="-3.545023">
        <ele>0.672</ele>
        <time>2016-04-02T10:33:35Z</time>
      </trkpt>
      <trkpt lat="43.481772" lon="-3.545500">
        <ele>1.288</ele>
        <time>2016-04-02T10:33:45Z</time>
      </trkpt>
      <trkpt lat="43.482561" lon="-3.546072">
        <ele>0.424</ele>
        <time>2016-04-02T10:34:05Z</time>
      </trkpt>
      <trkpt lat="43.481756" lon="-3.545547">
        <ele>1.226</ele>
        <time>2016-04-02T10:34:42Z</time>
      </trkpt>
      <trkpt lat="43.481607" lon="-3.545127">
        <ele>0.808</ele>
        <time>2016-04-02T10:34:50Z</time>
      </trkpt>
      <trkpt lat="43.482025" lon="-3.543673">
        <ele>-1.029</ele>
        <time>2016-04-02T10:35:11Z</time>
      </trkpt>
      <trkpt lat="43.482596" lon="-3.542960">
        <ele>0.631</ele>
        <time>2016-04-02T10:35:24Z</time>
      </trkpt>
      <trkpt lat="43.482655" lon="-3.541867">
        <ele>0.818</ele>
        <time>2016-04-02T10:35:37Z</time>
      </trkpt>
      <trkpt lat="43.483533" lon="-3.541346">
        <ele>-0.238</ele>
        <time>2016-04-02T10:35:52Z</time>
      </trkpt>
      <trkpt lat="43.487482" lon="-3.536386">
        <ele>-1.294</ele>
        <time>2016-04-02T10:37:20Z</time>
      </trkpt>
      <trkpt lat="43.489809" lon="-3.535298">
        <ele>-0.287</ele>
        <time>2016-04-02T10:38:02Z</time>
      </trkpt>
      <trkpt lat="43.489854" lon="-3.533270">
        <ele>1.080</ele>
        <time>2016-04-02T10:38:29Z</time>
      </trkpt>
      <trkpt lat="43.489560" lon="-3.532167">
        <ele>2.076</ele>
        <time>2016-04-02T10:38:51Z</time>
      </trkpt>
      <trkpt lat="43.490055" lon="-3.529495">
        <ele>4.484</ele>
        <time>2016-04-02T10:39:33Z</time>
      </trkpt>
      <trkpt lat="43.490308" lon="-3.529320">
        <ele>4.407</ele>
        <time>2016-04-02T10:39:42Z</time>
      </trkpt>
      <trkpt lat="43.490881" lon="-3.527778">
        <ele>7.817</ele>
        <time>2016-04-02T10:40:07Z</time>
      </trkpt>
      <trkpt lat="43.492277" lon="-3.525317">
        <ele>9.208</ele>
        <time>2016-04-02T10:40:45Z</time>
      </trkpt>
      <trkpt lat="43.492628" lon="-3.525186">
        <ele>9.449</ele>
        <time>2016-04-02T10:40:54Z</time>
      </trkpt>
      <trkpt lat="43.493094" lon="-3.524409">
        <ele>8.051</ele>
        <time>2016-04-02T10:41:12Z</time>
      </trkpt>
      <trkpt lat="43.493432" lon="-3.522537">
        <ele>5.638</ele>
        <time>2016-04-02T10:41:58Z</time>
      </trkpt>
      <trkpt lat="43.492891" lon="-3.521570">
        <ele>6.638</ele>
        <time>2016-04-02T10:42:24Z</time>
      </trkpt>
      <trkpt lat="43.493790" lon="-3.520472">
        <ele>7.484</ele>
        <time>2016-04-02T10:44:04Z</time>
      </trkpt>
      <trkpt lat="43.493947" lon="-3.519944">
        <ele>9.637</ele>
        <time>2016-04-02T10:44:40Z</time>
      </trkpt>
      <trkpt lat="43.493696" lon="-3.517806">
        <ele>10.670</ele>
        <time>2016-04-02T10:45:39Z</time>
      </trkpt>
      <trkpt lat="43.492931" lon="-3.516797">
        <ele>15.616</ele>
        <time>2016-04-02T10:46:51Z</time>
      </trkpt>
      <trkpt lat="43.493045" lon="-3.516677">
        <ele>12.476</ele>
        <time>2016-04-02T10:47:00Z</time>
      </trkpt>
      <trkpt lat="43.492741" lon="-3.516208">
        <ele>10.890</ele>
        <time>2016-04-02T10:47:13Z</time>
      </trkpt>
      <trkpt lat="43.492281" lon="-3.516842">
        <ele>15.019</ele>
        <time>2016-04-02T10:47:32Z</time>
      </trkpt>
      <trkpt lat="43.492251" lon="-3.516264">
        <ele>13.808</ele>
        <time>2016-04-02T10:47:40Z</time>
      </trkpt>
      <trkpt lat="43.491919" lon="-3.515464">
        <ele>12.278</ele>
        <time>2016-04-02T10:48:12Z</time>
      </trkpt>
      <trkpt lat="43.491409" lon="-3.515203">
        <ele>12.870</ele>
        <time>2016-04-02T10:48:29Z</time>
      </trkpt>
      <trkpt lat="43.490537" lon="-3.515484">
        <ele>7.697</ele>
        <time>2016-04-02T10:48:46Z</time>
      </trkpt>
      <trkpt lat="43.490123" lon="-3.515186">
        <ele>6.237</ele>
        <time>2016-04-02T10:49:04Z</time>
      </trkpt>
      <trkpt lat="43.489803" lon="-3.515376">
        <ele>6.043</ele>
        <time>2016-04-02T10:49:24Z</time>
      </trkpt>
      <trkpt lat="43.489295" lon="-3.515187">
        <ele>6.876</ele>
        <time>2016-04-02T10:49:43Z</time>
      </trkpt>
      <trkpt lat="43.488297" lon="-3.515888">
        <ele>5.449</ele>
        <time>2016-04-02T10:50:57Z</time>
      </trkpt>
      <trkpt lat="43.488154" lon="-3.515708">
        <ele>4.215</ele>
        <time>2016-04-02T10:51:08Z</time>
      </trkpt>
      <trkpt lat="43.487812" lon="-3.516095">
        <ele>4.484</ele>
        <time>2016-04-02T10:51:33Z</time>
      </trkpt>
      <trkpt lat="43.486913" lon="-3.515418">
        <ele>4.607</ele>
        <time>2016-04-02T10:51:54Z</time>
      </trkpt>
      <trkpt lat="43.486378" lon="-3.515697">
        <ele>7.017</ele>
        <time>2016-04-02T10:52:06Z</time>
      </trkpt>
      <trkpt lat="43.485084" lon="-3.515125">
        <ele>11.208</ele>
        <time>2016-04-02T10:52:37Z</time>
      </trkpt>
      <trkpt lat="43.483921" lon="-3.515064">
        <ele>9.269</ele>
        <time>2016-04-02T10:53:04Z</time>
      </trkpt>
      <trkpt lat="43.483811" lon="-3.514577">
        <ele>7.851</ele>
        <time>2016-04-02T10:53:13Z</time>
      </trkpt>
      <trkpt lat="43.482947" lon="-3.514619">
        <ele>5.698</ele>
        <time>2016-04-02T10:53:28Z</time>
      </trkpt>
      <trkpt lat="43.482202" lon="-3.516253">
        <ele>6.078</ele>
        <time>2016-04-02T10:53:53Z</time>
      </trkpt>
      <trkpt lat="43.481672" lon="-3.516921">
        <ele>6.424</ele>
        <time>2016-04-02T10:54:05Z</time>
      </trkpt>
      <trkpt lat="43.481168" lon="-3.517017">
        <ele>7.817</ele>
        <time>2016-04-02T10:54:15Z</time>
      </trkpt>
      <trkpt lat="43.479879" lon="-3.517900">
        <ele>7.020</ele>
        <time>2016-04-02T10:54:53Z</time>
      </trkpt>
      <trkpt lat="43.478134" lon="-3.517885">
        <ele>1.466</ele>
        <time>2016-04-02T10:55:16Z</time>
      </trkpt>
      <trkpt lat="43.477213" lon="-3.517490">
        <ele>0.615</ele>
        <time>2016-04-02T10:55:29Z</time>
      </trkpt>
      <trkpt lat="43.474400" lon="-3.514396">
        <ele>1.065</ele>
        <time>2016-04-02T10:56:20Z</time>
      </trkpt>
      <trkpt lat="43.472803" lon="-3.513294">
        <ele>1.211</ele>
        <time>2016-04-02T10:56:47Z</time>
      </trkpt>
      <trkpt lat="43.471884" lon="-3.511449">
        <ele>1.008</ele>
        <time>2016-04-02T10:57:17Z</time>
      </trkpt>
      <trkpt lat="43.472088" lon="-3.509991">
        <ele>0.612</ele>
        <time>2016-04-02T10:57:39Z</time>
      </trkpt>
      <trkpt lat="43.471252" lon="-3.509901">
        <ele>1.634</ele>
        <time>2016-04-02T10:58:17Z</time>
      </trkpt>
      <trkpt lat="43.470457" lon="-3.510136">
        <ele>4.411</ele>
        <time>2016-04-02T10:58:34Z</time>
      </trkpt>
      <trkpt lat="43.469620" lon="-3.514843">
        <ele>4.411</ele>
        <time>2016-04-02T10:59:32Z</time>
      </trkpt>
      <trkpt lat="43.469251" lon="-3.515607">
        <ele>4.627</ele>
        <time>2016-04-02T10:59:54Z</time>
      </trkpt>
      <trkpt lat="43.469206" lon="-3.516175">
        <ele>5.020</ele>
        <time>2016-04-02T11:01:00Z</time>
      </trkpt>
      <trkpt lat="43.468628" lon="-3.516838">
        <ele>4.823</ele>
        <time>2016-04-02T11:01:22Z</time>
      </trkpt>
      <trkpt lat="43.467111" lon="-3.517826">
        <ele>7.619</ele>
        <time>2016-04-02T11:02:17Z</time>
      </trkpt>
      <trkpt lat="43.465558" lon="-3.519306">
        <ele>7.425</ele>
        <time>2016-04-02T11:02:55Z</time>
      </trkpt>
      <trkpt lat="43.464724" lon="-3.519741">
        <ele>8.626</ele>
        <time>2016-04-02T11:03:08Z</time>
      </trkpt>
      <trkpt lat="43.462836" lon="-3.519212">
        <ele>6.808</ele>
        <time>2016-04-02T11:03:36Z</time>
      </trkpt>
      <trkpt lat="43.462430" lon="-3.518459">
        <ele>8.008</ele>
        <time>2016-04-02T11:03:47Z</time>
      </trkpt>
      <trkpt lat="43.462209" lon="-3.517292">
        <ele>9.273</ele>
        <time>2016-04-02T11:04:01Z</time>
      </trkpt>
      <trkpt lat="43.462292" lon="-3.514184">
        <ele>12.445</ele>
        <time>2016-04-02T11:04:38Z</time>
      </trkpt>
      <trkpt lat="43.461595" lon="-3.513502">
        <ele>13.042</ele>
        <time>2016-04-02T11:04:57Z</time>
      </trkpt>
      <trkpt lat="43.461352" lon="-3.512471">
        <ele>13.462</ele>
        <time>2016-04-02T11:05:12Z</time>
      </trkpt>
      <trkpt lat="43.460944" lon="-3.512380">
        <ele>15.278</ele>
        <time>2016-04-02T11:05:22Z</time>
      </trkpt>
      <trkpt lat="43.460448" lon="-3.510326">
        <ele>20.241</ele>
        <time>2016-04-02T11:05:48Z</time>
      </trkpt>
      <trkpt lat="43.460269" lon="-3.507689">
        <ele>22.034</ele>
        <time>2016-04-02T11:06:21Z</time>
      </trkpt>
      <trkpt lat="43.459182" lon="-3.507119">
        <ele>29.220</ele>
        <time>2016-04-02T11:06:44Z</time>
      </trkpt>
      <trkpt lat="43.458865" lon="-3.506340">
        <ele>30.049</ele>
        <time>2016-04-02T11:06:57Z</time>
      </trkpt>
      <trkpt lat="43.460819" lon="-3.505305">
        <ele>26.402</ele>
        <time>2016-04-02T11:07:29Z</time>
      </trkpt>
      <trkpt lat="43.460898" lon="-3.504731">
        <ele>29.822</ele>
        <time>2016-04-02T11:07:37Z</time>
      </trkpt>
      <trkpt lat="43.459747" lon="-3.499942">
        <ele>27.408</ele>
        <time>2016-04-02T11:08:35Z</time>
      </trkpt>
      <trkpt lat="43.459065" lon="-3.499895">
        <ele>22.095</ele>
        <time>2016-04-02T11:08:46Z</time>
      </trkpt>
      <trkpt lat="43.458636" lon="-3.498339">
        <ele>19.047</ele>
        <time>2016-04-02T11:09:04Z</time>
      </trkpt>
      <trkpt lat="43.458340" lon="-3.495796">
        <ele>16.634</ele>
        <time>2016-04-02T11:09:32Z</time>
      </trkpt>
      <trkpt lat="43.458017" lon="-3.494943">
        <ele>13.094</ele>
        <time>2016-04-02T11:09:44Z</time>
      </trkpt>
      <trkpt lat="43.458473" lon="-3.492561">
        <ele>12.230</ele>
        <time>2016-04-02T11:10:13Z</time>
      </trkpt>
      <trkpt lat="43.457632" lon="-3.491449">
        <ele>7.243</ele>
        <time>2016-04-02T11:10:29Z</time>
      </trkpt>
      <trkpt lat="43.456901" lon="-3.491066">
        <ele>7.486</ele>
        <time>2016-04-02T11:10:59Z</time>
      </trkpt>
      <trkpt lat="43.457532" lon="-3.488069">
        <ele>3.252</ele>
        <time>2016-04-02T11:11:36Z</time>
      </trkpt>
      <trkpt lat="43.457947" lon="-3.488075">
        <ele>2.668</ele>
        <time>2016-04-02T11:11:45Z</time>
      </trkpt>
      <trkpt lat="43.458142" lon="-3.487621">
        <ele>2.642</ele>
        <time>2016-04-02T11:11:51Z</time>
      </trkpt>
      <trkpt lat="43.458245" lon="-3.485497">
        <ele>2.026</ele>
        <time>2016-04-02T11:12:15Z</time>
      </trkpt>
      <trkpt lat="43.458574" lon="-3.484408">
        <ele>1.408</ele>
        <time>2016-04-02T11:12:29Z</time>
      </trkpt>
      <trkpt lat="43.458367" lon="-3.484051">
        <ele>2.247</ele>
        <time>2016-04-02T11:12:37Z</time>
      </trkpt>
      <trkpt lat="43.460589" lon="-3.480112">
        <ele>2.699</ele>
        <time>2016-04-02T11:13:40Z</time>
      </trkpt>
      <trkpt lat="43.463586" lon="-3.478478">
        <ele>2.286</ele>
        <time>2016-04-02T11:14:35Z</time>
      </trkpt>
      <trkpt lat="43.463882" lon="-3.477965">
        <ele>2.296</ele>
        <time>2016-04-02T11:14:43Z</time>
      </trkpt>
      <trkpt lat="43.462436" lon="-3.465425">
        <ele>-13.482</ele>
        <time>2016-04-18T09:20:16Z</time>
      </trkpt>
      <trkpt lat="43.462076" lon="-3.463695">
        <ele>-12.275</ele>
        <time>2016-04-18T09:20:40Z</time>
      </trkpt>
      <trkpt lat="43.455528" lon="-3.458187">
        <ele>-12.248</ele>
        <time>2016-04-18T09:22:47Z</time>
      </trkpt>
      <trkpt lat="43.454894" lon="-3.457947">
        <ele>-12.424</ele>
        <time>2016-04-18T09:22:58Z</time>
      </trkpt>
      <trkpt lat="43.452838" lon="-3.457813">
        <ele>-10.694</ele>
        <time>2016-04-18T09:23:31Z</time>
      </trkpt>
      <trkpt lat="43.451075" lon="-3.456549">
        <ele>-7.257</ele>
        <time>2016-04-18T09:24:06Z</time>
      </trkpt>
      <trkpt lat="43.447477" lon="-3.454924">
        <ele>-14.422</ele>
        <time>2016-04-18T09:25:05Z</time>
      </trkpt>
      <trkpt lat="43.447083" lon="-3.455172">
        <ele>-14.608</ele>
        <time>2016-04-18T09:25:13Z</time>
      </trkpt>
      <trkpt lat="43.445274" lon="-3.453559">
        <ele>-11.620</ele>
        <time>2016-04-18T09:25:49Z</time>
      </trkpt>
      <trkpt lat="43.443886" lon="-3.453383">
        <ele>-13.292</ele>
        <time>2016-04-18T09:26:12Z</time>
      </trkpt>
      <trkpt lat="43.441703" lon="-3.452183">
        <ele>-13.879</ele>
        <time>2016-04-18T09:26:52Z</time>
      </trkpt>
      <trkpt lat="43.439519" lon="-3.452036">
        <ele>-14.219</ele>
        <time>2016-04-18T09:27:34Z</time>
      </trkpt>
      <trkpt lat="43.439347" lon="-3.455157">
        <ele>-14.485</ele>
        <time>2016-04-18T09:28:41Z</time>
      </trkpt>
      <trkpt lat="43.439028" lon="-3.454837">
        <ele>-15.848</ele>
        <time>2016-04-18T09:45:34Z</time>
      </trkpt>
      <trkpt lat="43.437581" lon="-3.455260">
        <ele>-14.041</ele>
        <time>2016-04-18T09:47:49Z</time>
      </trkpt>
      <trkpt lat="43.436172" lon="-3.455114">
        <ele>-14.637</ele>
        <time>2016-04-18T09:48:46Z</time>
      </trkpt>
      <trkpt lat="43.435309" lon="-3.454522">
        <ele>-15.268</ele>
        <time>2016-04-18T09:49:27Z</time>
      </trkpt>
      <trkpt lat="43.433875" lon="-3.451948">
        <ele>-14.042</ele>
        <time>2016-04-18T09:53:00Z</time>
      </trkpt>
      <trkpt lat="43.433653" lon="-3.450988">
        <ele>-11.626</ele>
        <time>2016-04-18T09:53:46Z</time>
      </trkpt>
      <trkpt lat="43.433393" lon="-3.450697">
        <ele>-12.808</ele>
        <time>2016-04-18T09:54:01Z</time>
      </trkpt>
      <trkpt lat="43.428915" lon="-3.448678">
        <ele>-11.857</ele>
        <time>2016-04-18T09:55:29Z</time>
      </trkpt>
      <trkpt lat="43.429018" lon="-3.447350">
        <ele>-13.239</ele>
        <time>2016-04-18T09:55:50Z</time>
      </trkpt>
      <trkpt lat="43.422594" lon="-3.444510">
        <ele>-13.046</ele>
        <time>2016-04-18T09:57:43Z</time>
      </trkpt>
      <trkpt lat="43.422520" lon="-3.444161">
        <ele>-13.466</ele>
        <time>2016-04-18T09:57:48Z</time>
      </trkpt>
      <trkpt lat="43.416779" lon="-3.438409">
        <ele>-14.052</ele>
        <time>2016-04-18T09:59:50Z</time>
      </trkpt>
      <trkpt lat="43.412132" lon="-3.432119">
        <ele>-12.835</ele>
        <time>2016-04-18T10:01:38Z</time>
      </trkpt>
      <trkpt lat="43.410987" lon="-3.429396">
        <ele>-12.898</ele>
        <time>2016-04-18T10:02:17Z</time>
      </trkpt>
      <trkpt lat="43.410907" lon="-3.428864">
        <ele>-12.224</ele>
        <time>2016-04-18T10:02:24Z</time>
      </trkpt>
      <trkpt lat="43.410688" lon="-3.428636">
        <ele>-12.024</ele>
        <time>2016-04-18T10:02:30Z</time>
      </trkpt>
      <trkpt lat="43.410935" lon="-3.428146">
        <ele>-12.404</ele>
        <time>2016-04-18T10:02:39Z</time>
      </trkpt>
      <trkpt lat="43.410837" lon="-3.425360">
        <ele>-12.614</ele>
        <time>2016-04-18T10:03:14Z</time>
      </trkpt>
      <trkpt lat="43.410489" lon="-3.424644">
        <ele>-12.608</ele>
        <time>2016-04-18T10:03:27Z</time>
      </trkpt>
      <trkpt lat="43.410403" lon="-3.422154">
        <ele>-12.263</ele>
        <time>2016-04-18T10:03:59Z</time>
      </trkpt>
      <trkpt lat="43.410965" lon="-3.418508">
        <ele>-12.275</ele>
        <time>2016-04-18T10:04:57Z</time>
      </trkpt>
      <trkpt lat="43.411296" lon="-3.418561">
        <ele>-12.632</ele>
        <time>2016-04-18T10:05:06Z</time>
      </trkpt>
      <trkpt lat="43.411889" lon="-3.417424">
        <ele>-12.442</ele>
        <time>2016-04-18T10:05:23Z</time>
      </trkpt>
      <trkpt lat="43.411902" lon="-3.413167">
        <ele>-12.028</ele>
        <time>2016-04-18T10:06:18Z</time>
      </trkpt>
      <trkpt lat="43.411754" lon="-3.412856">
        <ele>-11.261</ele>
        <time>2016-04-18T10:06:27Z</time>
      </trkpt>
      <trkpt lat="43.410484" lon="-3.412744">
        <ele>-11.244</ele>
        <time>2016-04-18T10:07:09Z</time>
      </trkpt>
      <trkpt lat="43.410862" lon="-3.412612">
        <ele>-11.240</ele>
        <time>2016-04-18T10:07:17Z</time>
      </trkpt>
      <trkpt lat="43.411308" lon="-3.412058">
        <ele>-11.067</ele>
        <time>2016-04-18T10:07:27Z</time>
      </trkpt>
      <trkpt lat="43.411913" lon="-3.410380">
        <ele>-7.081</ele>
        <time>2016-04-18T10:10:10Z</time>
      </trkpt>
      <trkpt lat="43.412696" lon="-3.410519">
        <ele>2.219</ele>
        <time>2016-04-18T10:10:33Z</time>
      </trkpt>
      <trkpt lat="43.413269" lon="-3.408638">
        <ele>12.008</ele>
        <time>2016-04-18T10:11:03Z</time>
      </trkpt>
      <trkpt lat="43.414104" lon="-3.407176">
        <ele>16.877</ele>
        <time>2016-04-18T10:11:33Z</time>
      </trkpt>
      <trkpt lat="43.413715" lon="-3.405114">
        <ele>13.619</ele>
        <time>2016-04-18T10:11:57Z</time>
      </trkpt>
      <trkpt lat="43.414214" lon="-3.401321">
        <ele>29.686</ele>
        <time>2016-04-18T10:12:58Z</time>
      </trkpt>
      <trkpt lat="43.413853" lon="-3.399833">
        <ele>55.816</ele>
        <time>2016-04-18T10:13:47Z</time>
      </trkpt>
      <trkpt lat="43.412971" lon="-3.398034">
        <ele>80.242</ele>
        <time>2016-04-18T10:14:51Z</time>
      </trkpt>
      <trkpt lat="43.412966" lon="-3.396038">
        <ele>88.025</ele>
        <time>2016-04-18T10:15:48Z</time>
      </trkpt>
      <trkpt lat="43.412746" lon="-3.394528">
        <ele>108.478</ele>
        <time>2016-04-18T10:16:41Z</time>
      </trkpt>
      <trkpt lat="43.412073" lon="-3.393101">
        <ele>127.624</ele>
        <time>2016-04-18T10:17:55Z</time>
      </trkpt>
      <trkpt lat="43.412156" lon="-3.392367">
        <ele>137.217</ele>
        <time>2016-04-18T10:18:21Z</time>
      </trkpt>
      <trkpt lat="43.412381" lon="-3.392201">
        <ele>139.687</ele>
        <time>2016-04-18T10:18:33Z</time>
      </trkpt>
      <trkpt lat="43.411688" lon="-3.391910">
        <ele>156.815</ele>
        <time>2016-04-18T10:19:11Z</time>
      </trkpt>
      <trkpt lat="43.411237" lon="-3.391265">
        <ele>167.408</ele>
        <time>2016-04-18T10:19:37Z</time>
      </trkpt>
      <trkpt lat="43.411418" lon="-3.390539">
        <ele>169.042</ele>
        <time>2016-04-18T10:20:26Z</time>
      </trkpt>
      <trkpt lat="43.411034" lon="-3.389407">
        <ele>185.034</ele>
        <time>2016-04-18T10:21:03Z</time>
      </trkpt>
      <trkpt lat="43.412391" lon="-3.390128">
        <ele>191.421</ele>
        <time>2016-04-18T10:24:03Z</time>
      </trkpt>
      <trkpt lat="43.411399" lon="-3.389650">
        <ele>188.451</ele>
        <time>2016-04-18T10:25:42Z</time>
      </trkpt>
      <trkpt lat="43.411698" lon="-3.388991">
        <ele>179.667</ele>
        <time>2016-04-18T10:26:05Z</time>
      </trkpt>
      <trkpt lat="43.411765" lon="-3.388093">
        <ele>175.890</ele>
        <time>2016-04-18T10:27:07Z</time>
      </trkpt>
      <trkpt lat="43.412519" lon="-3.387464">
        <ele>181.613</ele>
        <time>2016-04-18T10:28:31Z</time>
      </trkpt>
      <trkpt lat="43.412021" lon="-3.385622">
        <ele>171.659</ele>
        <time>2016-04-18T10:30:28Z</time>
      </trkpt>
      <trkpt lat="43.412310" lon="-3.385233">
        <ele>168.619</ele>
        <time>2016-04-18T10:30:42Z</time>
      </trkpt>
      <trkpt lat="43.412310" lon="-3.384414">
        <ele>169.009</ele>
        <time>2016-04-18T10:31:11Z</time>
      </trkpt>
      <trkpt lat="43.412924" lon="-3.383644">
        <ele>173.619</ele>
        <time>2016-04-18T10:31:50Z</time>
      </trkpt>
      <trkpt lat="43.413255" lon="-3.382314">
        <ele>162.408</ele>
        <time>2016-04-18T10:33:32Z</time>
      </trkpt>
      <trkpt lat="43.413204" lon="-3.381384">
        <ele>153.612</ele>
        <time>2016-04-18T10:34:15Z</time>
      </trkpt>
      <trkpt lat="43.412728" lon="-3.379619">
        <ele>131.454</ele>
        <time>2016-04-18T10:34:57Z</time>
      </trkpt>
      <trkpt lat="43.412835" lon="-3.378901">
        <ele>118.441</ele>
        <time>2016-04-18T10:35:13Z</time>
      </trkpt>
      <trkpt lat="43.413525" lon="-3.378306">
        <ele>104.841</ele>
        <time>2016-04-18T10:35:30Z</time>
      </trkpt>
      <trkpt lat="43.413975" lon="-3.379508">
        <ele>102.077</ele>
        <time>2016-04-18T10:35:55Z</time>
      </trkpt>
      <trkpt lat="43.414333" lon="-3.379683">
        <ele>99.230</ele>
        <time>2016-04-18T10:39:13Z</time>
      </trkpt>
      <trkpt lat="43.413995" lon="-3.379476">
        <ele>100.453</ele>
        <time>2016-04-18T10:39:32Z</time>
      </trkpt>
      <trkpt lat="43.413451" lon="-3.378156">
        <ele>104.259</ele>
        <time>2016-04-18T10:40:03Z</time>
      </trkpt>
      <trkpt lat="43.413274" lon="-3.376695">
        <ele>93.427</ele>
        <time>2016-04-18T10:40:18Z</time>
      </trkpt>
      <trkpt lat="43.412498" lon="-3.375310">
        <ele>83.668</ele>
        <time>2016-04-18T10:40:36Z</time>
      </trkpt>
      <trkpt lat="43.412144" lon="-3.374131">
        <ele>75.014</ele>
        <time>2016-04-18T10:40:49Z</time>
      </trkpt>
      <trkpt lat="43.410791" lon="-3.371978">
        <ele>66.408</ele>
        <time>2016-04-18T10:41:27Z</time>
      </trkpt>
      <trkpt lat="43.409994" lon="-3.371219">
        <ele>55.883</ele>
        <time>2016-04-18T10:41:37Z</time>
      </trkpt>
      <trkpt lat="43.408981" lon="-3.370758">
        <ele>39.065</ele>
        <time>2016-04-18T10:41:49Z</time>
      </trkpt>
      <trkpt lat="43.408447" lon="-3.370245">
        <ele>29.632</ele>
        <time>2016-04-18T10:41:57Z</time>
      </trkpt>
      <trkpt lat="43.408069" lon="-3.370562">
        <ele>19.692</ele>
        <time>2016-04-18T10:42:04Z</time>
      </trkpt>
      <trkpt lat="43.406746" lon="-3.369920">
        <ele>13.478</ele>
        <time>2016-04-18T10:42:21Z</time>
      </trkpt>
      <trkpt lat="43.405329" lon="-3.370256">
        <ele>11.831</ele>
        <time>2016-04-18T10:42:40Z</time>
      </trkpt>
      <trkpt lat="43.405059" lon="-3.369028">
        <ele>10.284</ele>
        <time>2016-04-18T10:42:54Z</time>
      </trkpt>
      <trkpt lat="43.404036" lon="-3.367892">
        <ele>8.440</ele>
        <time>2016-04-18T10:43:13Z</time>
      </trkpt>
      <trkpt lat="43.402643" lon="-3.367585">
        <ele>7.824</ele>
        <time>2016-04-18T10:43:32Z</time>
      </trkpt>
      <trkpt lat="43.402061" lon="-3.367947">
        <ele>8.004</ele>
        <time>2016-04-18T10:43:41Z</time>
      </trkpt>
      <trkpt lat="43.399325" lon="-3.371295">
        <ele>7.614</ele>
        <time>2016-04-18T10:44:40Z</time>
      </trkpt>
      <trkpt lat="43.399167" lon="-3.373275">
        <ele>9.608</ele>
        <time>2016-04-18T10:45:01Z</time>
      </trkpt>
      <trkpt lat="43.398194" lon="-3.375159">
        <ele>9.463</ele>
        <time>2016-04-18T10:45:25Z</time>
      </trkpt>
      <trkpt lat="43.397223" lon="-3.376472">
        <ele>10.485</ele>
        <time>2016-04-18T10:45:46Z</time>
      </trkpt>
      <trkpt lat="43.396754" lon="-3.377580">
        <ele>11.862</ele>
        <time>2016-04-18T10:46:01Z</time>
      </trkpt>
      <trkpt lat="43.395177" lon="-3.379126">
        <ele>12.652</ele>
        <time>2016-04-18T10:46:33Z</time>
      </trkpt>
      <trkpt lat="43.394909" lon="-3.379085">
        <ele>12.858</ele>
        <time>2016-04-18T10:46:39Z</time>
      </trkpt>
      <trkpt lat="43.394645" lon="-3.378659">
        <ele>12.281</ele>
        <time>2016-04-18T10:51:32Z</time>
      </trkpt>
      <trkpt lat="43.394878" lon="-3.379052">
        <ele>13.054</ele>
        <time>2016-04-18T10:54:23Z</time>
      </trkpt>
      <trkpt lat="43.394209" lon="-3.379393">
        <ele>13.410</ele>
        <time>2016-04-18T10:54:38Z</time>
      </trkpt>
      <trkpt lat="43.393887" lon="-3.380371">
        <ele>14.477</ele>
        <time>2016-04-18T10:54:52Z</time>
      </trkpt>
      <trkpt lat="43.393576" lon="-3.380442">
        <ele>14.861</ele>
        <time>2016-04-18T10:54:58Z</time>
      </trkpt>
      <trkpt lat="43.393424" lon="-3.381503">
        <ele>14.627</ele>
        <time>2016-04-18T10:55:11Z</time>
      </trkpt>
      <trkpt lat="43.393105" lon="-3.382145">
        <ele>14.808</ele>
        <time>2016-04-18T10:55:23Z</time>
      </trkpt>
      <trkpt lat="43.393437" lon="-3.381551">
        <ele>14.658</ele>
        <time>2016-04-18T10:56:01Z</time>
      </trkpt>
      <trkpt lat="43.393604" lon="-3.380261">
        <ele>14.650</ele>
        <time>2016-04-18T10:56:18Z</time>
      </trkpt>
      <trkpt lat="43.393434" lon="-3.379876">
        <ele>16.077</ele>
        <time>2016-04-18T10:56:25Z</time>
      </trkpt>
      <trkpt lat="43.393071" lon="-3.379731">
        <ele>16.467</ele>
        <time>2016-04-18T10:56:32Z</time>
      </trkpt>
      <trkpt lat="43.392023" lon="-3.380004">
        <ele>18.283</ele>
        <time>2016-04-18T10:56:51Z</time>
      </trkpt>
      <trkpt lat="43.389767" lon="-3.381629">
        <ele>24.616</ele>
        <time>2016-04-18T10:57:36Z</time>
      </trkpt>
      <trkpt lat="43.386984" lon="-3.381887">
        <ele>31.699</ele>
        <time>2016-04-18T10:58:25Z</time>
      </trkpt>
      <trkpt lat="43.386569" lon="-3.382108">
        <ele>32.235</ele>
        <time>2016-04-18T10:58:34Z</time>
      </trkpt>
      <trkpt lat="43.385232" lon="-3.380134">
        <ele>38.869</ele>
        <time>2016-04-18T10:59:13Z</time>
      </trkpt>
      <trkpt lat="43.384521" lon="-3.379723">
        <ele>40.204</ele>
        <time>2016-04-18T10:59:29Z</time>
      </trkpt>
      <trkpt lat="43.384062" lon="-3.378909">
        <ele>43.624</ele>
        <time>2016-04-18T10:59:46Z</time>
      </trkpt>
      <trkpt lat="43.382844" lon="-3.378235">
        <ele>48.808</ele>
        <time>2016-04-18T11:00:14Z</time>
      </trkpt>
      <trkpt lat="43.381941" lon="-3.378126">
        <ele>51.417</ele>
        <time>2016-04-18T11:00:33Z</time>
      </trkpt>
      <trkpt lat="43.380919" lon="-3.378365">
        <ele>58.019</ele>
        <time>2016-04-18T11:00:59Z</time>
      </trkpt>
      <trkpt lat="43.380288" lon="-3.377415">
        <ele>59.476</ele>
        <time>2016-04-18T11:01:22Z</time>
      </trkpt>
      <trkpt lat="43.379334" lon="-3.377113">
        <ele>64.266</ele>
        <time>2016-04-18T11:01:42Z</time>
      </trkpt>
      <trkpt lat="43.378173" lon="-3.377346">
        <ele>71.612</ele>
        <time>2016-04-18T11:02:12Z</time>
      </trkpt>
      <trkpt lat="43.377358" lon="-3.378252">
        <ele>76.085</ele>
        <time>2016-04-18T11:02:39Z</time>
      </trkpt>
      <trkpt lat="43.376450" lon="-3.378615">
        <ele>81.288</ele>
        <time>2016-04-18T11:03:02Z</time>
      </trkpt>
      <trkpt lat="43.375518" lon="-3.379476">
        <ele>93.064</ele>
        <time>2016-04-18T11:03:38Z</time>
      </trkpt>
      <trkpt lat="43.374682" lon="-3.379265">
        <ele>99.089</ele>
        <time>2016-04-18T11:04:05Z</time>
      </trkpt>
      <trkpt lat="43.373251" lon="-3.379548">
        <ele>126.606</ele>
        <time>2016-04-18T11:05:05Z</time>
      </trkpt>
      <trkpt lat="43.372582" lon="-3.380231">
        <ele>138.226</ele>
        <time>2016-04-18T11:05:41Z</time>
      </trkpt>
      <trkpt lat="43.372824" lon="-3.380754">
        <ele>146.408</ele>
        <time>2016-04-18T11:06:04Z</time>
      </trkpt>
      <trkpt lat="43.372308" lon="-3.381443">
        <ele>159.469</ele>
        <time>2016-04-18T11:06:36Z</time>
      </trkpt>
      <trkpt lat="43.372337" lon="-3.382218">
        <ele>173.411</ele>
        <time>2016-04-18T11:07:04Z</time>
      </trkpt>
      <trkpt lat="43.371385" lon="-3.383256">
        <ele>197.648</ele>
        <time>2016-04-18T11:07:58Z</time>
      </trkpt>
      <trkpt lat="43.371143" lon="-3.385811">
        <ele>239.848</ele>
        <time>2016-04-18T11:09:28Z</time>
      </trkpt>
      <trkpt lat="43.370608" lon="-3.386077">
        <ele>248.884</ele>
        <time>2016-04-18T11:09:53Z</time>
      </trkpt>
      <trkpt lat="43.369360" lon="-3.388759">
        <ele>289.257</ele>
        <time>2016-04-18T11:11:30Z</time>
      </trkpt>
      <trkpt lat="43.368906" lon="-3.390139">
        <ele>310.670</ele>
        <time>2016-04-18T11:12:23Z</time>
      </trkpt>
      <trkpt lat="43.369673" lon="-3.391849">
        <ele>304.416</ele>
        <time>2016-04-18T11:13:04Z</time>
      </trkpt>
      <trkpt lat="43.370544" lon="-3.392684">
        <ele>303.464</ele>
        <time>2016-04-18T11:13:32Z</time>
      </trkpt>
      <trkpt lat="43.371467" lon="-3.393163">
        <ele>304.006</ele>
        <time>2016-04-18T11:13:55Z</time>
      </trkpt>
      <trkpt lat="43.371829" lon="-3.394152">
        <ele>312.016</ele>
        <time>2016-04-18T11:14:20Z</time>
      </trkpt>
      <trkpt lat="43.370995" lon="-3.393584">
        <ele>319.808</ele>
        <time>2016-04-18T11:14:56Z</time>
      </trkpt>
      <trkpt lat="43.369549" lon="-3.393318">
        <ele>338.497</ele>
        <time>2016-04-18T11:15:55Z</time>
      </trkpt>
      <trkpt lat="43.368294" lon="-3.393387">
        <ele>353.859</ele>
        <time>2016-04-18T11:16:49Z</time>
      </trkpt>
      <trkpt lat="43.368317" lon="-3.394023">
        <ele>361.086</ele>
        <time>2016-04-18T11:17:08Z</time>
      </trkpt>
      <trkpt lat="43.368114" lon="-3.394708">
        <ele>368.056</ele>
        <time>2016-04-18T11:17:30Z</time>
      </trkpt>
      <trkpt lat="43.367689" lon="-3.395235">
        <ele>375.262</ele>
        <time>2016-04-18T11:17:54Z</time>
      </trkpt>
      <trkpt lat="43.367231" lon="-3.393233">
        <ele>391.485</ele>
        <time>2016-04-18T11:19:00Z</time>
      </trkpt>
      <trkpt lat="43.365912" lon="-3.391986">
        <ele>402.628</ele>
        <time>2016-04-18T11:19:56Z</time>
      </trkpt>
      <trkpt lat="43.365323" lon="-3.390575">
        <ele>415.264</ele>
        <time>2016-04-18T11:20:40Z</time>
      </trkpt>
      <trkpt lat="43.364428" lon="-3.390147">
        <ele>425.852</ele>
        <time>2016-04-18T11:21:21Z</time>
      </trkpt>
      <trkpt lat="43.363698" lon="-3.389257">
        <ele>436.053</ele>
        <time>2016-04-18T11:22:01Z</time>
      </trkpt>
      <trkpt lat="43.362924" lon="-3.387297">
        <ele>452.808</ele>
        <time>2016-04-18T11:23:07Z</time>
      </trkpt>
      <trkpt lat="43.361933" lon="-3.386039">
        <ele>454.208</ele>
        <time>2016-04-18T11:23:48Z</time>
      </trkpt>
      <trkpt lat="43.360899" lon="-3.382066">
        <ele>447.266</ele>
        <time>2016-04-18T11:24:41Z</time>
      </trkpt>
      <trkpt lat="43.357881" lon="-3.376778">
        <ele>463.838</ele>
        <time>2016-04-18T11:26:31Z</time>
      </trkpt>
      <trkpt lat="43.357758" lon="-3.376090">
        <ele>466.265</ele>
        <time>2016-04-18T11:26:46Z</time>
      </trkpt>
      <trkpt lat="43.357875" lon="-3.375320">
        <ele>472.035</ele>
        <time>2016-04-18T11:27:08Z</time>
      </trkpt>
      <trkpt lat="43.356503" lon="-3.371652">
        <ele>513.461</ele>
        <time>2016-04-18T11:29:25Z</time>
      </trkpt>
      <trkpt lat="43.353979" lon="-3.368757">
        <ele>532.224</ele>
        <time>2016-04-18T11:31:33Z</time>
      </trkpt>
      <trkpt lat="43.353921" lon="-3.367710">
        <ele>525.487</ele>
        <time>2016-04-18T11:31:52Z</time>
      </trkpt>
      <trkpt lat="43.355211" lon="-3.365838">
        <ele>545.263</ele>
        <time>2016-04-18T11:33:03Z</time>
      </trkpt>
      <trkpt lat="43.356660" lon="-3.366533">
        <ele>543.077</ele>
        <time>2016-04-18T11:34:14Z</time>
      </trkpt>
      <trkpt lat="43.354999" lon="-3.364923">
        <ele>537.261</ele>
        <time>2016-04-18T11:35:09Z</time>
      </trkpt>
      <trkpt lat="43.354704" lon="-3.365043">
        <ele>534.027</ele>
        <time>2016-04-18T11:35:14Z</time>
      </trkpt>
      <trkpt lat="43.354020" lon="-3.365956">
        <ele>524.608</ele>
        <time>2016-04-18T11:35:27Z</time>
      </trkpt>
      <trkpt lat="43.352525" lon="-3.366275">
        <ele>506.058</ele>
        <time>2016-04-18T11:35:50Z</time>
      </trkpt>
      <trkpt lat="43.350532" lon="-3.363886">
        <ele>452.880</ele>
        <time>2016-04-18T11:37:18Z</time>
      </trkpt>
      <trkpt lat="43.350984" lon="-3.363242">
        <ele>450.617</ele>
        <time>2016-04-18T11:37:40Z</time>
      </trkpt>
      <trkpt lat="43.351713" lon="-3.362892">
        <ele>446.427</ele>
        <time>2016-04-18T11:37:56Z</time>
      </trkpt>
      <trkpt lat="43.352704" lon="-3.363833">
        <ele>432.863</ele>
        <time>2016-04-18T11:38:21Z</time>
      </trkpt>
      <trkpt lat="43.353193" lon="-3.363904">
        <ele>433.456</ele>
        <time>2016-04-18T11:38:47Z</time>
      </trkpt>
      <trkpt lat="43.354019" lon="-3.362306">
        <ele>425.299</ele>
        <time>2016-04-18T11:39:24Z</time>
      </trkpt>
      <trkpt lat="43.354880" lon="-3.361991">
        <ele>424.475</ele>
        <time>2016-04-18T11:39:48Z</time>
      </trkpt>
      <trkpt lat="43.355247" lon="-3.361453">
        <ele>417.814</ele>
        <time>2016-04-18T11:39:59Z</time>
      </trkpt>
      <trkpt lat="43.357191" lon="-3.362845">
        <ele>413.054</ele>
        <time>2016-04-18T11:40:57Z</time>
      </trkpt>
      <trkpt lat="43.358067" lon="-3.362386">
        <ele>416.209</ele>
        <time>2016-04-18T11:41:23Z</time>
      </trkpt>
      <trkpt lat="43.359005" lon="-3.361468">
        <ele>414.608</ele>
        <time>2016-04-18T11:41:55Z</time>
      </trkpt>
      <trkpt lat="43.359145" lon="-3.360748">
        <ele>406.832</ele>
        <time>2016-04-18T11:42:08Z</time>
      </trkpt>
      <trkpt lat="43.360213" lon="-3.358958">
        <ele>379.014</ele>
        <time>2016-04-18T11:42:47Z</time>
      </trkpt>
      <trkpt lat="43.360835" lon="-3.358757">
        <ele>384.841</ele>
        <time>2016-04-18T11:43:06Z</time>
      </trkpt>
      <trkpt lat="43.361199" lon="-3.356192">
        <ele>386.241</ele>
        <time>2016-04-18T11:43:56Z</time>
      </trkpt>
      <trkpt lat="43.361855" lon="-3.356864">
        <ele>377.697</ele>
        <time>2016-04-18T11:44:24Z</time>
      </trkpt>
      <trkpt lat="43.363160" lon="-3.357578">
        <ele>346.070</ele>
        <time>2016-04-18T11:45:18Z</time>
      </trkpt>
      <trkpt lat="43.363537" lon="-3.357123">
        <ele>342.233</ele>
        <time>2016-04-18T11:45:30Z</time>
      </trkpt>
      <trkpt lat="43.363695" lon="-3.356023">
        <ele>331.269</ele>
        <time>2016-04-18T11:45:56Z</time>
      </trkpt>
      <trkpt lat="43.364941" lon="-3.355196">
        <ele>313.475</ele>
        <time>2016-04-18T11:46:34Z</time>
      </trkpt>
      <trkpt lat="43.365888" lon="-3.353425">
        <ele>298.828</ele>
        <time>2016-04-18T11:47:08Z</time>
      </trkpt>
      <trkpt lat="43.365949" lon="-3.352058">
        <ele>286.420</ele>
        <time>2016-04-18T11:47:27Z</time>
      </trkpt>
      <trkpt lat="43.365593" lon="-3.351182">
        <ele>275.208</ele>
        <time>2016-04-18T11:47:41Z</time>
      </trkpt>
      <trkpt lat="43.365055" lon="-3.350938">
        <ele>271.098</ele>
        <time>2016-04-18T11:47:52Z</time>
      </trkpt>
      <trkpt lat="43.364486" lon="-3.349497">
        <ele>255.420</ele>
        <time>2016-04-18T11:48:17Z</time>
      </trkpt>
      <trkpt lat="43.364480" lon="-3.349013">
        <ele>248.097</ele>
        <time>2016-04-18T11:48:25Z</time>
      </trkpt>
      <trkpt lat="43.363671" lon="-3.348099">
        <ele>237.617</ele>
        <time>2016-04-18T11:48:43Z</time>
      </trkpt>
      <trkpt lat="43.363243" lon="-3.345918">
        <ele>216.083</ele>
        <time>2016-04-18T11:49:49Z</time>
      </trkpt>
      <trkpt lat="43.362158" lon="-3.344770">
        <ele>204.296</ele>
        <time>2016-04-18T11:50:08Z</time>
      </trkpt>
      <trkpt lat="43.362181" lon="-3.344189">
        <ele>195.849</ele>
        <time>2016-04-18T11:50:18Z</time>
      </trkpt>
      <trkpt lat="43.361886" lon="-3.344375">
        <ele>196.275</ele>
        <time>2016-04-18T11:50:28Z</time>
      </trkpt>
      <trkpt lat="43.361242" lon="-3.343008">
        <ele>193.491</ele>
        <time>2016-04-18T11:50:52Z</time>
      </trkpt>
      <trkpt lat="43.360784" lon="-3.340990">
        <ele>188.681</ele>
        <time>2016-04-18T11:51:19Z</time>
      </trkpt>
      <trkpt lat="43.360594" lon="-3.339180">
        <ele>175.219</ele>
        <time>2016-04-18T11:51:34Z</time>
      </trkpt>
      <trkpt lat="43.361088" lon="-3.334411">
        <ele>138.608</ele>
        <time>2016-04-18T11:52:25Z</time>
      </trkpt>
      <trkpt lat="43.361483" lon="-3.333980">
        <ele>127.610</ele>
        <time>2016-04-18T11:52:35Z</time>
      </trkpt>
      <trkpt lat="43.361766" lon="-3.334007">
        <ele>122.012</ele>
        <time>2016-04-18T11:52:43Z</time>
      </trkpt>
      <trkpt lat="43.362103" lon="-3.333039">
        <ele>110.489</ele>
        <time>2016-04-18T11:52:58Z</time>
      </trkpt>
      <trkpt lat="43.362070" lon="-3.332307">
        <ele>99.089</ele>
        <time>2016-04-18T11:53:07Z</time>
      </trkpt>
      <trkpt lat="43.361661" lon="-3.331663">
        <ele>88.065</ele>
        <time>2016-04-18T11:53:24Z</time>
      </trkpt>
      <trkpt lat="43.361863" lon="-3.331508">
        <ele>83.088</ele>
        <time>2016-04-18T11:53:32Z</time>
      </trkpt>
      <trkpt lat="43.362341" lon="-3.331753">
        <ele>65.421</ele>
        <time>2016-04-18T11:53:57Z</time>
      </trkpt>
      <trkpt lat="43.362223" lon="-3.330259">
        <ele>41.627</ele>
        <time>2016-04-18T11:54:26Z</time>
      </trkpt>
      <trkpt lat="43.362716" lon="-3.330053">
        <ele>28.884</ele>
        <time>2016-04-18T11:54:42Z</time>
      </trkpt>
      <trkpt lat="43.362124" lon="-3.329123">
        <ele>4.807</ele>
        <time>2016-04-18T11:55:19Z</time>
      </trkpt>
      <trkpt lat="43.362846" lon="-3.328492">
        <ele>-1.817</ele>
        <time>2016-04-18T11:55:44Z</time>
      </trkpt>
      <trkpt lat="43.362501" lon="-3.325526">
        <ele>-3.808</ele>
        <time>2016-04-18T11:56:23Z</time>
      </trkpt>
      <trkpt lat="43.365064" lon="-3.324864">
        <ele>-5.879</ele>
        <time>2016-04-18T11:57:19Z</time>
      </trkpt>
      <trkpt lat="43.365942" lon="-3.324222">
        <ele>-4.891</ele>
        <time>2016-04-18T11:57:44Z</time>
      </trkpt>
      <trkpt lat="43.365147" lon="-3.323021">
        <ele>-6.228</ele>
        <time>2016-04-18T11:58:05Z</time>
      </trkpt>
      <trkpt lat="43.363341" lon="-3.320952">
        <ele>-1.488</ele>
        <time>2016-04-18T11:58:48Z</time>
      </trkpt>
      <trkpt lat="43.363817" lon="-3.320476">
        <ele>-3.094</ele>
        <time>2016-04-18T11:59:00Z</time>
      </trkpt>
      <trkpt lat="43.364650" lon="-3.318580">
        <ele>-2.067</ele>
        <time>2016-04-18T11:59:34Z</time>
      </trkpt>
      <trkpt lat="43.365118" lon="-3.318318">
        <ele>-3.640</ele>
        <time>2016-04-18T11:59:45Z</time>
      </trkpt>
      <trkpt lat="43.365070" lon="-3.317772">
        <ele>-4.876</ele>
        <time>2016-04-18T11:59:54Z</time>
      </trkpt>
      <trkpt lat="43.364594" lon="-3.317487">
        <ele>-4.471</ele>
        <time>2016-04-18T12:00:08Z</time>
      </trkpt>
      <trkpt lat="43.364746" lon="-3.316825">
        <ele>-2.641</ele>
        <time>2016-04-18T12:00:21Z</time>
      </trkpt>
      <trkpt lat="43.363358" lon="-3.318132">
        <ele>0.815</ele>
        <time>2016-04-18T12:00:55Z</time>
      </trkpt>
      <trkpt lat="43.362968" lon="-3.319060">
        <ele>9.608</ele>
        <time>2016-04-18T12:01:18Z</time>
      </trkpt>
      <trkpt lat="43.362960" lon="-3.319635">
        <ele>11.258</ele>
        <time>2016-04-18T12:01:32Z</time>
      </trkpt>
      <trkpt lat="43.362432" lon="-3.319456">
        <ele>13.460</ele>
        <time>2016-04-18T12:01:49Z</time>
      </trkpt>
      <trkpt lat="43.361790" lon="-3.317866">
        <ele>14.817</ele>
        <time>2016-04-18T12:02:52Z</time>
      </trkpt>
      <trkpt lat="43.361905" lon="-3.317565">
        <ele>9.217</ele>
        <time>2016-04-18T12:03:16Z</time>
      </trkpt>
      <trkpt lat="43.361620" lon="-3.317364">
        <ele>6.063</ele>
        <time>2016-04-18T12:06:21Z</time>
      </trkpt>
      <trkpt lat="43.359785" lon="-3.318345">
        <ele>11.246</ele>
        <time>2016-04-18T12:07:03Z</time>
      </trkpt>
      <trkpt lat="43.359125" lon="-3.317039">
        <ele>12.629</ele>
        <time>2016-04-18T12:07:26Z</time>
      </trkpt>
      <trkpt lat="43.358972" lon="-3.316309">
        <ele>14.475</ele>
        <time>2016-04-18T12:07:38Z</time>
      </trkpt>
      <trkpt lat="43.358258" lon="-3.315592">
        <ele>18.423</ele>
        <time>2016-04-18T12:07:58Z</time>
      </trkpt>
      <trkpt lat="43.356968" lon="-3.313645">
        <ele>26.883</ele>
        <time>2016-04-18T12:08:42Z</time>
      </trkpt>
      <trkpt lat="43.357845" lon="-3.312787">
        <ele>23.011</ele>
        <time>2016-04-18T12:09:02Z</time>
      </trkpt>
      <trkpt lat="43.357868" lon="-3.311561">
        <ele>25.008</ele>
        <time>2016-04-18T12:09:18Z</time>
      </trkpt>
      <trkpt lat="43.355455" lon="-3.307546">
        <ele>61.473</ele>
        <time>2016-04-18T12:11:24Z</time>
      </trkpt>
      <trkpt lat="43.354833" lon="-3.307001">
        <ele>78.425</ele>
        <time>2016-04-18T12:11:59Z</time>
      </trkpt>
      <trkpt lat="43.354264" lon="-3.307119">
        <ele>82.432</ele>
        <time>2016-04-18T12:12:25Z</time>
      </trkpt>
      <trkpt lat="43.353266" lon="-3.305739">
        <ele>107.632</ele>
        <time>2016-04-18T12:13:29Z</time>
      </trkpt>
      <trkpt lat="43.352564" lon="-3.307395">
        <ele>130.898</ele>
        <time>2016-04-18T12:14:30Z</time>
      </trkpt>
      <trkpt lat="43.353160" lon="-3.308332">
        <ele>137.071</ele>
        <time>2016-04-18T12:15:09Z</time>
      </trkpt>
      <trkpt lat="43.353327" lon="-3.308947">
        <ele>145.294</ele>
        <time>2016-04-18T12:15:31Z</time>
      </trkpt>
      <trkpt lat="43.351977" lon="-3.309131">
        <ele>166.420</ele>
        <time>2016-04-18T12:16:36Z</time>
      </trkpt>
      <trkpt lat="43.351187" lon="-3.308234">
        <ele>189.084</ele>
        <time>2016-04-18T12:17:23Z</time>
      </trkpt>
      <trkpt lat="43.350559" lon="-3.307845">
        <ele>205.007</ele>
        <time>2016-04-18T12:18:00Z</time>
      </trkpt>
      <trkpt lat="43.350371" lon="-3.307371">
        <ele>212.817</ele>
        <time>2016-04-18T12:18:19Z</time>
      </trkpt>
      <trkpt lat="43.349940" lon="-3.306999">
        <ele>221.808</ele>
        <time>2016-04-18T12:18:43Z</time>
      </trkpt>
      <trkpt lat="43.348695" lon="-3.307379">
        <ele>228.839</ele>
        <time>2016-04-18T12:19:35Z</time>
      </trkpt>
      <trkpt lat="43.348399" lon="-3.307243">
        <ele>235.241</ele>
        <time>2016-04-18T12:19:48Z</time>
      </trkpt>
      <trkpt lat="43.347540" lon="-3.305936">
        <ele>244.878</ele>
        <time>2016-04-18T12:20:38Z</time>
      </trkpt>
      <trkpt lat="43.346880" lon="-3.305339">
        <ele>250.488</ele>
        <time>2016-04-18T12:21:07Z</time>
      </trkpt>
      <trkpt lat="43.346672" lon="-3.304846">
        <ele>254.014</ele>
        <time>2016-04-18T12:21:21Z</time>
      </trkpt>
      <trkpt lat="43.346671" lon="-3.303911">
        <ele>257.097</ele>
        <time>2016-04-18T12:21:44Z</time>
      </trkpt>
      <trkpt lat="43.345588" lon="-3.301796">
        <ele>258.270</ele>
        <time>2016-04-18T12:22:31Z</time>
      </trkpt>
      <trkpt lat="43.345185" lon="-3.301381">
        <ele>256.826</ele>
        <time>2016-04-18T12:22:41Z</time>
      </trkpt>
      <trkpt lat="43.344456" lon="-3.299821">
        <ele>262.842</ele>
        <time>2016-04-18T12:23:11Z</time>
      </trkpt>
      <trkpt lat="43.344406" lon="-3.299339">
        <ele>263.822</ele>
        <time>2016-04-18T12:23:20Z</time>
      </trkpt>
      <trkpt lat="43.344640" lon="-3.298681">
        <ele>266.814</ele>
        <time>2016-04-18T12:23:33Z</time>
      </trkpt>
      <trkpt lat="43.344609" lon="-3.298125">
        <ele>267.408</ele>
        <time>2016-04-18T12:23:43Z</time>
      </trkpt>
      <trkpt lat="43.344081" lon="-3.297677">
        <ele>269.865</ele>
        <time>2016-04-18T12:23:59Z</time>
      </trkpt>
      <trkpt lat="43.343442" lon="-3.295744">
        <ele>271.667</ele>
        <time>2016-04-18T12:24:35Z</time>
      </trkpt>
      <trkpt lat="43.343103" lon="-3.295368">
        <ele>267.044</ele>
        <time>2016-04-18T12:24:41Z</time>
      </trkpt>
      <trkpt lat="43.342899" lon="-3.294405">
        <ele>263.844</ele>
        <time>2016-04-18T12:24:51Z</time>
      </trkpt>
      <trkpt lat="43.342371" lon="-3.293334">
        <ele>264.260</ele>
        <time>2016-04-18T12:25:09Z</time>
      </trkpt>
      <trkpt lat="43.341437" lon="-3.289342">
        <ele>262.823</ele>
        <time>2016-04-18T12:26:03Z</time>
      </trkpt>
      <trkpt lat="43.341524" lon="-3.287376">
        <ele>262.066</ele>
        <time>2016-04-18T12:26:29Z</time>
      </trkpt>
      <trkpt lat="43.341942" lon="-3.285814">
        <ele>254.282</ele>
        <time>2016-04-18T12:26:44Z</time>
      </trkpt>
      <trkpt lat="43.342266" lon="-3.285538">
        <ele>251.462</ele>
        <time>2016-04-18T12:26:49Z</time>
      </trkpt>
      <trkpt lat="43.342935" lon="-3.285722">
        <ele>252.283</ele>
        <time>2016-04-18T12:27:00Z</time>
      </trkpt>
      <trkpt lat="43.344064" lon="-3.287244">
        <ele>247.011</ele>
        <time>2016-04-18T12:27:25Z</time>
      </trkpt>
      <trkpt lat="43.346037" lon="-3.287766">
        <ele>241.808</ele>
        <time>2016-04-18T12:27:57Z</time>
      </trkpt>
      <trkpt lat="43.346663" lon="-3.287335">
        <ele>252.217</ele>
        <time>2016-04-18T12:28:19Z</time>
      </trkpt>
      <trkpt lat="43.347066" lon="-3.286429">
        <ele>262.419</ele>
        <time>2016-04-18T12:28:45Z</time>
      </trkpt>
      <trkpt lat="43.347537" lon="-3.286196">
        <ele>269.816</ele>
        <time>2016-04-18T12:29:03Z</time>
      </trkpt>
      <trkpt lat="43.347084" lon="-3.286112">
        <ele>271.846</ele>
        <time>2016-04-18T12:29:18Z</time>
      </trkpt>
      <trkpt lat="43.346455" lon="-3.286545">
        <ele>276.412</ele>
        <time>2016-04-18T12:29:39Z</time>
      </trkpt>
      <trkpt lat="43.346206" lon="-3.286221">
        <ele>279.245</ele>
        <time>2016-04-18T12:29:50Z</time>
      </trkpt>
      <trkpt lat="43.346245" lon="-3.285899">
        <ele>281.898</ele>
        <time>2016-04-18T12:29:58Z</time>
      </trkpt>
      <trkpt lat="43.347171" lon="-3.285140">
        <ele>289.814</ele>
        <time>2016-04-18T12:30:34Z</time>
      </trkpt>
      <trkpt lat="43.347560" lon="-3.284299">
        <ele>295.872</ele>
        <time>2016-04-18T12:30:58Z</time>
      </trkpt>
      <trkpt lat="43.348605" lon="-3.283474">
        <ele>304.813</ele>
        <time>2016-04-18T12:31:39Z</time>
      </trkpt>
      <trkpt lat="43.346749" lon="-3.283760">
        <ele>324.814</ele>
        <time>2016-04-18T12:32:53Z</time>
      </trkpt>
      <trkpt lat="43.345404" lon="-3.282954">
        <ele>350.008</ele>
        <time>2016-04-18T12:33:56Z</time>
      </trkpt>
      <trkpt lat="43.344893" lon="-3.282372">
        <ele>361.038</ele>
        <time>2016-04-18T12:34:23Z</time>
      </trkpt>
      <trkpt lat="43.342662" lon="-3.281476">
        <ele>381.680</ele>
        <time>2016-04-18T12:35:47Z</time>
      </trkpt>
      <trkpt lat="43.341879" lon="-3.280836">
        <ele>389.427</ele>
        <time>2016-04-18T12:36:19Z</time>
      </trkpt>
      <trkpt lat="43.340824" lon="-3.279367">
        <ele>410.247</ele>
        <time>2016-04-18T12:37:19Z</time>
      </trkpt>
      <trkpt lat="43.340541" lon="-3.279229">
        <ele>415.213</ele>
        <time>2016-04-18T12:37:32Z</time>
      </trkpt>
      <trkpt lat="43.340877" lon="-3.278087">
        <ele>435.246</ele>
        <time>2016-04-18T12:38:15Z</time>
      </trkpt>
      <trkpt lat="43.340598" lon="-3.277477">
        <ele>443.839</ele>
        <time>2016-04-18T12:38:41Z</time>
      </trkpt>
      <trkpt lat="43.341926" lon="-3.276258">
        <ele>451.645</ele>
        <time>2016-04-18T12:39:46Z</time>
      </trkpt>
      <trkpt lat="43.342174" lon="-3.276348">
        <ele>451.057</ele>
        <time>2016-04-18T12:41:33Z</time>
      </trkpt>
      <trkpt lat="43.342404" lon="-3.276927">
        <ele>449.200</ele>
        <time>2016-04-18T12:44:49Z</time>
      </trkpt>
      <trkpt lat="43.342896" lon="-3.277353">
        <ele>443.220</ele>
        <time>2016-04-18T12:45:01Z</time>
      </trkpt>
      <trkpt lat="43.343573" lon="-3.278509">
        <ele>434.208</ele>
        <time>2016-04-18T12:45:24Z</time>
      </trkpt>
      <trkpt lat="43.343772" lon="-3.276932">
        <ele>411.446</ele>
        <time>2016-04-18T12:45:57Z</time>
      </trkpt>
      <trkpt lat="43.344227" lon="-3.277997">
        <ele>397.618</ele>
        <time>2016-04-18T12:46:24Z</time>
      </trkpt>
      <trkpt lat="43.345197" lon="-3.278810">
        <ele>386.295</ele>
        <time>2016-04-18T12:46:51Z</time>
      </trkpt>
      <trkpt lat="43.346137" lon="-3.278891">
        <ele>379.285</ele>
        <time>2016-04-18T12:47:09Z</time>
      </trkpt>
      <trkpt lat="43.347125" lon="-3.278233">
        <ele>363.491</ele>
        <time>2016-04-18T12:47:28Z</time>
      </trkpt>
      <trkpt lat="43.349794" lon="-3.278890">
        <ele>317.454</ele>
        <time>2016-04-18T12:48:29Z</time>
      </trkpt>
      <trkpt lat="43.351666" lon="-3.276377">
        <ele>291.287</ele>
        <time>2016-04-18T12:49:19Z</time>
      </trkpt>
      <trkpt lat="43.352468" lon="-3.276975">
        <ele>286.813</ele>
        <time>2016-04-18T12:49:36Z</time>
      </trkpt>
      <trkpt lat="43.353061" lon="-3.276780">
        <ele>284.438</ele>
        <time>2016-04-18T12:49:45Z</time>
      </trkpt>
      <trkpt lat="43.353650" lon="-3.275771">
        <ele>276.470</ele>
        <time>2016-04-18T12:49:57Z</time>
      </trkpt>
      <trkpt lat="43.353880" lon="-3.274643">
        <ele>268.417</ele>
        <time>2016-04-18T12:50:08Z</time>
      </trkpt>
      <trkpt lat="43.353605" lon="-3.273760">
        <ele>263.208</ele>
        <time>2016-04-18T12:50:18Z</time>
      </trkpt>
      <trkpt lat="43.353888" lon="-3.273271">
        <ele>259.654</ele>
        <time>2016-04-18T12:50:25Z</time>
      </trkpt>
      <trkpt lat="43.353944" lon="-3.272451">
        <ele>254.086</ele>
        <time>2016-04-18T12:50:33Z</time>
      </trkpt>
      <trkpt lat="43.353765" lon="-3.271697">
        <ele>249.493</ele>
        <time>2016-04-18T12:50:41Z</time>
      </trkpt>
      <trkpt lat="43.353341" lon="-3.271190">
        <ele>244.043</ele>
        <time>2016-04-18T12:50:49Z</time>
      </trkpt>
      <trkpt lat="43.353330" lon="-3.270409">
        <ele>239.619</ele>
        <time>2016-04-18T12:50:58Z</time>
      </trkpt>
      <trkpt lat="43.354026" lon="-3.269398">
        <ele>232.852</ele>
        <time>2016-04-18T12:51:15Z</time>
      </trkpt>
      <trkpt lat="43.353966" lon="-3.269167">
        <ele>229.825</ele>
        <time>2016-04-18T12:51:20Z</time>
      </trkpt>
      <trkpt lat="43.353586" lon="-3.269189">
        <ele>225.461</ele>
        <time>2016-04-18T12:51:28Z</time>
      </trkpt>
      <trkpt lat="43.353304" lon="-3.269586">
        <ele>218.073</ele>
        <time>2016-04-18T12:51:37Z</time>
      </trkpt>
      <trkpt lat="43.352749" lon="-3.269700">
        <ele>211.285</ele>
        <time>2016-04-18T12:51:47Z</time>
      </trkpt>
      <trkpt lat="43.352227" lon="-3.271522">
        <ele>197.013</ele>
        <time>2016-04-18T12:52:09Z</time>
      </trkpt>
      <trkpt lat="43.351713" lon="-3.272287">
        <ele>193.808</ele>
        <time>2016-04-18T12:52:26Z</time>
      </trkpt>
      <trkpt lat="43.351274" lon="-3.272264">
        <ele>188.648</ele>
        <time>2016-04-18T12:52:36Z</time>
      </trkpt>
      <trkpt lat="43.351784" lon="-3.270599">
        <ele>174.270</ele>
        <time>2016-04-18T12:53:01Z</time>
      </trkpt>
      <trkpt lat="43.351881" lon="-3.267054">
        <ele>140.447</ele>
        <time>2016-04-18T12:53:40Z</time>
      </trkpt>
      <trkpt lat="43.352194" lon="-3.266199">
        <ele>129.427</ele>
        <time>2016-04-18T12:53:58Z</time>
      </trkpt>
      <trkpt lat="43.351776" lon="-3.265491">
        <ele>123.033</ele>
        <time>2016-04-18T12:54:17Z</time>
      </trkpt>
      <trkpt lat="43.351760" lon="-3.264880">
        <ele>120.046</ele>
        <time>2016-04-18T12:54:28Z</time>
      </trkpt>
      <trkpt lat="43.352275" lon="-3.262233">
        <ele>111.839</ele>
        <time>2016-04-18T12:55:03Z</time>
      </trkpt>
      <trkpt lat="43.351927" lon="-3.259636">
        <ele>101.245</ele>
        <time>2016-04-18T12:55:32Z</time>
      </trkpt>
      <trkpt lat="43.351589" lon="-3.259022">
        <ele>93.899</ele>
        <time>2016-04-18T12:55:39Z</time>
      </trkpt>
      <trkpt lat="43.351261" lon="-3.257609">
        <ele>80.807</ele>
        <time>2016-04-18T12:55:52Z</time>
      </trkpt>
      <trkpt lat="43.351048" lon="-3.254850">
        <ele>71.627</ele>
        <time>2016-04-18T12:56:33Z</time>
      </trkpt>
      <trkpt lat="43.351346" lon="-3.252932">
        <ele>64.808</ele>
        <time>2016-04-18T12:56:54Z</time>
      </trkpt>
      <trkpt lat="43.352151" lon="-3.249977">
        <ele>55.690</ele>
        <time>2016-04-18T12:57:25Z</time>
      </trkpt>
      <trkpt lat="43.352362" lon="-3.247862">
        <ele>51.012</ele>
        <time>2016-04-18T12:57:47Z</time>
      </trkpt>
      <trkpt lat="43.353255" lon="-3.246087">
        <ele>46.629</ele>
        <time>2016-04-18T12:58:10Z</time>
      </trkpt>
      <trkpt lat="43.353309" lon="-3.244778">
        <ele>43.219</ele>
        <time>2016-04-18T12:58:25Z</time>
      </trkpt>
      <trkpt lat="43.353762" lon="-3.243225">
        <ele>36.025</ele>
        <time>2016-04-18T12:58:45Z</time>
      </trkpt>
      <trkpt lat="43.354264" lon="-3.242193">
        <ele>32.468</ele>
        <time>2016-04-18T12:58:57Z</time>
      </trkpt>
      <trkpt lat="43.354894" lon="-3.241589">
        <ele>32.411</ele>
        <time>2016-04-18T12:59:08Z</time>
      </trkpt>
      <trkpt lat="43.355345" lon="-3.240767">
        <ele>33.897</ele>
        <time>2016-04-18T12:59:20Z</time>
      </trkpt>
      <trkpt lat="43.355875" lon="-3.237486">
        <ele>26.832</ele>
        <time>2016-04-18T12:59:54Z</time>
      </trkpt>
      <trkpt lat="43.356001" lon="-3.234050">
        <ele>22.492</ele>
        <time>2016-04-18T13:00:26Z</time>
      </trkpt>
      <trkpt lat="43.356590" lon="-3.232316">
        <ele>23.411</ele>
        <time>2016-04-18T13:00:48Z</time>
      </trkpt>
      <trkpt lat="43.359565" lon="-3.230192">
        <ele>13.808</ele>
        <time>2016-04-18T13:01:34Z</time>
      </trkpt>
      <trkpt lat="43.360270" lon="-3.229418">
        <ele>12.614</ele>
        <time>2016-04-18T13:01:48Z</time>
      </trkpt>
      <trkpt lat="43.360909" lon="-3.228129">
        <ele>14.436</ele>
        <time>2016-04-18T13:02:07Z</time>
      </trkpt>
      <trkpt lat="43.362338" lon="-3.227562">
        <ele>13.453</ele>
        <time>2016-04-18T13:02:31Z</time>
      </trkpt>
      <trkpt lat="43.363813" lon="-3.227333">
        <ele>13.063</ele>
        <time>2016-04-18T13:02:57Z</time>
      </trkpt>
      <trkpt lat="43.365073" lon="-3.225498">
        <ele>14.449</ele>
        <time>2016-04-18T13:03:30Z</time>
      </trkpt>
      <trkpt lat="43.365286" lon="-3.224738">
        <ele>12.092</ele>
        <time>2016-04-18T13:03:39Z</time>
      </trkpt>
      <trkpt lat="43.365303" lon="-3.223091">
        <ele>7.035</ele>
        <time>2016-04-18T13:03:55Z</time>
      </trkpt>
      <trkpt lat="43.366087" lon="-3.219044">
        <ele>0.631</ele>
        <time>2016-04-18T13:04:38Z</time>
      </trkpt>
      <trkpt lat="43.367333" lon="-3.216677">
        <ele>2.823</ele>
        <time>2016-04-18T13:05:15Z</time>
      </trkpt>
      <trkpt lat="43.368651" lon="-3.215736">
        <ele>-0.883</ele>
        <time>2016-04-18T13:05:39Z</time>
      </trkpt>
      <trkpt lat="43.369102" lon="-3.214895">
        <ele>-2.411</ele>
        <time>2016-04-18T13:05:53Z</time>
      </trkpt>
      <trkpt lat="43.369186" lon="-3.213988">
        <ele>-4.008</ele>
        <time>2016-04-18T13:06:03Z</time>
      </trkpt>
      <trkpt lat="43.368990" lon="-3.212528">
        <ele>-3.613</ele>
        <time>2016-04-18T13:06:19Z</time>
      </trkpt>
      <trkpt lat="43.369159" lon="-3.211730">
        <ele>-2.465</ele>
        <time>2016-04-18T13:06:29Z</time>
      </trkpt>
      <trkpt lat="43.369915" lon="-3.211103">
        <ele>-3.412</ele>
        <time>2016-04-18T13:06:44Z</time>
      </trkpt>
      <trkpt lat="43.370522" lon="-3.211111">
        <ele>-3.842</ele>
        <time>2016-04-18T13:06:54Z</time>
      </trkpt>
      <trkpt lat="43.372610" lon="-3.209585">
        <ele>-1.698</ele>
        <time>2016-04-18T13:07:35Z</time>
      </trkpt>
      <trkpt lat="43.373368" lon="-3.208777">
        <ele>0.281</ele>
        <time>2016-04-18T13:07:53Z</time>
      </trkpt>
      <trkpt lat="43.373666" lon="-3.211640">
        <ele>-3.424</ele>
        <time>2016-04-18T13:08:29Z</time>
      </trkpt>
      <trkpt lat="43.374442" lon="-3.213444">
        <ele>-3.870</ele>
        <time>2016-04-18T13:08:53Z</time>
      </trkpt>
      <trkpt lat="43.375619" lon="-3.213164">
        <ele>-3.413</ele>
        <time>2016-04-18T13:09:13Z</time>
      </trkpt>
      <trkpt lat="43.376567" lon="-3.213506">
        <ele>-2.443</ele>
        <time>2016-04-18T13:09:29Z</time>
      </trkpt>
      <trkpt lat="43.380073" lon="-3.216607">
        <ele>-2.807</ele>
        <time>2016-04-18T13:10:35Z</time>
      </trkpt>
      <trkpt lat="43.380500" lon="-3.216494">
        <ele>-3.208</ele>
        <time>2016-04-18T13:10:44Z</time>
      </trkpt>
      <trkpt lat="43.382661" lon="-3.217327">
        <ele>-3.092</ele>
        <time>2016-04-18T13:11:20Z</time>
      </trkpt>
      <trkpt lat="43.382057" lon="-3.220526">
        <ele>1.224</ele>
        <time>2016-04-18T13:12:06Z</time>
      </trkpt>
      <trkpt lat="43.382854" lon="-3.220952">
        <ele>-0.681</ele>
        <time>2016-04-18T13:12:30Z</time>
      </trkpt>
      <trkpt lat="43.383915" lon="-3.220960">
        <ele>-3.271</ele>
        <time>2016-04-18T13:12:53Z</time>
      </trkpt>
      <trkpt lat="43.384015" lon="-3.221156">
        <ele>-1.273</ele>
        <time>2016-04-11T10:28:01Z</time>
      </trkpt>
      <trkpt lat="43.383718" lon="-3.221040">
        <ele>-1.685</ele>
        <time>2016-04-11T10:28:37Z</time>
      </trkpt>
      <trkpt lat="43.383130" lon="-3.218480">
        <ele>-3.413</ele>
        <time>2016-04-11T10:29:54Z</time>
      </trkpt>
      <trkpt lat="43.382619" lon="-3.217991">
        <ele>-3.008</ele>
        <time>2016-04-11T10:30:14Z</time>
      </trkpt>
      <trkpt lat="43.382577" lon="-3.217290">
        <ele>-3.678</ele>
        <time>2016-04-11T10:30:26Z</time>
      </trkpt>
      <trkpt lat="43.380492" lon="-3.216508">
        <ele>-2.680</ele>
        <time>2016-04-11T10:32:05Z</time>
      </trkpt>
      <trkpt lat="43.380004" lon="-3.216583">
        <ele>-2.040</ele>
        <time>2016-04-11T10:32:18Z</time>
      </trkpt>
      <trkpt lat="43.376626" lon="-3.213610">
        <ele>-2.459</ele>
        <time>2016-04-11T10:33:23Z</time>
      </trkpt>
      <trkpt lat="43.375865" lon="-3.213178">
        <ele>-3.077</ele>
        <time>2016-04-11T10:33:37Z</time>
      </trkpt>
      <trkpt lat="43.374538" lon="-3.213450">
        <ele>-3.037</ele>
        <time>2016-04-11T10:33:59Z</time>
      </trkpt>
      <trkpt lat="43.373914" lon="-3.212572">
        <ele>-2.870</ele>
        <time>2016-04-11T10:34:15Z</time>
      </trkpt>
      <trkpt lat="43.373635" lon="-3.211684">
        <ele>-2.684</ele>
        <time>2016-04-11T10:34:27Z</time>
      </trkpt>
      <trkpt lat="43.373516" lon="-3.209639">
        <ele>-2.858</ele>
        <time>2016-04-11T10:34:53Z</time>
      </trkpt>
      <trkpt lat="43.373109" lon="-3.209229">
        <ele>-1.052</ele>
        <time>2016-04-11T10:35:11Z</time>
      </trkpt>
      <trkpt lat="43.373304" lon="-3.209227">
        <ele>-1.617</ele>
        <time>2016-04-11T10:35:21Z</time>
      </trkpt>
      <trkpt lat="43.373440" lon="-3.209622">
        <ele>-1.408</ele>
        <time>2016-04-11T10:35:31Z</time>
      </trkpt>
      <trkpt lat="43.370913" lon="-3.211540">
        <ele>-5.296</ele>
        <time>2016-04-11T10:36:22Z</time>
      </trkpt>
      <trkpt lat="43.370315" lon="-3.211634">
        <ele>-4.488</ele>
        <time>2016-04-11T10:36:35Z</time>
      </trkpt>
      <trkpt lat="43.370270" lon="-3.211204">
        <ele>-4.858</ele>
        <time>2016-04-11T10:36:50Z</time>
      </trkpt>
      <trkpt lat="43.369955" lon="-3.211193">
        <ele>-4.457</ele>
        <time>2016-04-11T10:36:57Z</time>
      </trkpt>
      <trkpt lat="43.369136" lon="-3.211912">
        <ele>-4.045</ele>
        <time>2016-04-11T10:37:17Z</time>
      </trkpt>
      <trkpt lat="43.368900" lon="-3.212465">
        <ele>-4.415</ele>
        <time>2016-04-11T10:37:26Z</time>
      </trkpt>
      <trkpt lat="43.367416" lon="-3.212481">
        <ele>6.438</ele>
        <time>2016-04-11T10:37:57Z</time>
      </trkpt>
      <trkpt lat="43.367015" lon="-3.212879">
        <ele>15.472</ele>
        <time>2016-04-11T10:38:12Z</time>
      </trkpt>
      <trkpt lat="43.365129" lon="-3.211789">
        <ele>22.086</ele>
        <time>2016-04-11T10:39:05Z</time>
      </trkpt>
      <trkpt lat="43.362299" lon="-3.206977">
        <ele>28.660</ele>
        <time>2016-04-11T10:40:33Z</time>
      </trkpt>
      <trkpt lat="43.361085" lon="-3.206071">
        <ele>27.426</ele>
        <time>2016-04-11T10:41:00Z</time>
      </trkpt>
      <trkpt lat="43.359644" lon="-3.206435">
        <ele>27.408</ele>
        <time>2016-04-11T10:41:25Z</time>
      </trkpt>
      <trkpt lat="43.358731" lon="-3.205753">
        <ele>27.469</ele>
        <time>2016-04-11T10:41:43Z</time>
      </trkpt>
      <trkpt lat="43.357828" lon="-3.205545">
        <ele>30.041</ele>
        <time>2016-04-11T10:42:00Z</time>
      </trkpt>
      <trkpt lat="43.353256" lon="-3.206786">
        <ele>31.691</ele>
        <time>2016-04-11T10:43:22Z</time>
      </trkpt>
      <trkpt lat="43.351838" lon="-3.206356">
        <ele>30.290</ele>
        <time>2016-04-11T10:43:58Z</time>
      </trkpt>
      <trkpt lat="43.351506" lon="-3.206562">
        <ele>32.838</ele>
        <time>2016-04-11T10:44:17Z</time>
      </trkpt>
      <trkpt lat="43.351824" lon="-3.206322">
        <ele>31.228</ele>
        <time>2016-04-11T10:44:34Z</time>
      </trkpt>
      <trkpt lat="43.348969" lon="-3.207396">
        <ele>39.691</ele>
        <time>2016-04-11T10:45:35Z</time>
      </trkpt>
      <trkpt lat="43.347850" lon="-3.209379">
        <ele>53.455</ele>
        <time>2016-04-11T10:46:14Z</time>
      </trkpt>
      <trkpt lat="43.347326" lon="-3.209773">
        <ele>58.862</ele>
        <time>2016-04-11T10:46:27Z</time>
      </trkpt>
      <trkpt lat="43.346629" lon="-3.209799">
        <ele>64.483</ele>
        <time>2016-04-11T10:46:41Z</time>
      </trkpt>
      <trkpt lat="43.346330" lon="-3.210057">
        <ele>68.411</ele>
        <time>2016-04-11T10:46:51Z</time>
      </trkpt>
      <trkpt lat="43.345228" lon="-3.209659">
        <ele>67.008</ele>
        <time>2016-04-11T10:47:11Z</time>
      </trkpt>
      <trkpt lat="43.344695" lon="-3.209945">
        <ele>66.887</ele>
        <time>2016-04-11T10:47:21Z</time>
      </trkpt>
      <trkpt lat="43.344451" lon="-3.209356">
        <ele>67.229</ele>
        <time>2016-04-11T10:47:29Z</time>
      </trkpt>
      <trkpt lat="43.343038" lon="-3.208477">
        <ele>68.039</ele>
        <time>2016-04-11T10:47:53Z</time>
      </trkpt>
      <trkpt lat="43.342067" lon="-3.209764">
        <ele>74.498</ele>
        <time>2016-04-11T10:48:20Z</time>
      </trkpt>
      <trkpt lat="43.341000" lon="-3.208251">
        <ele>79.866</ele>
        <time>2016-04-11T10:49:02Z</time>
      </trkpt>
      <trkpt lat="43.339874" lon="-3.207728">
        <ele>82.626</ele>
        <time>2016-04-11T10:49:37Z</time>
      </trkpt>
      <trkpt lat="43.338609" lon="-3.206316">
        <ele>86.499</ele>
        <time>2016-04-11T10:50:14Z</time>
      </trkpt>
      <trkpt lat="43.336259" lon="-3.204274">
        <ele>92.693</ele>
        <time>2016-04-11T10:51:18Z</time>
      </trkpt>
      <trkpt lat="43.334442" lon="-3.201571">
        <ele>98.451</ele>
        <time>2016-04-11T10:52:23Z</time>
      </trkpt>
      <trkpt lat="43.332349" lon="-3.200929">
        <ele>104.001</ele>
        <time>2016-04-11T10:53:09Z</time>
      </trkpt>
      <trkpt lat="43.331281" lon="-3.201590">
        <ele>105.811</ele>
        <time>2016-04-11T10:53:42Z</time>
      </trkpt>
      <trkpt lat="43.330991" lon="-3.201104">
        <ele>107.208</ele>
        <time>2016-04-11T10:53:52Z</time>
      </trkpt>
      <trkpt lat="43.330891" lon="-3.199829">
        <ele>109.416</ele>
        <time>2016-04-11T10:54:16Z</time>
      </trkpt>
      <trkpt lat="43.330603" lon="-3.199394">
        <ele>109.418</ele>
        <time>2016-04-11T10:54:25Z</time>
      </trkpt>
      <trkpt lat="43.326760" lon="-3.197722">
        <ele>122.688</ele>
        <time>2016-04-11T10:55:56Z</time>
      </trkpt>
      <trkpt lat="43.326214" lon="-3.195603">
        <ele>127.017</ele>
        <time>2016-04-11T10:56:33Z</time>
      </trkpt>
      <trkpt lat="43.325915" lon="-3.195153">
        <ele>127.825</ele>
        <time>2016-04-11T10:56:42Z</time>
      </trkpt>
      <trkpt lat="43.324880" lon="-3.194755">
        <ele>131.835</ele>
        <time>2016-04-11T10:57:03Z</time>
      </trkpt>
      <trkpt lat="43.324099" lon="-3.195364">
        <ele>132.638</ele>
        <time>2016-04-11T10:57:23Z</time>
      </trkpt>
      <trkpt lat="43.322134" lon="-3.193735">
        <ele>139.882</ele>
        <time>2016-04-11T10:58:12Z</time>
      </trkpt>
      <trkpt lat="43.321807" lon="-3.193792">
        <ele>141.023</ele>
        <time>2016-04-11T10:58:20Z</time>
      </trkpt>
      <trkpt lat="43.321402" lon="-3.194399">
        <ele>139.083</ele>
        <time>2016-04-11T10:58:34Z</time>
      </trkpt>
      <trkpt lat="43.321381" lon="-3.196318">
        <ele>144.411</ele>
        <time>2016-04-11T10:59:04Z</time>
      </trkpt>
      <trkpt lat="43.321084" lon="-3.196749">
        <ele>145.608</ele>
        <time>2016-04-11T10:59:12Z</time>
      </trkpt>
      <trkpt lat="43.320288" lon="-3.196864">
        <ele>147.243</ele>
        <time>2016-04-11T10:59:31Z</time>
      </trkpt>
      <trkpt lat="43.319104" lon="-3.196412">
        <ele>152.625</ele>
        <time>2016-04-11T10:59:57Z</time>
      </trkpt>
      <trkpt lat="43.318220" lon="-3.195530">
        <ele>154.255</ele>
        <time>2016-04-11T11:00:20Z</time>
      </trkpt>
      <trkpt lat="43.317688" lon="-3.195577">
        <ele>156.244</ele>
        <time>2016-04-11T11:00:31Z</time>
      </trkpt>
      <trkpt lat="43.317195" lon="-3.197181">
        <ele>157.652</ele>
        <time>2016-04-11T11:00:59Z</time>
      </trkpt>
      <trkpt lat="43.316075" lon="-3.197833">
        <ele>161.242</ele>
        <time>2016-04-11T11:01:25Z</time>
      </trkpt>
      <trkpt lat="43.315993" lon="-3.199844">
        <ele>166.255</ele>
        <time>2016-04-11T11:01:57Z</time>
      </trkpt>
      <trkpt lat="43.315381" lon="-3.199941">
        <ele>169.479</ele>
        <time>2016-04-11T11:02:08Z</time>
      </trkpt>
      <trkpt lat="43.314529" lon="-3.199015">
        <ele>172.099</ele>
        <time>2016-04-11T11:02:35Z</time>
      </trkpt>
      <trkpt lat="43.313350" lon="-3.199052">
        <ele>175.407</ele>
        <time>2016-04-11T11:03:15Z</time>
      </trkpt>
      <trkpt lat="43.312568" lon="-3.198586">
        <ele>176.827</ele>
        <time>2016-04-11T11:03:37Z</time>
      </trkpt>
      <trkpt lat="43.311990" lon="-3.198573">
        <ele>177.808</ele>
        <time>2016-04-11T11:03:49Z</time>
      </trkpt>
      <trkpt lat="43.311485" lon="-3.198877">
        <ele>177.240</ele>
        <time>2016-04-11T11:04:01Z</time>
      </trkpt>
      <trkpt lat="43.310957" lon="-3.200439">
        <ele>179.832</ele>
        <time>2016-04-11T11:04:29Z</time>
      </trkpt>
      <trkpt lat="43.309512" lon="-3.200452">
        <ele>183.622</ele>
        <time>2016-04-11T11:05:05Z</time>
      </trkpt>
      <trkpt lat="43.308997" lon="-3.201356">
        <ele>187.081</ele>
        <time>2016-04-11T11:05:27Z</time>
      </trkpt>
      <trkpt lat="43.306983" lon="-3.200895">
        <ele>192.649</ele>
        <time>2016-04-11T11:06:11Z</time>
      </trkpt>
      <trkpt lat="43.305649" lon="-3.201367">
        <ele>196.449</ele>
        <time>2016-04-11T11:06:40Z</time>
      </trkpt>
      <trkpt lat="43.303864" lon="-3.202447">
        <ele>197.452</ele>
        <time>2016-04-11T11:07:19Z</time>
      </trkpt>
      <trkpt lat="43.301837" lon="-3.202852">
        <ele>203.486</ele>
        <time>2016-04-11T11:09:42Z</time>
      </trkpt>
      <trkpt lat="43.301512" lon="-3.203257">
        <ele>206.032</ele>
        <time>2016-04-11T11:09:53Z</time>
      </trkpt>
      <trkpt lat="43.301008" lon="-3.203302">
        <ele>211.892</ele>
        <time>2016-04-11T11:10:09Z</time>
      </trkpt>
      <trkpt lat="43.300625" lon="-3.204055">
        <ele>219.211</ele>
        <time>2016-04-11T11:10:27Z</time>
      </trkpt>
      <trkpt lat="43.300952" lon="-3.203659">
        <ele>222.608</ele>
        <time>2016-04-11T11:10:40Z</time>
      </trkpt>
      <trkpt lat="43.301156" lon="-3.204594">
        <ele>228.814</ele>
        <time>2016-04-11T11:11:00Z</time>
      </trkpt>
      <trkpt lat="43.301819" lon="-3.204621">
        <ele>234.466</ele>
        <time>2016-04-11T11:11:18Z</time>
      </trkpt>
      <trkpt lat="43.301964" lon="-3.204910">
        <ele>238.056</ele>
        <time>2016-04-11T11:11:26Z</time>
      </trkpt>
      <trkpt lat="43.300955" lon="-3.205655">
        <ele>255.265</ele>
        <time>2016-04-11T11:12:03Z</time>
      </trkpt>
      <trkpt lat="43.299958" lon="-3.206856">
        <ele>271.663</ele>
        <time>2016-04-11T11:12:42Z</time>
      </trkpt>
      <trkpt lat="43.299146" lon="-3.206995">
        <ele>281.283</ele>
        <time>2016-04-11T11:13:03Z</time>
      </trkpt>
      <trkpt lat="43.299042" lon="-3.208488">
        <ele>293.846</ele>
        <time>2016-04-11T11:13:36Z</time>
      </trkpt>
      <trkpt lat="43.298187" lon="-3.208932">
        <ele>307.470</ele>
        <time>2016-04-11T11:14:04Z</time>
      </trkpt>
      <trkpt lat="43.297790" lon="-3.210357">
        <ele>317.226</ele>
        <time>2016-04-11T11:14:37Z</time>
      </trkpt>
      <trkpt lat="43.297344" lon="-3.210526">
        <ele>323.447</ele>
        <time>2016-04-11T11:14:52Z</time>
      </trkpt>
      <trkpt lat="43.296517" lon="-3.212171">
        <ele>336.811</ele>
        <time>2016-04-11T11:15:35Z</time>
      </trkpt>
      <trkpt lat="43.295755" lon="-3.211459">
        <ele>348.208</ele>
        <time>2016-04-11T11:16:03Z</time>
      </trkpt>
      <trkpt lat="43.296336" lon="-3.212906">
        <ele>364.893</ele>
        <time>2016-04-11T11:16:45Z</time>
      </trkpt>
      <trkpt lat="43.296188" lon="-3.213074">
        <ele>366.865</ele>
        <time>2016-04-11T11:16:52Z</time>
      </trkpt>
      <trkpt lat="43.294866" lon="-3.211560">
        <ele>387.035</ele>
        <time>2016-04-11T11:17:50Z</time>
      </trkpt>
      <trkpt lat="43.293927" lon="-3.212123">
        <ele>399.054</ele>
        <time>2016-04-11T11:18:27Z</time>
      </trkpt>
      <trkpt lat="43.293690" lon="-3.212510">
        <ele>403.852</ele>
        <time>2016-04-11T11:18:40Z</time>
      </trkpt>
      <trkpt lat="43.292320" lon="-3.212654">
        <ele>416.252</ele>
        <time>2016-04-11T11:19:18Z</time>
      </trkpt>
      <trkpt lat="43.291949" lon="-3.213418">
        <ele>426.415</ele>
        <time>2016-04-11T11:19:42Z</time>
      </trkpt>
      <trkpt lat="43.291445" lon="-3.213806">
        <ele>433.229</ele>
        <time>2016-04-11T11:20:00Z</time>
      </trkpt>
      <trkpt lat="43.290908" lon="-3.212843">
        <ele>442.685</ele>
        <time>2016-04-11T11:20:31Z</time>
      </trkpt>
      <trkpt lat="43.289986" lon="-3.212726">
        <ele>454.889</ele>
        <time>2016-04-11T11:21:02Z</time>
      </trkpt>
      <trkpt lat="43.289381" lon="-3.213018">
        <ele>461.817</ele>
        <time>2016-04-11T11:21:24Z</time>
      </trkpt>
      <trkpt lat="43.288857" lon="-3.212061">
        <ele>473.408</ele>
        <time>2016-04-11T11:21:53Z</time>
      </trkpt>
      <trkpt lat="43.288506" lon="-3.211978">
        <ele>478.269</ele>
        <time>2016-04-11T11:22:06Z</time>
      </trkpt>
      <trkpt lat="43.288055" lon="-3.211417">
        <ele>484.031</ele>
        <time>2016-04-11T11:22:25Z</time>
      </trkpt>
      <trkpt lat="43.287970" lon="-3.210828">
        <ele>486.241</ele>
        <time>2016-04-11T11:22:40Z</time>
      </trkpt>
      <trkpt lat="43.289810" lon="-3.209999">
        <ele>481.070</ele>
        <time>2016-04-11T11:23:11Z</time>
      </trkpt>
      <trkpt lat="43.290927" lon="-3.208929">
        <ele>484.038</ele>
        <time>2016-04-11T11:23:36Z</time>
      </trkpt>
      <trkpt lat="43.291702" lon="-3.207545">
        <ele>486.248</ele>
        <time>2016-04-11T11:24:01Z</time>
      </trkpt>
      <trkpt lat="43.292365" lon="-3.207715">
        <ele>494.031</ele>
        <time>2016-04-11T11:24:20Z</time>
      </trkpt>
      <trkpt lat="43.292822" lon="-3.207093">
        <ele>495.835</ele>
        <time>2016-04-11T11:24:37Z</time>
      </trkpt>
      <trkpt lat="43.292982" lon="-3.204675">
        <ele>498.834</ele>
        <time>2016-04-11T11:25:16Z</time>
      </trkpt>
      <trkpt lat="43.292375" lon="-3.201654">
        <ele>494.255</ele>
        <time>2016-04-11T11:25:56Z</time>
      </trkpt>
      <trkpt lat="43.291917" lon="-3.200676">
        <ele>493.410</ele>
        <time>2016-04-11T11:26:13Z</time>
      </trkpt>
      <trkpt lat="43.289480" lon="-3.200669">
        <ele>497.408</ele>
        <time>2016-04-11T11:27:10Z</time>
      </trkpt>
      <trkpt lat="43.288255" lon="-3.199004">
        <ele>500.074</ele>
        <time>2016-04-11T11:27:47Z</time>
      </trkpt>
      <trkpt lat="43.287362" lon="-3.198799">
        <ele>504.016</ele>
        <time>2016-04-11T11:28:07Z</time>
      </trkpt>
      <trkpt lat="43.285870" lon="-3.200248">
        <ele>507.036</ele>
        <time>2016-04-11T11:29:03Z</time>
      </trkpt>
      <trkpt lat="43.285642" lon="-3.201572">
        <ele>506.855</ele>
        <time>2016-04-11T11:29:27Z</time>
      </trkpt>
      <trkpt lat="43.285233" lon="-3.202341">
        <ele>507.813</ele>
        <time>2016-04-11T11:29:48Z</time>
      </trkpt>
      <trkpt lat="43.283921" lon="-3.202668">
        <ele>510.613</ele>
        <time>2016-04-11T11:30:25Z</time>
      </trkpt>
      <trkpt lat="43.283016" lon="-3.203831">
        <ele>514.026</ele>
        <time>2016-04-11T11:31:04Z</time>
      </trkpt>
      <trkpt lat="43.282072" lon="-3.203732">
        <ele>515.830</ele>
        <time>2016-04-11T11:31:27Z</time>
      </trkpt>
      <trkpt lat="43.279814" lon="-3.202605">
        <ele>519.682</ele>
        <time>2016-04-11T11:32:18Z</time>
      </trkpt>
      <trkpt lat="43.279360" lon="-3.202759">
        <ele>522.643</ele>
        <time>2016-04-11T11:32:29Z</time>
      </trkpt>
      <trkpt lat="43.279053" lon="-3.203433">
        <ele>523.217</ele>
        <time>2016-04-11T11:32:41Z</time>
      </trkpt>
      <trkpt lat="43.278428" lon="-3.203473">
        <ele>525.408</ele>
        <time>2016-04-11T11:33:02Z</time>
      </trkpt>
      <trkpt lat="43.277889" lon="-3.202594">
        <ele>526.649</ele>
        <time>2016-04-11T11:33:15Z</time>
      </trkpt>
      <trkpt lat="43.278035" lon="-3.202280">
        <ele>527.091</ele>
        <time>2016-04-11T11:33:19Z</time>
      </trkpt>
      <trkpt lat="43.277824" lon="-3.201646">
        <ele>527.631</ele>
        <time>2016-04-11T11:33:30Z</time>
      </trkpt>
      <trkpt lat="43.276195" lon="-3.200069">
        <ele>532.660</ele>
        <time>2016-04-11T11:34:11Z</time>
      </trkpt>
      <trkpt lat="43.276193" lon="-3.199124">
        <ele>532.218</ele>
        <time>2016-04-11T11:34:25Z</time>
      </trkpt>
      <trkpt lat="43.274961" lon="-3.197566">
        <ele>532.038</ele>
        <time>2016-04-11T11:34:59Z</time>
      </trkpt>
      <trkpt lat="43.274551" lon="-3.197465">
        <ele>532.241</ele>
        <time>2016-04-11T11:35:07Z</time>
      </trkpt>
      <trkpt lat="43.273217" lon="-3.198010">
        <ele>533.235</ele>
        <time>2016-04-11T11:35:35Z</time>
      </trkpt>
      <trkpt lat="43.272804" lon="-3.198492">
        <ele>532.218</ele>
        <time>2016-04-11T11:35:46Z</time>
      </trkpt>
      <trkpt lat="43.272958" lon="-3.202508">
        <ele>537.898</ele>
        <time>2016-04-11T11:36:44Z</time>
      </trkpt>
      <trkpt lat="43.272830" lon="-3.203348">
        <ele>538.017</ele>
        <time>2016-04-11T11:36:56Z</time>
      </trkpt>
      <trkpt lat="43.272070" lon="-3.203679">
        <ele>538.008</ele>
        <time>2016-04-11T11:37:11Z</time>
      </trkpt>
      <trkpt lat="43.271264" lon="-3.204790">
        <ele>543.022</ele>
        <time>2016-04-11T11:37:35Z</time>
      </trkpt>
      <trkpt lat="43.269619" lon="-3.204521">
        <ele>545.294</ele>
        <time>2016-04-11T11:38:09Z</time>
      </trkpt>
      <trkpt lat="43.268925" lon="-3.203827">
        <ele>541.414</ele>
        <time>2016-04-11T11:38:43Z</time>
      </trkpt>
      <trkpt lat="43.269689" lon="-3.204631">
        <ele>545.043</ele>
        <time>2016-04-11T11:44:33Z</time>
      </trkpt>
      <trkpt lat="43.269445" lon="-3.205898">
        <ele>546.451</ele>
        <time>2016-04-11T11:44:59Z</time>
      </trkpt>
      <trkpt lat="43.269013" lon="-3.206363">
        <ele>555.691</ele>
        <time>2016-04-11T11:45:15Z</time>
      </trkpt>
      <trkpt lat="43.267928" lon="-3.206420">
        <ele>579.624</ele>
        <time>2016-04-11T11:46:04Z</time>
      </trkpt>
      <trkpt lat="43.266944" lon="-3.207724">
        <ele>572.258</ele>
        <time>2016-04-11T11:46:46Z</time>
      </trkpt>
      <trkpt lat="43.267851" lon="-3.209256">
        <ele>570.036</ele>
        <time>2016-04-11T11:47:33Z</time>
      </trkpt>
      <trkpt lat="43.268541" lon="-3.209798">
        <ele>571.217</ele>
        <time>2016-04-11T11:48:22Z</time>
      </trkpt>
      <trkpt lat="43.269613" lon="-3.212460">
        <ele>530.218</ele>
        <time>2016-04-11T11:49:37Z</time>
      </trkpt>
      <trkpt lat="43.270013" lon="-3.212864">
        <ele>526.008</ele>
        <time>2016-04-11T11:49:52Z</time>
      </trkpt>
      <trkpt lat="43.270263" lon="-3.213668">
        <ele>526.844</ele>
        <time>2016-04-11T11:50:19Z</time>
      </trkpt>
      <trkpt lat="43.270992" lon="-3.214678">
        <ele>537.456</ele>
        <time>2016-04-11T11:51:05Z</time>
      </trkpt>
      <trkpt lat="43.270737" lon="-3.215130">
        <ele>531.296</ele>
        <time>2016-04-11T11:51:33Z</time>
      </trkpt>
      <trkpt lat="43.271024" lon="-3.216281">
        <ele>525.675</ele>
        <time>2016-04-11T11:51:56Z</time>
      </trkpt>
      <trkpt lat="43.269930" lon="-3.218739">
        <ele>522.833</ele>
        <time>2016-04-11T11:53:00Z</time>
      </trkpt>
      <trkpt lat="43.269958" lon="-3.219668">
        <ele>518.093</ele>
        <time>2016-04-11T11:53:13Z</time>
      </trkpt>
      <trkpt lat="43.268629" lon="-3.220649">
        <ele>528.416</ele>
        <time>2016-04-11T11:53:54Z</time>
      </trkpt>
      <trkpt lat="43.267896" lon="-3.220788">
        <ele>533.680</ele>
        <time>2016-04-11T11:54:14Z</time>
      </trkpt>
      <trkpt lat="43.267649" lon="-3.221379">
        <ele>530.623</ele>
        <time>2016-04-11T11:54:25Z</time>
      </trkpt>
      <trkpt lat="43.266469" lon="-3.221543">
        <ele>536.483</ele>
        <time>2016-04-11T11:54:52Z</time>
      </trkpt>
      <trkpt lat="43.265724" lon="-3.221258">
        <ele>539.811</ele>
        <time>2016-04-11T11:55:09Z</time>
      </trkpt>
      <trkpt lat="43.265354" lon="-3.221725">
        <ele>543.808</ele>
        <time>2016-04-11T11:55:29Z</time>
      </trkpt>
      <trkpt lat="43.265765" lon="-3.221652">
        <ele>545.813</ele>
        <time>2016-04-11T11:55:43Z</time>
      </trkpt>
      <trkpt lat="43.266940" lon="-3.222128">
        <ele>559.035</ele>
        <time>2016-04-11T11:56:15Z</time>
      </trkpt>
      <trkpt lat="43.268567" lon="-3.221884">
        <ele>563.695</ele>
        <time>2016-04-11T11:56:47Z</time>
      </trkpt>
      <trkpt lat="43.270612" lon="-3.220915">
        <ele>575.434</ele>
        <time>2016-04-11T11:57:30Z</time>
      </trkpt>
      <trkpt lat="43.271436" lon="-3.220138">
        <ele>578.262</ele>
        <time>2016-04-11T11:57:49Z</time>
      </trkpt>
      <trkpt lat="43.271853" lon="-3.219240">
        <ele>581.442</ele>
        <time>2016-04-11T11:58:03Z</time>
      </trkpt>
      <trkpt lat="43.273943" lon="-3.217439">
        <ele>601.685</ele>
        <time>2016-04-11T11:58:59Z</time>
      </trkpt>
      <trkpt lat="43.274142" lon="-3.216767">
        <ele>603.269</ele>
        <time>2016-04-11T11:59:15Z</time>
      </trkpt>
      <trkpt lat="43.274701" lon="-3.215986">
        <ele>607.633</ele>
        <time>2016-04-11T11:59:37Z</time>
      </trkpt>
      <trkpt lat="43.275334" lon="-3.214499">
        <ele>612.023</ele>
        <time>2016-04-11T12:00:11Z</time>
      </trkpt>
      <trkpt lat="43.276969" lon="-3.215959">
        <ele>635.815</ele>
        <time>2016-04-11T12:01:06Z</time>
      </trkpt>
      <trkpt lat="43.277166" lon="-3.215801">
        <ele>638.208</ele>
        <time>2016-04-11T12:01:13Z</time>
      </trkpt>
      <trkpt lat="43.277658" lon="-3.213857">
        <ele>631.474</ele>
        <time>2016-04-11T12:01:43Z</time>
      </trkpt>
      <trkpt lat="43.278826" lon="-3.212727">
        <ele>621.266</ele>
        <time>2016-04-11T12:02:01Z</time>
      </trkpt>
      <trkpt lat="43.280274" lon="-3.213613">
        <ele>628.816</ele>
        <time>2016-04-11T12:02:37Z</time>
      </trkpt>
      <trkpt lat="43.281924" lon="-3.212993">
        <ele>633.865</ele>
        <time>2016-04-11T12:03:18Z</time>
      </trkpt>
      <trkpt lat="43.283177" lon="-3.213125">
        <ele>644.043</ele>
        <time>2016-04-11T12:03:56Z</time>
      </trkpt>
      <trkpt lat="43.285413" lon="-3.214950">
        <ele>667.293</ele>
        <time>2016-04-11T12:05:23Z</time>
      </trkpt>
      <trkpt lat="43.286142" lon="-3.215038">
        <ele>672.036</ele>
        <time>2016-04-11T12:05:50Z</time>
      </trkpt>
      <trkpt lat="43.289228" lon="-3.217735">
        <ele>659.270</ele>
        <time>2016-04-11T12:08:00Z</time>
      </trkpt>
      <trkpt lat="43.291277" lon="-3.218258">
        <ele>644.083</ele>
        <time>2016-04-11T12:08:32Z</time>
      </trkpt>
      <trkpt lat="43.292511" lon="-3.218938">
        <ele>631.825</ele>
        <time>2016-04-11T12:08:47Z</time>
      </trkpt>
      <trkpt lat="43.293328" lon="-3.220100">
        <ele>623.017</ele>
        <time>2016-04-11T12:08:59Z</time>
      </trkpt>
      <trkpt lat="43.293794" lon="-3.221220">
        <ele>618.408</ele>
        <time>2016-04-11T12:09:14Z</time>
      </trkpt>
      <trkpt lat="43.295615" lon="-3.223471">
        <ele>620.489</ele>
        <time>2016-04-11T12:10:29Z</time>
      </trkpt>
      <trkpt lat="43.296244" lon="-3.224828">
        <ele>615.281</ele>
        <time>2016-04-11T12:11:05Z</time>
      </trkpt>
      <trkpt lat="43.298728" lon="-3.226484">
        <ele>620.841</ele>
        <time>2016-04-11T12:12:24Z</time>
      </trkpt>
      <trkpt lat="43.300302" lon="-3.224916">
        <ele>628.620</ele>
        <time>2016-04-11T12:13:17Z</time>
      </trkpt>
      <trkpt lat="43.300711" lon="-3.225446">
        <ele>630.478</ele>
        <time>2016-04-11T12:13:31Z</time>
      </trkpt>
      <trkpt lat="43.302373" lon="-3.225711">
        <ele>644.068</ele>
        <time>2016-04-11T12:14:17Z</time>
      </trkpt>
      <trkpt lat="43.303650" lon="-3.225397">
        <ele>652.291</ele>
        <time>2016-04-11T12:15:11Z</time>
      </trkpt>
      <trkpt lat="43.305625" lon="-3.225703">
        <ele>668.865</ele>
        <time>2016-04-11T12:16:00Z</time>
      </trkpt>
      <trkpt lat="43.306562" lon="-3.225492">
        <ele>676.018</ele>
        <time>2016-04-11T12:16:23Z</time>
      </trkpt>
      <trkpt lat="43.308309" lon="-3.225753">
        <ele>694.698</ele>
        <time>2016-04-11T12:17:08Z</time>
      </trkpt>
      <trkpt lat="43.309230" lon="-3.223134">
        <ele>723.217</ele>
        <time>2016-04-11T12:18:07Z</time>
      </trkpt>
      <trkpt lat="43.309485" lon="-3.223031">
        <ele>724.408</ele>
        <time>2016-04-11T12:18:15Z</time>
      </trkpt>
      <trkpt lat="43.310295" lon="-3.226492">
        <ele>699.082</ele>
        <time>2016-04-11T12:33:44Z</time>
      </trkpt>
      <trkpt lat="43.310883" lon="-3.227362">
        <ele>693.664</ele>
        <time>2016-04-11T12:33:56Z</time>
      </trkpt>
      <trkpt lat="43.312642" lon="-3.229057">
        <ele>682.234</ele>
        <time>2016-04-11T12:34:23Z</time>
      </trkpt>
      <trkpt lat="43.315250" lon="-3.230685">
        <ele>667.033</ele>
        <time>2016-04-11T12:35:10Z</time>
      </trkpt>
      <trkpt lat="43.316577" lon="-3.232633">
        <ele>626.051</ele>
        <time>2016-04-11T12:35:46Z</time>
      </trkpt>
      <trkpt lat="43.316701" lon="-3.234046">
        <ele>607.451</ele>
        <time>2016-04-11T12:36:05Z</time>
      </trkpt>
      <trkpt lat="43.317469" lon="-3.235596">
        <ele>596.094</ele>
        <time>2016-04-11T12:36:28Z</time>
      </trkpt>
      <trkpt lat="43.320774" lon="-3.240238">
        <ele>592.658</ele>
        <time>2016-04-11T12:38:07Z</time>
      </trkpt>
      <trkpt lat="43.322428" lon="-3.242159">
        <ele>590.822</ele>
        <time>2016-04-11T12:38:52Z</time>
      </trkpt>
      <trkpt lat="43.323724" lon="-3.246198">
        <ele>577.862</ele>
        <time>2016-04-11T12:39:43Z</time>
      </trkpt>
      <trkpt lat="43.324916" lon="-3.247634">
        <ele>573.208</ele>
        <time>2016-04-11T12:40:04Z</time>
      </trkpt>
      <trkpt lat="43.326110" lon="-3.249992">
        <ele>576.408</ele>
        <time>2016-04-11T12:40:44Z</time>
      </trkpt>
      <trkpt lat="43.327191" lon="-3.256058">
        <ele>579.233</ele>
        <time>2016-04-11T12:44:30Z</time>
      </trkpt>
      <trkpt lat="43.329419" lon="-3.259906">
        <ele>575.455</ele>
        <time>2016-04-11T12:46:15Z</time>
      </trkpt>
      <trkpt lat="43.329802" lon="-3.261050">
        <ele>572.485</ele>
        <time>2016-04-11T12:46:29Z</time>
      </trkpt>
      <trkpt lat="43.330165" lon="-3.265433">
        <ele>560.074</ele>
        <time>2016-04-11T12:47:30Z</time>
      </trkpt>
      <trkpt lat="43.330866" lon="-3.266721">
        <ele>549.472</ele>
        <time>2016-04-11T12:47:52Z</time>
      </trkpt>
      <trkpt lat="43.331099" lon="-3.267716">
        <ele>536.652</ele>
        <time>2016-04-11T12:48:03Z</time>
      </trkpt>
      <trkpt lat="43.331654" lon="-3.268590">
        <ele>536.235</ele>
        <time>2016-04-11T12:48:22Z</time>
      </trkpt>
      <trkpt lat="43.332069" lon="-3.269859">
        <ele>527.499</ele>
        <time>2016-04-11T12:48:34Z</time>
      </trkpt>
      <trkpt lat="43.332050" lon="-3.271892">
        <ele>503.432</ele>
        <time>2016-04-11T12:49:00Z</time>
      </trkpt>
      <trkpt lat="43.334150" lon="-3.275583">
        <ele>478.892</ele>
        <time>2016-04-11T12:49:54Z</time>
      </trkpt>
      <trkpt lat="43.334505" lon="-3.278274">
        <ele>444.811</ele>
        <time>2016-04-11T12:50:21Z</time>
      </trkpt>
      <trkpt lat="43.334539" lon="-3.280737">
        <ele>425.408</ele>
        <time>2016-04-11T12:50:47Z</time>
      </trkpt>
      <trkpt lat="43.335598" lon="-3.283624">
        <ele>406.094</ele>
        <time>2016-04-11T12:51:26Z</time>
      </trkpt>
      <trkpt lat="43.335504" lon="-3.284495">
        <ele>398.686</ele>
        <time>2016-04-11T12:51:36Z</time>
      </trkpt>
      <trkpt lat="43.335761" lon="-3.285578">
        <ele>389.046</ele>
        <time>2016-04-11T12:51:49Z</time>
      </trkpt>
      <trkpt lat="43.336452" lon="-3.287021">
        <ele>380.695</ele>
        <time>2016-04-11T12:52:07Z</time>
      </trkpt>
      <trkpt lat="43.336227" lon="-3.287975">
        <ele>364.893</ele>
        <time>2016-04-11T12:52:20Z</time>
      </trkpt>
      <trkpt lat="43.336208" lon="-3.289462">
        <ele>338.673</ele>
        <time>2016-04-11T12:52:38Z</time>
      </trkpt>
      <trkpt lat="43.338014" lon="-3.293356">
        <ele>297.026</ele>
        <time>2016-04-11T12:53:36Z</time>
      </trkpt>
      <trkpt lat="43.338180" lon="-3.294687">
        <ele>287.220</ele>
        <time>2016-04-11T12:53:51Z</time>
      </trkpt>
      <trkpt lat="43.336609" lon="-3.297746">
        <ele>238.438</ele>
        <time>2016-04-11T12:54:29Z</time>
      </trkpt>
      <trkpt lat="43.336046" lon="-3.300109">
        <ele>213.070</ele>
        <time>2016-04-11T12:54:56Z</time>
      </trkpt>
      <trkpt lat="43.335886" lon="-3.301629">
        <ele>187.617</ele>
        <time>2016-04-11T12:55:16Z</time>
      </trkpt>
      <trkpt lat="43.335233" lon="-3.303421">
        <ele>161.608</ele>
        <time>2016-04-11T12:55:40Z</time>
      </trkpt>
      <trkpt lat="43.335683" lon="-3.305904">
        <ele>126.274</ele>
        <time>2016-04-11T12:56:11Z</time>
      </trkpt>
      <trkpt lat="43.334170" lon="-3.308397">
        <ele>96.496</ele>
        <time>2016-04-11T12:56:44Z</time>
      </trkpt>
      <trkpt lat="43.334169" lon="-3.308859">
        <ele>87.896</ele>
        <time>2016-04-11T12:56:49Z</time>
      </trkpt>
      <trkpt lat="43.334444" lon="-3.309200">
        <ele>79.095</ele>
        <time>2016-04-11T12:56:55Z</time>
      </trkpt>
      <trkpt lat="43.334247" lon="-3.309701">
        <ele>67.863</ele>
        <time>2016-04-11T12:57:02Z</time>
      </trkpt>
      <trkpt lat="43.334319" lon="-3.310277">
        <ele>56.673</ele>
        <time>2016-04-11T12:57:09Z</time>
      </trkpt>
      <trkpt lat="43.333979" lon="-3.310549">
        <ele>49.486</ele>
        <time>2016-04-11T12:57:14Z</time>
      </trkpt>
      <trkpt lat="43.333469" lon="-3.310471">
        <ele>40.820</ele>
        <time>2016-04-11T12:57:23Z</time>
      </trkpt>
      <trkpt lat="43.332963" lon="-3.311244">
        <ele>35.689</ele>
        <time>2016-04-11T12:57:38Z</time>
      </trkpt>
      <trkpt lat="43.332854" lon="-3.312116">
        <ele>34.006</ele>
        <time>2016-04-11T12:57:48Z</time>
      </trkpt>
      <trkpt lat="43.333433" lon="-3.314181">
        <ele>32.826</ele>
        <time>2016-04-11T12:58:14Z</time>
      </trkpt>
      <trkpt lat="43.333887" lon="-3.313818">
        <ele>32.008</ele>
        <time>2016-04-11T12:58:23Z</time>
      </trkpt>
      <trkpt lat="43.334694" lon="-3.314430">
        <ele>30.419</ele>
        <time>2016-04-11T12:58:38Z</time>
      </trkpt>
      <trkpt lat="43.337495" lon="-3.315154">
        <ele>28.611</ele>
        <time>2016-04-11T12:59:22Z</time>
      </trkpt>
      <trkpt lat="43.338068" lon="-3.315703">
        <ele>28.461</ele>
        <time>2016-04-11T12:59:33Z</time>
      </trkpt>
      <trkpt lat="43.338061" lon="-3.316562">
        <ele>27.460</ele>
        <time>2016-04-11T12:59:44Z</time>
      </trkpt>
      <trkpt lat="43.343194" lon="-3.318855">
        <ele>26.288</ele>
        <time>2016-04-11T13:01:09Z</time>
      </trkpt>
      <trkpt lat="43.343738" lon="-3.319974">
        <ele>24.698</ele>
        <time>2016-04-11T13:01:24Z</time>
      </trkpt>
      <trkpt lat="43.343898" lon="-3.321537">
        <ele>21.461</ele>
        <time>2016-04-11T13:01:37Z</time>
      </trkpt>
      <trkpt lat="43.344441" lon="-3.322148">
        <ele>20.665</ele>
        <time>2016-04-11T13:01:45Z</time>
      </trkpt>
      <trkpt lat="43.345166" lon="-3.323889">
        <ele>17.226</ele>
        <time>2016-04-11T13:02:02Z</time>
      </trkpt>
      <trkpt lat="43.346175" lon="-3.325392">
        <ele>17.047</ele>
        <time>2016-04-11T13:02:23Z</time>
      </trkpt>
      <trkpt lat="43.345917" lon="-3.325849">
        <ele>3.811</ele>
        <time>2016-04-12T08:01:20Z</time>
      </trkpt>
      <trkpt lat="43.345519" lon="-3.326023">
        <ele>2.808</ele>
        <time>2016-04-12T08:01:51Z</time>
      </trkpt>
      <trkpt lat="43.344713" lon="-3.324147">
        <ele>4.233</ele>
        <time>2016-04-12T08:02:25Z</time>
      </trkpt>
      <trkpt lat="43.343925" lon="-3.323567">
        <ele>4.255</ele>
        <time>2016-04-12T08:02:46Z</time>
      </trkpt>
      <trkpt lat="43.343033" lon="-3.320914">
        <ele>5.465</ele>
        <time>2016-04-12T08:03:40Z</time>
      </trkpt>
      <trkpt lat="43.342502" lon="-3.320434">
        <ele>8.684</ele>
        <time>2016-04-12T08:03:54Z</time>
      </trkpt>
      <trkpt lat="43.341815" lon="-3.320396">
        <ele>10.412</ele>
        <time>2016-04-12T08:04:11Z</time>
      </trkpt>
      <trkpt lat="43.341226" lon="-3.319436">
        <ele>11.452</ele>
        <time>2016-04-12T08:04:32Z</time>
      </trkpt>
      <trkpt lat="43.340731" lon="-3.319826">
        <ele>12.845</ele>
        <time>2016-04-12T08:04:43Z</time>
      </trkpt>
      <trkpt lat="43.338924" lon="-3.320077">
        <ele>16.649</ele>
        <time>2016-04-12T08:05:18Z</time>
      </trkpt>
      <trkpt lat="43.338771" lon="-3.319270">
        <ele>12.431</ele>
        <time>2016-04-12T08:05:28Z</time>
      </trkpt>
      <trkpt lat="43.336827" lon="-3.319409">
        <ele>14.261</ele>
        <time>2016-04-12T08:06:06Z</time>
      </trkpt>
      <trkpt lat="43.335791" lon="-3.319053">
        <ele>17.407</ele>
        <time>2016-04-12T08:06:27Z</time>
      </trkpt>
      <trkpt lat="43.335305" lon="-3.319488">
        <ele>16.208</ele>
        <time>2016-04-12T08:06:39Z</time>
      </trkpt>
      <trkpt lat="43.333590" lon="-3.317923">
        <ele>19.084</ele>
        <time>2016-04-12T08:07:19Z</time>
      </trkpt>
      <trkpt lat="43.332473" lon="-3.316230">
        <ele>17.436</ele>
        <time>2016-04-12T08:07:47Z</time>
      </trkpt>
      <trkpt lat="43.331565" lon="-3.314162">
        <ele>20.036</ele>
        <time>2016-04-12T08:08:17Z</time>
      </trkpt>
      <trkpt lat="43.331534" lon="-3.312504">
        <ele>18.055</ele>
        <time>2016-04-12T08:08:37Z</time>
      </trkpt>
      <trkpt lat="43.331862" lon="-3.311816">
        <ele>18.263</ele>
        <time>2016-04-12T08:08:49Z</time>
      </trkpt>
      <trkpt lat="43.331765" lon="-3.309564">
        <ele>21.243</ele>
        <time>2016-04-12T08:09:18Z</time>
      </trkpt>
      <trkpt lat="43.331364" lon="-3.307788">
        <ele>22.456</ele>
        <time>2016-04-12T08:09:41Z</time>
      </trkpt>
      <trkpt lat="43.330640" lon="-3.306056">
        <ele>24.460</ele>
        <time>2016-04-12T08:10:06Z</time>
      </trkpt>
      <trkpt lat="43.329062" lon="-3.303764">
        <ele>48.619</ele>
        <time>2016-04-12T08:11:19Z</time>
      </trkpt>
      <trkpt lat="43.327503" lon="-3.303261">
        <ele>68.009</ele>
        <time>2016-04-12T08:12:24Z</time>
      </trkpt>
      <trkpt lat="43.327220" lon="-3.303478">
        <ele>71.019</ele>
        <time>2016-04-12T08:12:37Z</time>
      </trkpt>
      <trkpt lat="43.327853" lon="-3.305135">
        <ele>87.208</ele>
        <time>2016-04-12T08:13:34Z</time>
      </trkpt>
      <trkpt lat="43.327788" lon="-3.305534">
        <ele>91.612</ele>
        <time>2016-04-12T08:13:48Z</time>
      </trkpt>
      <trkpt lat="43.327210" lon="-3.305181">
        <ele>99.414</ele>
        <time>2016-04-12T08:14:13Z</time>
      </trkpt>
      <trkpt lat="43.327183" lon="-3.305973">
        <ele>105.274</ele>
        <time>2016-04-12T08:14:35Z</time>
      </trkpt>
      <trkpt lat="43.325684" lon="-3.306521">
        <ele>123.213</ele>
        <time>2016-04-12T08:15:32Z</time>
      </trkpt>
      <trkpt lat="43.324228" lon="-3.306182">
        <ele>125.881</ele>
        <time>2016-04-12T08:16:13Z</time>
      </trkpt>
      <trkpt lat="43.324731" lon="-3.305114">
        <ele>133.861</ele>
        <time>2016-04-12T08:16:44Z</time>
      </trkpt>
      <trkpt lat="43.324737" lon="-3.304406">
        <ele>139.634</ele>
        <time>2016-04-12T08:17:06Z</time>
      </trkpt>
      <trkpt lat="43.323658" lon="-3.300833">
        <ele>174.468</ele>
        <time>2016-04-12T08:19:05Z</time>
      </trkpt>
      <trkpt lat="43.323042" lon="-3.300442">
        <ele>182.897</ele>
        <time>2016-04-12T08:19:40Z</time>
      </trkpt>
      <trkpt lat="43.323216" lon="-3.300817">
        <ele>185.623</ele>
        <time>2016-04-12T08:19:55Z</time>
      </trkpt>
      <trkpt lat="43.323255" lon="-3.302291">
        <ele>199.025</ele>
        <time>2016-04-12T08:20:42Z</time>
      </trkpt>
      <trkpt lat="43.323009" lon="-3.304074">
        <ele>218.808</ele>
        <time>2016-04-12T08:21:42Z</time>
      </trkpt>
      <trkpt lat="43.322780" lon="-3.304449">
        <ele>224.410</ele>
        <time>2016-04-12T08:21:56Z</time>
      </trkpt>
      <trkpt lat="43.322218" lon="-3.304709">
        <ele>233.412</ele>
        <time>2016-04-12T08:22:23Z</time>
      </trkpt>
      <trkpt lat="43.322319" lon="-3.304314">
        <ele>237.652</ele>
        <time>2016-04-12T08:22:42Z</time>
      </trkpt>
      <trkpt lat="43.322080" lon="-3.303652">
        <ele>244.241</ele>
        <time>2016-04-12T08:23:08Z</time>
      </trkpt>
      <trkpt lat="43.321409" lon="-3.303398">
        <ele>251.869</ele>
        <time>2016-04-12T08:23:40Z</time>
      </trkpt>
      <trkpt lat="43.320182" lon="-3.304267">
        <ele>260.829</ele>
        <time>2016-04-12T08:24:31Z</time>
      </trkpt>
      <trkpt lat="43.319733" lon="-3.304105">
        <ele>266.262</ele>
        <time>2016-04-12T08:24:53Z</time>
      </trkpt>
      <trkpt lat="43.319114" lon="-3.304573">
        <ele>269.016</ele>
        <time>2016-04-12T08:25:19Z</time>
      </trkpt>
      <trkpt lat="43.317380" lon="-3.304798">
        <ele>284.037</ele>
        <time>2016-04-12T08:26:25Z</time>
      </trkpt>
      <trkpt lat="43.315118" lon="-3.303842">
        <ele>316.849</ele>
        <time>2016-04-12T08:27:56Z</time>
      </trkpt>
      <trkpt lat="43.314661" lon="-3.306690">
        <ele>351.213</ele>
        <time>2016-04-12T08:29:22Z</time>
      </trkpt>
      <trkpt lat="43.315011" lon="-3.308967">
        <ele>371.808</ele>
        <time>2016-04-12T08:30:29Z</time>
      </trkpt>
      <trkpt lat="43.315075" lon="-3.310936">
        <ele>391.294</ele>
        <time>2016-04-12T08:31:28Z</time>
      </trkpt>
      <trkpt lat="43.314082" lon="-3.310057">
        <ele>408.446</ele>
        <time>2016-04-12T08:32:19Z</time>
      </trkpt>
      <trkpt lat="43.313570" lon="-3.310141">
        <ele>412.296</ele>
        <time>2016-04-12T08:32:37Z</time>
      </trkpt>
      <trkpt lat="43.313205" lon="-3.310663">
        <ele>419.095</ele>
        <time>2016-04-12T08:32:56Z</time>
      </trkpt>
      <trkpt lat="43.313013" lon="-3.309819">
        <ele>422.033</ele>
        <time>2016-04-12T08:33:16Z</time>
      </trkpt>
      <trkpt lat="43.312492" lon="-3.308949">
        <ele>429.433</ele>
        <time>2016-04-12T08:33:45Z</time>
      </trkpt>
      <trkpt lat="43.311883" lon="-3.309455">
        <ele>434.246</ele>
        <time>2016-04-12T08:34:12Z</time>
      </trkpt>
      <trkpt lat="43.312032" lon="-3.310177">
        <ele>438.460</ele>
        <time>2016-04-12T08:34:29Z</time>
      </trkpt>
      <trkpt lat="43.311824" lon="-3.312407">
        <ele>457.422</ele>
        <time>2016-04-12T08:35:30Z</time>
      </trkpt>
      <trkpt lat="43.311101" lon="-3.311147">
        <ele>471.262</ele>
        <time>2016-04-12T08:36:18Z</time>
      </trkpt>
      <trkpt lat="43.310538" lon="-3.311142">
        <ele>479.408</ele>
        <time>2016-04-12T08:36:41Z</time>
      </trkpt>
      <trkpt lat="43.309207" lon="-3.310247">
        <ele>495.808</ele>
        <time>2016-04-12T08:37:35Z</time>
      </trkpt>
      <trkpt lat="43.308868" lon="-3.310257">
        <ele>500.083</ele>
        <time>2016-04-12T08:37:48Z</time>
      </trkpt>
      <trkpt lat="43.308543" lon="-3.310652">
        <ele>507.455</ele>
        <time>2016-04-12T08:38:06Z</time>
      </trkpt>
      <trkpt lat="43.309027" lon="-3.311586">
        <ele>513.065</ele>
        <time>2016-04-12T08:38:39Z</time>
      </trkpt>
      <trkpt lat="43.309119" lon="-3.312326">
        <ele>518.614</ele>
        <time>2016-04-12T08:40:58Z</time>
      </trkpt>
      <trkpt lat="43.308397" lon="-3.315485">
        <ele>545.422</ele>
        <time>2016-04-12T08:42:27Z</time>
      </trkpt>
      <trkpt lat="43.307623" lon="-3.315496">
        <ele>554.272</ele>
        <time>2016-04-12T08:42:53Z</time>
      </trkpt>
      <trkpt lat="43.307074" lon="-3.316125">
        <ele>551.825</ele>
        <time>2016-04-12T08:43:14Z</time>
      </trkpt>
      <trkpt lat="43.305081" lon="-3.314338">
        <ele>550.459</ele>
        <time>2016-04-12T08:45:10Z</time>
      </trkpt>
      <trkpt lat="43.303473" lon="-3.315070">
        <ele>564.855</ele>
        <time>2016-04-12T08:46:07Z</time>
      </trkpt>
      <trkpt lat="43.303031" lon="-3.314893">
        <ele>567.007</ele>
        <time>2016-04-12T08:46:21Z</time>
      </trkpt>
      <trkpt lat="43.301883" lon="-3.315713">
        <ele>568.217</ele>
        <time>2016-04-12T08:46:57Z</time>
      </trkpt>
      <trkpt lat="43.302286" lon="-3.316426">
        <ele>573.208</ele>
        <time>2016-04-12T08:47:19Z</time>
      </trkpt>
      <trkpt lat="43.302311" lon="-3.316850">
        <ele>574.636</ele>
        <time>2016-04-12T08:47:30Z</time>
      </trkpt>
      <trkpt lat="43.301104" lon="-3.319067">
        <ele>588.848</ele>
        <time>2016-04-12T08:48:31Z</time>
      </trkpt>
      <trkpt lat="43.300097" lon="-3.320028">
        <ele>564.888</ele>
        <time>2016-04-12T08:49:05Z</time>
      </trkpt>
      <trkpt lat="43.299790" lon="-3.319298">
        <ele>563.497</ele>
        <time>2016-04-12T08:49:30Z</time>
      </trkpt>
      <trkpt lat="43.299431" lon="-3.319570">
        <ele>562.675</ele>
        <time>2016-04-12T08:49:44Z</time>
      </trkpt>
      <trkpt lat="43.297637" lon="-3.319735">
        <ele>562.625</ele>
        <time>2016-04-12T08:53:31Z</time>
      </trkpt>
      <trkpt lat="43.296431" lon="-3.320592">
        <ele>563.438</ele>
        <time>2016-04-12T08:54:45Z</time>
      </trkpt>
      <trkpt lat="43.295719" lon="-3.320628">
        <ele>563.212</ele>
        <time>2016-04-12T08:55:23Z</time>
      </trkpt>
      <trkpt lat="43.294813" lon="-3.321166">
        <ele>564.623</ele>
        <time>2016-04-12T08:56:14Z</time>
      </trkpt>
      <trkpt lat="43.294195" lon="-3.320896">
        <ele>564.483</ele>
        <time>2016-04-12T08:56:49Z</time>
      </trkpt>
      <trkpt lat="43.293835" lon="-3.321134">
        <ele>565.411</ele>
        <time>2016-04-12T08:57:14Z</time>
      </trkpt>
      <trkpt lat="43.291955" lon="-3.321020">
        <ele>567.008</ele>
        <time>2016-04-12T08:59:26Z</time>
      </trkpt>
      <trkpt lat="43.291152" lon="-3.319931">
        <ele>566.413</ele>
        <time>2016-04-12T09:01:36Z</time>
      </trkpt>
      <trkpt lat="43.291156" lon="-3.318438">
        <ele>567.635</ele>
        <time>2016-04-12T09:02:42Z</time>
      </trkpt>
      <trkpt lat="43.290864" lon="-3.317717">
        <ele>568.445</ele>
        <time>2016-04-12T09:03:18Z</time>
      </trkpt>
      <trkpt lat="43.289452" lon="-3.318438">
        <ele>569.674</ele>
        <time>2016-04-12T09:04:59Z</time>
      </trkpt>
      <trkpt lat="43.288578" lon="-3.316781">
        <ele>570.832</ele>
        <time>2016-04-12T09:06:42Z</time>
      </trkpt>
      <trkpt lat="43.288153" lon="-3.316534">
        <ele>570.422</ele>
        <time>2016-04-12T09:07:13Z</time>
      </trkpt>
      <trkpt lat="43.288063" lon="-3.316095">
        <ele>569.635</ele>
        <time>2016-04-12T09:07:33Z</time>
      </trkpt>
      <trkpt lat="43.287025" lon="-3.314797">
        <ele>569.259</ele>
        <time>2016-04-12T09:09:58Z</time>
      </trkpt>
      <trkpt lat="43.286720" lon="-3.314744">
        <ele>570.267</ele>
        <time>2016-04-12T09:10:15Z</time>
      </trkpt>
      <trkpt lat="43.284299" lon="-3.312401">
        <ele>574.081</ele>
        <time>2016-04-12T09:13:46Z</time>
      </trkpt>
      <trkpt lat="43.283959" lon="-3.312984">
        <ele>576.019</ele>
        <time>2016-04-12T09:14:55Z</time>
      </trkpt>
      <trkpt lat="43.284176" lon="-3.314053">
        <ele>576.408</ele>
        <time>2016-04-12T09:15:33Z</time>
      </trkpt>
      <trkpt lat="43.283913" lon="-3.315164">
        <ele>576.637</ele>
        <time>2016-04-12T09:16:04Z</time>
      </trkpt>
      <trkpt lat="43.283354" lon="-3.315683">
        <ele>578.089</ele>
        <time>2016-04-12T09:16:27Z</time>
      </trkpt>
      <trkpt lat="43.282920" lon="-3.315683">
        <ele>577.099</ele>
        <time>2016-04-12T09:16:50Z</time>
      </trkpt>
      <trkpt lat="43.281853" lon="-3.317136">
        <ele>579.488</ele>
        <time>2016-04-12T09:18:45Z</time>
      </trkpt>
      <trkpt lat="43.281871" lon="-3.317648">
        <ele>579.666</ele>
        <time>2016-04-12T09:19:09Z</time>
      </trkpt>
      <trkpt lat="43.282513" lon="-3.317889">
        <ele>579.616</ele>
        <time>2016-04-12T09:19:50Z</time>
      </trkpt>
      <trkpt lat="43.283702" lon="-3.319758">
        <ele>580.899</ele>
        <time>2016-04-12T09:21:20Z</time>
      </trkpt>
      <trkpt lat="43.283911" lon="-3.321026">
        <ele>581.823</ele>
        <time>2016-04-12T09:22:00Z</time>
      </trkpt>
      <trkpt lat="43.284435" lon="-3.322306">
        <ele>580.691</ele>
        <time>2016-04-12T09:22:34Z</time>
      </trkpt>
      <trkpt lat="43.283385" lon="-3.323099">
        <ele>583.881</ele>
        <time>2016-04-12T09:23:21Z</time>
      </trkpt>
      <trkpt lat="43.281577" lon="-3.323392">
        <ele>585.219</ele>
        <time>2016-04-12T09:24:19Z</time>
      </trkpt>
      <trkpt lat="43.281658" lon="-3.323909">
        <ele>585.808</ele>
        <time>2016-04-12T09:24:49Z</time>
      </trkpt>
      <trkpt lat="43.281059" lon="-3.326018">
        <ele>587.090</ele>
        <time>2016-04-12T09:25:42Z</time>
      </trkpt>
      <trkpt lat="43.280716" lon="-3.326330">
        <ele>586.812</ele>
        <time>2016-04-12T09:25:52Z</time>
      </trkpt>
      <trkpt lat="43.280919" lon="-3.327190">
        <ele>588.282</ele>
        <time>2016-04-12T09:26:15Z</time>
      </trkpt>
      <trkpt lat="43.280784" lon="-3.327530">
        <ele>588.631</ele>
        <time>2016-04-12T09:26:26Z</time>
      </trkpt>
      <trkpt lat="43.281640" lon="-3.328366">
        <ele>588.439</ele>
        <time>2016-04-12T09:26:58Z</time>
      </trkpt>
      <trkpt lat="43.281717" lon="-3.330112">
        <ele>589.499</ele>
        <time>2016-04-12T09:27:31Z</time>
      </trkpt>
      <trkpt lat="43.281108" lon="-3.332407">
        <ele>590.432</ele>
        <time>2016-04-12T09:29:30Z</time>
      </trkpt>
      <trkpt lat="43.281150" lon="-3.336035">
        <ele>591.216</ele>
        <time>2016-04-12T09:31:55Z</time>
      </trkpt>
      <trkpt lat="43.281751" lon="-3.336831">
        <ele>591.693</ele>
        <time>2016-04-12T09:32:22Z</time>
      </trkpt>
      <trkpt lat="43.283301" lon="-3.337165">
        <ele>591.065</ele>
        <time>2016-04-12T09:33:04Z</time>
      </trkpt>
      <trkpt lat="43.283710" lon="-3.338122">
        <ele>593.021</ele>
        <time>2016-04-12T09:33:28Z</time>
      </trkpt>
      <trkpt lat="43.284439" lon="-3.338105">
        <ele>594.008</ele>
        <time>2016-04-12T09:33:52Z</time>
      </trkpt>
      <trkpt lat="43.285261" lon="-3.339360">
        <ele>594.020</ele>
        <time>2016-04-12T09:34:20Z</time>
      </trkpt>
      <trkpt lat="43.286401" lon="-3.340462">
        <ele>593.842</ele>
        <time>2016-04-12T09:35:00Z</time>
      </trkpt>
      <trkpt lat="43.288030" lon="-3.339995">
        <ele>594.642</ele>
        <time>2016-04-12T09:35:39Z</time>
      </trkpt>
      <trkpt lat="43.288719" lon="-3.340990">
        <ele>596.481</ele>
        <time>2016-04-12T09:36:04Z</time>
      </trkpt>
      <trkpt lat="43.292310" lon="-3.342083">
        <ele>605.229</ele>
        <time>2016-04-12T09:38:38Z</time>
      </trkpt>
      <trkpt lat="43.293604" lon="-3.343264">
        <ele>631.839</ele>
        <time>2016-04-12T09:40:36Z</time>
      </trkpt>
      <trkpt lat="43.294780" lon="-3.343660">
        <ele>645.452</ele>
        <time>2016-04-12T09:41:25Z</time>
      </trkpt>
      <trkpt lat="43.296516" lon="-3.345019">
        <ele>649.416</ele>
        <time>2016-04-12T09:42:56Z</time>
      </trkpt>
      <trkpt lat="43.297770" lon="-3.345506">
        <ele>657.235</ele>
        <time>2016-04-12T09:43:35Z</time>
      </trkpt>
      <trkpt lat="43.298633" lon="-3.346303">
        <ele>661.886</ele>
        <time>2016-04-12T09:44:05Z</time>
      </trkpt>
      <trkpt lat="43.299948" lon="-3.349551">
        <ele>657.414</ele>
        <time>2016-04-12T09:45:16Z</time>
      </trkpt>
      <trkpt lat="43.300031" lon="-3.351070">
        <ele>651.408</ele>
        <time>2016-04-12T09:45:45Z</time>
      </trkpt>
      <trkpt lat="43.300297" lon="-3.351724">
        <ele>648.824</ele>
        <time>2016-04-12T09:46:10Z</time>
      </trkpt>
      <trkpt lat="43.301509" lon="-3.352580">
        <ele>638.216</ele>
        <time>2016-04-12T09:46:33Z</time>
      </trkpt>
      <trkpt lat="43.301844" lon="-3.353553">
        <ele>634.226</ele>
        <time>2016-04-12T09:46:57Z</time>
      </trkpt>
      <trkpt lat="43.302474" lon="-3.353906">
        <ele>639.235</ele>
        <time>2016-04-12T09:47:29Z</time>
      </trkpt>
      <trkpt lat="43.302386" lon="-3.354074">
        <ele>638.093</ele>
        <time>2016-04-12T09:47:45Z</time>
      </trkpt>
      <trkpt lat="43.303193" lon="-3.355341">
        <ele>647.643</ele>
        <time>2016-04-12T09:48:45Z</time>
      </trkpt>
      <trkpt lat="43.304737" lon="-3.355926">
        <ele>689.436</ele>
        <time>2016-04-12T09:52:01Z</time>
      </trkpt>
      <trkpt lat="43.305463" lon="-3.357473">
        <ele>694.860</ele>
        <time>2016-04-12T09:53:07Z</time>
      </trkpt>
      <trkpt lat="43.306431" lon="-3.358790">
        <ele>700.074</ele>
        <time>2016-04-12T09:53:56Z</time>
      </trkpt>
      <trkpt lat="43.307347" lon="-3.358676">
        <ele>683.656</ele>
        <time>2016-04-12T09:54:53Z</time>
      </trkpt>
      <trkpt lat="43.308654" lon="-3.357221">
        <ele>665.421</ele>
        <time>2016-04-12T09:55:21Z</time>
      </trkpt>
      <trkpt lat="43.309746" lon="-3.358098">
        <ele>653.408</ele>
        <time>2016-04-12T09:55:36Z</time>
      </trkpt>
      <trkpt lat="43.311637" lon="-3.360276">
        <ele>636.488</ele>
        <time>2016-04-12T09:55:59Z</time>
      </trkpt>
      <trkpt lat="43.312175" lon="-3.359893">
        <ele>635.840</ele>
        <time>2016-04-12T09:56:06Z</time>
      </trkpt>
      <trkpt lat="43.312491" lon="-3.358562">
        <ele>652.820</ele>
        <time>2016-04-12T09:56:40Z</time>
      </trkpt>
      <trkpt lat="43.312166" lon="-3.359812">
        <ele>639.089</ele>
        <time>2016-04-12T10:01:21Z</time>
      </trkpt>
      <trkpt lat="43.311682" lon="-3.360231">
        <ele>635.657</ele>
        <time>2016-04-12T10:01:29Z</time>
      </trkpt>
      <trkpt lat="43.309932" lon="-3.359376">
        <ele>634.457</ele>
        <time>2016-04-12T10:02:16Z</time>
      </trkpt>
      <trkpt lat="43.309835" lon="-3.359821">
        <ele>632.880</ele>
        <time>2016-04-12T10:02:24Z</time>
      </trkpt>
      <trkpt lat="43.310125" lon="-3.361165">
        <ele>629.014</ele>
        <time>2016-04-12T10:02:56Z</time>
      </trkpt>
      <trkpt lat="43.310067" lon="-3.361868">
        <ele>627.891</ele>
        <time>2016-04-12T10:03:13Z</time>
      </trkpt>
      <trkpt lat="43.309383" lon="-3.362150">
        <ele>627.681</ele>
        <time>2016-04-12T10:18:20Z</time>
      </trkpt>
      <trkpt lat="43.308987" lon="-3.362970">
        <ele>626.619</ele>
        <time>2016-04-12T10:18:41Z</time>
      </trkpt>
      <trkpt lat="43.308955" lon="-3.363712">
        <ele>624.808</ele>
        <time>2016-04-12T10:19:14Z</time>
      </trkpt>
      <trkpt lat="43.309168" lon="-3.364163">
        <ele>622.870</ele>
        <time>2016-04-12T10:19:44Z</time>
      </trkpt>
      <trkpt lat="43.308611" lon="-3.368741">
        <ele>623.032</ele>
        <time>2016-04-12T10:21:30Z</time>
      </trkpt>
      <trkpt lat="43.308098" lon="-3.369815">
        <ele>623.052</ele>
        <time>2016-04-12T10:22:03Z</time>
      </trkpt>
      <trkpt lat="43.308030" lon="-3.370399">
        <ele>621.881</ele>
        <time>2016-04-12T10:22:17Z</time>
      </trkpt>
      <trkpt lat="43.309162" lon="-3.375459">
        <ele>561.849</ele>
        <time>2016-04-12T10:23:45Z</time>
      </trkpt>
      <trkpt lat="43.310517" lon="-3.379509">
        <ele>511.619</ele>
        <time>2016-04-12T10:25:01Z</time>
      </trkpt>
      <trkpt lat="43.310385" lon="-3.380509">
        <ele>498.832</ele>
        <time>2016-04-12T10:25:18Z</time>
      </trkpt>
      <trkpt lat="43.309494" lon="-3.379687">
        <ele>480.856</ele>
        <time>2016-04-12T10:25:38Z</time>
      </trkpt>
      <trkpt lat="43.309087" lon="-3.380152">
        <ele>468.696</ele>
        <time>2016-04-12T10:25:47Z</time>
      </trkpt>
      <trkpt lat="43.308439" lon="-3.379930">
        <ele>453.031</ele>
        <time>2016-04-12T10:25:58Z</time>
      </trkpt>
      <trkpt lat="43.308180" lon="-3.380356">
        <ele>444.624</ele>
        <time>2016-04-12T10:26:04Z</time>
      </trkpt>
      <trkpt lat="43.308311" lon="-3.381382">
        <ele>430.208</ele>
        <time>2016-04-12T10:26:15Z</time>
      </trkpt>
      <trkpt lat="43.309664" lon="-3.385024">
        <ele>403.070</ele>
        <time>2016-04-12T10:26:51Z</time>
      </trkpt>
      <trkpt lat="43.309092" lon="-3.389067">
        <ele>365.642</ele>
        <time>2016-04-12T10:27:41Z</time>
      </trkpt>
      <trkpt lat="43.308137" lon="-3.387818">
        <ele>349.872</ele>
        <time>2016-04-12T10:28:19Z</time>
      </trkpt>
      <trkpt lat="43.308686" lon="-3.389676">
        <ele>346.061</ele>
        <time>2016-04-12T10:28:45Z</time>
      </trkpt>
      <trkpt lat="43.310079" lon="-3.390262">
        <ele>348.699</ele>
        <time>2016-04-12T10:29:10Z</time>
      </trkpt>
      <trkpt lat="43.312709" lon="-3.391972">
        <ele>330.439</ele>
        <time>2016-04-12T10:29:45Z</time>
      </trkpt>
      <trkpt lat="43.313865" lon="-3.394663">
        <ele>281.812</ele>
        <time>2016-04-12T10:30:13Z</time>
      </trkpt>
      <trkpt lat="43.314284" lon="-3.396584">
        <ele>247.256</ele>
        <time>2016-04-12T10:30:32Z</time>
      </trkpt>
      <trkpt lat="43.313743" lon="-3.397809">
        <ele>224.679</ele>
        <time>2016-04-12T10:30:54Z</time>
      </trkpt>
      <trkpt lat="43.313548" lon="-3.397519">
        <ele>217.405</ele>
        <time>2016-04-12T10:31:17Z</time>
      </trkpt>
      <trkpt lat="43.312862" lon="-3.397488">
        <ele>210.425</ele>
        <time>2016-04-12T10:31:57Z</time>
      </trkpt>
      <trkpt lat="43.312128" lon="-3.399572">
        <ele>173.208</ele>
        <time>2016-04-12T10:33:27Z</time>
      </trkpt>
      <trkpt lat="43.311705" lon="-3.399678">
        <ele>165.498</ele>
        <time>2016-04-12T10:33:45Z</time>
      </trkpt>
      <trkpt lat="43.311939" lon="-3.400321">
        <ele>156.650</ele>
        <time>2016-04-12T10:34:04Z</time>
      </trkpt>
      <trkpt lat="43.311116" lon="-3.400450">
        <ele>144.010</ele>
        <time>2016-04-12T10:34:43Z</time>
      </trkpt>
      <trkpt lat="43.310206" lon="-3.401398">
        <ele>121.269</ele>
        <time>2016-04-12T10:35:24Z</time>
      </trkpt>
      <trkpt lat="43.310345" lon="-3.401816">
        <ele>115.447</ele>
        <time>2016-04-12T10:35:36Z</time>
      </trkpt>
      <trkpt lat="43.311287" lon="-3.402751">
        <ele>95.017</ele>
        <time>2016-04-12T10:36:28Z</time>
      </trkpt>
      <trkpt lat="43.312440" lon="-3.403434">
        <ele>79.060</ele>
        <time>2016-04-12T10:37:25Z</time>
      </trkpt>
      <trkpt lat="43.312011" lon="-3.404268">
        <ele>64.684</ele>
        <time>2016-04-12T10:37:54Z</time>
      </trkpt>
      <trkpt lat="43.312084" lon="-3.405402">
        <ele>58.696</ele>
        <time>2016-04-12T10:38:34Z</time>
      </trkpt>
      <trkpt lat="43.311881" lon="-3.405889">
        <ele>62.431</ele>
        <time>2016-04-12T11:01:31Z</time>
      </trkpt>
      <trkpt lat="43.310891" lon="-3.405430">
        <ele>62.224</ele>
        <time>2016-04-12T11:03:16Z</time>
      </trkpt>
      <trkpt lat="43.309058" lon="-3.406000">
        <ele>67.008</ele>
        <time>2016-04-12T11:05:22Z</time>
      </trkpt>
      <trkpt lat="43.308439" lon="-3.405375">
        <ele>67.420</ele>
        <time>2016-04-12T11:06:13Z</time>
      </trkpt>
      <trkpt lat="43.307581" lon="-3.405460">
        <ele>70.422</ele>
        <time>2016-04-12T11:07:12Z</time>
      </trkpt>
      <trkpt lat="43.307014" lon="-3.404883">
        <ele>72.892</ele>
        <time>2016-04-12T11:07:57Z</time>
      </trkpt>
      <trkpt lat="43.306387" lon="-3.403168">
        <ele>77.081</ele>
        <time>2016-04-12T11:09:27Z</time>
      </trkpt>
      <trkpt lat="43.305618" lon="-3.401887">
        <ele>78.249</ele>
        <time>2016-04-12T11:10:49Z</time>
      </trkpt>
      <trkpt lat="43.304689" lon="-3.400891">
        <ele>79.629</ele>
        <time>2016-04-12T11:12:09Z</time>
      </trkpt>
      <trkpt lat="43.304265" lon="-3.401846">
        <ele>79.612</ele>
        <time>2016-04-12T11:13:06Z</time>
      </trkpt>
      <trkpt lat="43.304921" lon="-3.403440">
        <ele>80.096</ele>
        <time>2016-04-12T11:14:36Z</time>
      </trkpt>
      <trkpt lat="43.305172" lon="-3.406451">
        <ele>101.677</ele>
        <time>2016-04-12T11:17:13Z</time>
      </trkpt>
      <trkpt lat="43.306411" lon="-3.407755">
        <ele>108.861</ele>
        <time>2016-04-12T11:18:58Z</time>
      </trkpt>
      <trkpt lat="43.306531" lon="-3.408737">
        <ele>117.227</ele>
        <time>2016-04-12T11:19:52Z</time>
      </trkpt>
      <trkpt lat="43.307379" lon="-3.409464">
        <ele>120.008</ele>
        <time>2016-04-12T11:20:57Z</time>
      </trkpt>
      <trkpt lat="43.308946" lon="-3.410091">
        <ele>120.898</ele>
        <time>2016-04-12T11:22:41Z</time>
      </trkpt>
      <trkpt lat="43.309200" lon="-3.411262">
        <ele>112.260</ele>
        <time>2016-04-12T11:23:39Z</time>
      </trkpt>
      <trkpt lat="43.310460" lon="-3.412167">
        <ele>109.470</ele>
        <time>2016-04-12T11:25:10Z</time>
      </trkpt>
      <trkpt lat="43.310944" lon="-3.414462">
        <ele>109.869</ele>
        <time>2016-04-12T11:27:05Z</time>
      </trkpt>
      <trkpt lat="43.311627" lon="-3.415919">
        <ele>115.887</ele>
        <time>2016-04-12T11:28:30Z</time>
      </trkpt>
      <trkpt lat="43.311971" lon="-3.417254">
        <ele>114.427</ele>
        <time>2016-04-12T11:29:37Z</time>
      </trkpt>
      <trkpt lat="43.311757" lon="-3.417770">
        <ele>110.070</ele>
        <time>2016-04-12T11:30:03Z</time>
      </trkpt>
      <trkpt lat="43.310870" lon="-3.417416">
        <ele>112.264</ele>
        <time>2016-04-12T11:31:03Z</time>
      </trkpt>
      <trkpt lat="43.310506" lon="-3.416530">
        <ele>109.862</ele>
        <time>2016-04-12T11:31:54Z</time>
      </trkpt>
      <trkpt lat="43.308016" lon="-3.415147">
        <ele>104.683</ele>
        <time>2016-04-12T11:34:50Z</time>
      </trkpt>
      <trkpt lat="43.307788" lon="-3.415685">
        <ele>101.611</ele>
        <time>2016-04-12T11:35:21Z</time>
      </trkpt>
      <trkpt lat="43.307090" lon="-3.416226">
        <ele>94.408</ele>
        <time>2016-04-12T11:36:11Z</time>
      </trkpt>
      <trkpt lat="43.306361" lon="-3.418252">
        <ele>75.857</ele>
        <time>2016-04-12T11:37:53Z</time>
      </trkpt>
      <trkpt lat="43.305854" lon="-3.417744">
        <ele>84.249</ele>
        <time>2016-04-12T11:38:37Z</time>
      </trkpt>
      <trkpt lat="43.305033" lon="-3.417740">
        <ele>90.649</ele>
        <time>2016-04-12T11:39:29Z</time>
      </trkpt>
      <trkpt lat="43.303486" lon="-3.418403">
        <ele>98.438</ele>
        <time>2016-04-12T11:41:12Z</time>
      </trkpt>
      <trkpt lat="43.302030" lon="-3.417982">
        <ele>86.036</ele>
        <time>2016-04-12T11:42:46Z</time>
      </trkpt>
      <trkpt lat="43.300014" lon="-3.418196">
        <ele>73.446</ele>
        <time>2016-04-12T11:45:09Z</time>
      </trkpt>
      <trkpt lat="43.298291" lon="-3.419391">
        <ele>61.029</ele>
        <time>2016-04-12T11:47:53Z</time>
      </trkpt>
      <trkpt lat="43.298454" lon="-3.419853">
        <ele>62.463</ele>
        <time>2016-04-12T11:48:27Z</time>
      </trkpt>
      <trkpt lat="43.297377" lon="-3.422412">
        <ele>69.663</ele>
        <time>2016-04-12T11:51:11Z</time>
      </trkpt>
      <trkpt lat="43.296424" lon="-3.423353">
        <ele>71.644</ele>
        <time>2016-04-12T11:52:25Z</time>
      </trkpt>
      <trkpt lat="43.296136" lon="-3.424255">
        <ele>74.218</ele>
        <time>2016-04-12T11:53:09Z</time>
      </trkpt>
      <trkpt lat="43.297003" lon="-3.426145">
        <ele>85.808</ele>
        <time>2016-04-12T11:54:56Z</time>
      </trkpt>
      <trkpt lat="43.297415" lon="-3.426389">
        <ele>88.447</ele>
        <time>2016-04-12T11:55:30Z</time>
      </trkpt>
      <trkpt lat="43.297652" lon="-3.427159">
        <ele>87.249</ele>
        <time>2016-04-12T11:56:10Z</time>
      </trkpt>
      <trkpt lat="43.298252" lon="-3.428039">
        <ele>82.069</ele>
        <time>2016-04-12T11:57:04Z</time>
      </trkpt>
      <trkpt lat="43.298743" lon="-3.429722">
        <ele>78.648</ele>
        <time>2016-04-12T11:58:31Z</time>
      </trkpt>
      <trkpt lat="43.298769" lon="-3.429808">
        <ele>79.881</ele>
        <time>2016-04-12T12:09:46Z</time>
      </trkpt>
      <trkpt lat="43.299381" lon="-3.431973">
        <ele>40.461</ele>
        <time>2015-06-09T08:55:11Z</time>
      </trkpt>
      <trkpt lat="43.298630" lon="-3.432452">
        <ele>45.017</ele>
        <time>2015-06-09T08:55:36Z</time>
      </trkpt>
      <trkpt lat="43.296455" lon="-3.433299">
        <ele>41.208</ele>
        <time>2015-06-09T08:56:17Z</time>
      </trkpt>
      <trkpt lat="43.296627" lon="-3.433600">
        <ele>38.049</ele>
        <time>2015-06-09T08:56:18Z</time>
      </trkpt>
      <trkpt lat="43.297565" lon="-3.434223">
        <ele>26.671</ele>
        <time>2015-06-09T08:56:37Z</time>
      </trkpt>
      <trkpt lat="43.296371" lon="-3.434600">
        <ele>18.411</ele>
        <time>2015-06-09T08:56:57Z</time>
      </trkpt>
      <trkpt lat="43.295273" lon="-3.434639">
        <ele>14.260</ele>
        <time>2015-06-09T08:57:09Z</time>
      </trkpt>
      <trkpt lat="43.293583" lon="-3.435646">
        <ele>6.298</ele>
        <time>2015-06-09T08:57:28Z</time>
      </trkpt>
      <trkpt lat="43.293022" lon="-3.436367">
        <ele>1.010</ele>
        <time>2015-06-09T08:57:35Z</time>
      </trkpt>
      <trkpt lat="43.292698" lon="-3.437129">
        <ele>-8.682</ele>
        <time>2015-06-09T08:57:43Z</time>
      </trkpt>
      <trkpt lat="43.292210" lon="-3.437106">
        <ele>-9.873</ele>
        <time>2015-06-09T08:57:47Z</time>
      </trkpt>
      <trkpt lat="43.291382" lon="-3.437867">
        <ele>-9.293</ele>
        <time>2015-06-09T08:58:09Z</time>
      </trkpt>
      <trkpt lat="43.290771" lon="-3.438675">
        <ele>-6.665</ele>
        <time>2015-06-09T08:58:24Z</time>
      </trkpt>
      <trkpt lat="43.290184" lon="-3.438973">
        <ele>-5.821</ele>
        <time>2015-06-09T08:58:35Z</time>
      </trkpt>
      <trkpt lat="43.289581" lon="-3.438965">
        <ele>-7.008</ele>
        <time>2015-06-09T08:58:44Z</time>
      </trkpt>
      <trkpt lat="43.288368" lon="-3.438286">
        <ele>-6.080</ele>
        <time>2015-06-09T08:59:03Z</time>
      </trkpt>
      <trkpt lat="43.288074" lon="-3.437784">
        <ele>-6.882</ele>
        <time>2015-06-09T08:59:10Z</time>
      </trkpt>
      <trkpt lat="43.287838" lon="-3.436857">
        <ele>-8.872</ele>
        <time>2015-06-09T08:59:19Z</time>
      </trkpt>
      <trkpt lat="43.287022" lon="-3.435416">
        <ele>-9.491</ele>
        <time>2015-06-09T08:59:38Z</time>
      </trkpt>
      <trkpt lat="43.286339" lon="-3.434887">
        <ele>-8.869</ele>
        <time>2015-06-09T08:59:50Z</time>
      </trkpt>
      <trkpt lat="43.284286" lon="-3.434186">
        <ele>-5.841</ele>
        <time>2015-06-09T09:00:29Z</time>
      </trkpt>
      <trkpt lat="43.283527" lon="-3.434208">
        <ele>-6.493</ele>
        <time>2015-06-09T09:00:41Z</time>
      </trkpt>
      <trkpt lat="43.282452" lon="-3.434701">
        <ele>-6.274</ele>
        <time>2015-06-09T09:00:58Z</time>
      </trkpt>
      <trkpt lat="43.282242" lon="-3.435114">
        <ele>-6.089</ele>
        <time>2015-06-09T09:01:04Z</time>
      </trkpt>
      <trkpt lat="43.282127" lon="-3.436281">
        <ele>-5.606</ele>
        <time>2015-06-09T09:01:18Z</time>
      </trkpt>
      <trkpt lat="43.282501" lon="-3.437431">
        <ele>-5.026</ele>
        <time>2015-06-09T09:01:34Z</time>
      </trkpt>
      <trkpt lat="43.282551" lon="-3.438728">
        <ele>-5.808</ele>
        <time>2015-06-09T09:01:54Z</time>
      </trkpt>
      <trkpt lat="43.282986" lon="-3.438934">
        <ele>-4.499</ele>
        <time>2015-06-09T09:02:04Z</time>
      </trkpt>
      <trkpt lat="43.284737" lon="-3.438161">
        <ele>-1.631</ele>
        <time>2015-06-09T09:02:38Z</time>
      </trkpt>
      <trkpt lat="43.285198" lon="-3.438390">
        <ele>2.021</ele>
        <time>2015-06-09T09:02:47Z</time>
      </trkpt>
      <trkpt lat="43.285660" lon="-3.438371">
        <ele>6.660</ele>
        <time>2015-06-09T09:03:10Z</time>
      </trkpt>
      <trkpt lat="43.285870" lon="-3.438586">
        <ele>8.888</ele>
        <time>2015-06-09T09:03:21Z</time>
      </trkpt>
      <trkpt lat="43.285461" lon="-3.438825">
        <ele>13.830</ele>
        <time>2015-06-09T09:03:44Z</time>
      </trkpt>
      <trkpt lat="43.285355" lon="-3.439227">
        <ele>14.432</ele>
        <time>2015-06-09T09:03:53Z</time>
      </trkpt>
      <trkpt lat="43.284653" lon="-3.440333">
        <ele>8.633</ele>
        <time>2015-06-09T09:04:16Z</time>
      </trkpt>
      <trkpt lat="43.284611" lon="-3.440984">
        <ele>5.859</ele>
        <time>2015-06-09T09:04:23Z</time>
      </trkpt>
      <trkpt lat="43.285080" lon="-3.442435">
        <ele>0.203</ele>
        <time>2015-06-09T09:04:40Z</time>
      </trkpt>
      <trkpt lat="43.285221" lon="-3.443476">
        <ele>-4.823</ele>
        <time>2015-06-09T09:04:53Z</time>
      </trkpt>
      <trkpt lat="43.285118" lon="-3.444434">
        <ele>5.408</ele>
        <time>2015-06-09T09:05:28Z</time>
      </trkpt>
      <trkpt lat="43.284935" lon="-3.444795">
        <ele>6.456</ele>
        <time>2015-06-09T09:05:50Z</time>
      </trkpt>
      <trkpt lat="43.284546" lon="-3.445232">
        <ele>6.238</ele>
        <time>2015-06-09T09:06:11Z</time>
      </trkpt>
      <trkpt lat="43.281326" lon="-3.446634">
        <ele>37.258</ele>
        <time>2015-06-09T09:09:46Z</time>
      </trkpt>
      <trkpt lat="43.280739" lon="-3.447276">
        <ele>36.447</ele>
        <time>2015-06-09T09:10:28Z</time>
      </trkpt>
      <trkpt lat="43.280483" lon="-3.447912">
        <ele>32.265</ele>
        <time>2015-06-09T09:10:43Z</time>
      </trkpt>
      <trkpt lat="43.278893" lon="-3.450410">
        <ele>33.427</ele>
        <time>2015-06-09T09:12:42Z</time>
      </trkpt>
      <trkpt lat="43.277821" lon="-3.450993">
        <ele>20.689</ele>
        <time>2015-06-09T09:12:58Z</time>
      </trkpt>
      <trkpt lat="43.277393" lon="-3.451437">
        <ele>13.030</ele>
        <time>2015-06-09T09:13:05Z</time>
      </trkpt>
      <trkpt lat="43.276478" lon="-3.451699">
        <ele>3.032</ele>
        <time>2015-06-09T09:13:20Z</time>
      </trkpt>
      <trkpt lat="43.275738" lon="-3.452739">
        <ele>6.492</ele>
        <time>2015-06-09T09:13:41Z</time>
      </trkpt>
      <trkpt lat="43.275158" lon="-3.453232">
        <ele>3.811</ele>
        <time>2015-06-09T09:13:51Z</time>
      </trkpt>
      <trkpt lat="43.274471" lon="-3.453549">
        <ele>6.408</ele>
        <time>2015-06-09T09:14:01Z</time>
      </trkpt>
      <trkpt lat="43.273113" lon="-3.453744">
        <ele>17.494</ele>
        <time>2015-06-09T09:15:04Z</time>
      </trkpt>
      <trkpt lat="43.272079" lon="-3.453004">
        <ele>10.876</ele>
        <time>2015-06-09T09:15:24Z</time>
      </trkpt>
      <trkpt lat="43.270344" lon="-3.452699">
        <ele>8.236</ele>
        <time>2015-06-09T09:15:52Z</time>
      </trkpt>
      <trkpt lat="43.269798" lon="-3.453004">
        <ele>8.275</ele>
        <time>2015-06-09T09:16:01Z</time>
      </trkpt>
      <trkpt lat="43.268669" lon="-3.454211">
        <ele>8.453</ele>
        <time>2015-06-09T09:16:22Z</time>
      </trkpt>
      <trkpt lat="43.267895" lon="-3.454324">
        <ele>7.485</ele>
        <time>2015-06-09T09:16:34Z</time>
      </trkpt>
      <trkpt lat="43.266781" lon="-3.455392">
        <ele>8.057</ele>
        <time>2015-06-09T09:16:57Z</time>
      </trkpt>
      <trkpt lat="43.264282" lon="-3.458784">
        <ele>10.238</ele>
        <time>2015-06-09T09:17:59Z</time>
      </trkpt>
      <trkpt lat="43.264004" lon="-3.460149">
        <ele>9.478</ele>
        <time>2015-06-09T09:18:17Z</time>
      </trkpt>
      <trkpt lat="43.264137" lon="-3.461423">
        <ele>12.233</ele>
        <time>2015-06-09T09:18:39Z</time>
      </trkpt>
      <trkpt lat="43.263206" lon="-3.461416">
        <ele>12.026</ele>
        <time>2015-06-09T09:18:59Z</time>
      </trkpt>
      <trkpt lat="43.262753" lon="-3.463708">
        <ele>12.808</ele>
        <time>2015-06-09T09:19:30Z</time>
      </trkpt>
      <trkpt lat="43.262222" lon="-3.465202">
        <ele>14.098</ele>
        <time>2015-06-09T09:19:52Z</time>
      </trkpt>
      <trkpt lat="43.261787" lon="-3.466266">
        <ele>14.670</ele>
        <time>2015-06-09T09:20:09Z</time>
      </trkpt>
      <trkpt lat="43.261589" lon="-3.466246">
        <ele>15.650</ele>
        <time>2015-06-09T09:20:15Z</time>
      </trkpt>
      <trkpt lat="43.261078" lon="-3.466738">
        <ele>16.839</ele>
        <time>2015-06-09T09:20:33Z</time>
      </trkpt>
      <trkpt lat="43.261360" lon="-3.470289">
        <ele>16.897</ele>
        <time>2015-06-09T09:22:02Z</time>
      </trkpt>
      <trkpt lat="43.260406" lon="-3.470447">
        <ele>15.679</ele>
        <time>2015-06-09T09:22:19Z</time>
      </trkpt>
      <trkpt lat="43.260082" lon="-3.470362">
        <ele>16.851</ele>
        <time>2015-06-09T09:22:25Z</time>
      </trkpt>
      <trkpt lat="43.259899" lon="-3.471051">
        <ele>16.422</ele>
        <time>2015-06-09T09:22:35Z</time>
      </trkpt>
      <trkpt lat="43.259212" lon="-3.471053">
        <ele>16.259</ele>
        <time>2015-06-09T09:22:46Z</time>
      </trkpt>
      <trkpt lat="43.258259" lon="-3.470726">
        <ele>17.603</ele>
        <time>2015-06-09T09:23:03Z</time>
      </trkpt>
      <trkpt lat="43.257813" lon="-3.470350">
        <ele>17.623</ele>
        <time>2015-06-09T09:23:06Z</time>
      </trkpt>
      <trkpt lat="43.257599" lon="-3.469377">
        <ele>17.008</ele>
        <time>2015-06-09T09:23:26Z</time>
      </trkpt>
      <trkpt lat="43.257408" lon="-3.469261">
        <ele>15.826</ele>
        <time>2015-06-09T09:23:31Z</time>
      </trkpt>
      <trkpt lat="43.256588" lon="-3.470392">
        <ele>17.298</ele>
        <time>2015-06-09T09:23:52Z</time>
      </trkpt>
      <trkpt lat="43.256153" lon="-3.471420">
        <ele>16.858</ele>
        <time>2015-06-09T09:24:06Z</time>
      </trkpt>
      <trkpt lat="43.255733" lon="-3.474726">
        <ele>18.887</ele>
        <time>2015-06-09T09:24:45Z</time>
      </trkpt>
      <trkpt lat="43.255787" lon="-3.476151">
        <ele>19.425</ele>
        <time>2015-06-09T09:25:03Z</time>
      </trkpt>
      <trkpt lat="43.256405" lon="-3.476517">
        <ele>20.067</ele>
        <time>2015-06-09T09:25:15Z</time>
      </trkpt>
      <trkpt lat="43.256836" lon="-3.477782">
        <ele>21.089</ele>
        <time>2015-06-09T09:25:33Z</time>
      </trkpt>
      <trkpt lat="43.257935" lon="-3.479396">
        <ele>21.030</ele>
        <time>2015-06-09T09:26:00Z</time>
      </trkpt>
      <trkpt lat="43.258038" lon="-3.480225">
        <ele>25.022</ele>
        <time>2015-06-09T09:26:15Z</time>
      </trkpt>
      <trkpt lat="43.258652" lon="-3.481106">
        <ele>25.462</ele>
        <time>2015-06-09T09:26:34Z</time>
      </trkpt>
      <trkpt lat="43.259132" lon="-3.482333">
        <ele>23.408</ele>
        <time>2015-06-09T09:26:49Z</time>
      </trkpt>
      <trkpt lat="43.259758" lon="-3.483391">
        <ele>24.408</ele>
        <time>2015-06-09T09:27:06Z</time>
      </trkpt>
      <trkpt lat="43.260040" lon="-3.483631">
        <ele>23.613</ele>
        <time>2015-06-09T09:27:11Z</time>
      </trkpt>
      <trkpt lat="43.260559" lon="-3.483691">
        <ele>22.445</ele>
        <time>2015-06-09T09:27:18Z</time>
      </trkpt>
      <trkpt lat="43.261223" lon="-3.484113">
        <ele>21.445</ele>
        <time>2015-06-09T09:27:28Z</time>
      </trkpt>
      <trkpt lat="43.262890" lon="-3.484393">
        <ele>23.434</ele>
        <time>2015-06-09T09:27:58Z</time>
      </trkpt>
      <trkpt lat="43.263512" lon="-3.484245">
        <ele>24.092</ele>
        <time>2015-06-09T09:28:05Z</time>
      </trkpt>
      <trkpt lat="43.264130" lon="-3.484916">
        <ele>25.824</ele>
        <time>2015-06-09T09:29:26Z</time>
      </trkpt>
      <trkpt lat="43.264832" lon="-3.485154">
        <ele>26.486</ele>
        <time>2015-06-09T09:29:49Z</time>
      </trkpt>
      <trkpt lat="43.265316" lon="-3.485023">
        <ele>25.617</ele>
        <time>2015-06-09T09:29:59Z</time>
      </trkpt>
      <trkpt lat="43.266495" lon="-3.486750">
        <ele>26.891</ele>
        <time>2015-06-09T09:30:29Z</time>
      </trkpt>
      <trkpt lat="43.266006" lon="-3.487552">
        <ele>30.681</ele>
        <time>2015-06-09T09:30:49Z</time>
      </trkpt>
      <trkpt lat="43.266163" lon="-3.488067">
        <ele>39.619</ele>
        <time>2015-06-09T09:31:15Z</time>
      </trkpt>
      <trkpt lat="43.265873" lon="-3.488485">
        <ele>45.008</ele>
        <time>2015-06-09T09:31:40Z</time>
      </trkpt>
      <trkpt lat="43.266273" lon="-3.489785">
        <ele>52.030</ele>
        <time>2015-06-09T09:32:27Z</time>
      </trkpt>
      <trkpt lat="43.266205" lon="-3.490736">
        <ele>59.292</ele>
        <time>2015-06-09T09:32:59Z</time>
      </trkpt>
      <trkpt lat="43.265842" lon="-3.491861">
        <ele>51.852</ele>
        <time>2015-06-09T09:33:08Z</time>
      </trkpt>
      <trkpt lat="43.265919" lon="-3.492349">
        <ele>48.021</ele>
        <time>2015-06-09T09:33:17Z</time>
      </trkpt>
      <trkpt lat="43.266335" lon="-3.493165">
        <ele>43.469</ele>
        <time>2015-06-09T09:33:28Z</time>
      </trkpt>
      <trkpt lat="43.266899" lon="-3.493459">
        <ele>39.081</ele>
        <time>2015-06-09T09:33:37Z</time>
      </trkpt>
      <trkpt lat="43.267059" lon="-3.495805">
        <ele>46.843</ele>
        <time>2015-06-09T09:34:37Z</time>
      </trkpt>
      <trkpt lat="43.267300" lon="-3.496949">
        <ele>49.444</ele>
        <time>2015-06-09T09:34:56Z</time>
      </trkpt>
      <trkpt lat="43.267517" lon="-3.497288">
        <ele>50.071</ele>
        <time>2015-06-09T09:35:05Z</time>
      </trkpt>
      <trkpt lat="43.267708" lon="-3.498997">
        <ele>55.241</ele>
        <time>2015-06-09T09:36:41Z</time>
      </trkpt>
      <trkpt lat="43.267921" lon="-3.499015">
        <ele>53.815</ele>
        <time>2015-06-09T09:37:14Z</time>
      </trkpt>
      <trkpt lat="43.267925" lon="-3.499537">
        <ele>47.808</ele>
        <time>2015-06-09T09:37:54Z</time>
      </trkpt>
      <trkpt lat="43.268482" lon="-3.501364">
        <ele>36.418</ele>
        <time>2015-06-09T09:40:14Z</time>
      </trkpt>
      <trkpt lat="43.269325" lon="-3.503548">
        <ele>36.230</ele>
        <time>2015-06-09T09:41:45Z</time>
      </trkpt>
      <trkpt lat="43.269466" lon="-3.504549">
        <ele>44.010</ele>
        <time>2015-06-09T09:44:27Z</time>
      </trkpt>
      <trkpt lat="43.269917" lon="-3.506053">
        <ele>42.849</ele>
        <time>2015-06-09T09:45:19Z</time>
      </trkpt>
      <trkpt lat="43.270008" lon="-3.507612">
        <ele>44.447</ele>
        <time>2015-06-09T09:46:12Z</time>
      </trkpt>
      <trkpt lat="43.271862" lon="-3.512357">
        <ele>40.449</ele>
        <time>2015-06-09T09:47:48Z</time>
      </trkpt>
      <trkpt lat="43.272221" lon="-3.514966">
        <ele>43.091</ele>
        <time>2015-06-09T09:48:37Z</time>
      </trkpt>
      <trkpt lat="43.272655" lon="-3.516469">
        <ele>46.242</ele>
        <time>2015-06-09T09:49:13Z</time>
      </trkpt>
      <trkpt lat="43.272457" lon="-3.518045">
        <ele>44.252</ele>
        <time>2015-06-09T09:49:34Z</time>
      </trkpt>
      <trkpt lat="43.272717" lon="-3.520815">
        <ele>45.053</ele>
        <time>2015-06-09T09:50:13Z</time>
      </trkpt>
      <trkpt lat="43.273117" lon="-3.522149">
        <ele>44.808</ele>
        <time>2015-06-09T09:50:33Z</time>
      </trkpt>
      <trkpt lat="43.273632" lon="-3.523274">
        <ele>46.008</ele>
        <time>2015-06-09T09:50:51Z</time>
      </trkpt>
      <trkpt lat="43.274544" lon="-3.524469">
        <ele>46.846</ele>
        <time>2015-06-09T09:51:12Z</time>
      </trkpt>
      <trkpt lat="43.276379" lon="-3.525406">
        <ele>49.218</ele>
        <time>2015-06-09T09:51:58Z</time>
      </trkpt>
      <trkpt lat="43.277790" lon="-3.525880">
        <ele>49.428</ele>
        <time>2015-06-09T09:52:29Z</time>
      </trkpt>
      <trkpt lat="43.277889" lon="-3.525827">
        <ele>50.247</ele>
        <time>2015-06-09T09:52:33Z</time>
      </trkpt>
      <trkpt lat="43.277809" lon="-3.525188">
        <ele>51.635</ele>
        <time>2015-06-09T09:52:46Z</time>
      </trkpt>
      <trkpt lat="43.277962" lon="-3.524949">
        <ele>51.467</ele>
        <time>2015-06-09T09:52:51Z</time>
      </trkpt>
      <trkpt lat="43.278564" lon="-3.524624">
        <ele>49.659</ele>
        <time>2015-06-09T09:53:01Z</time>
      </trkpt>
      <trkpt lat="43.278889" lon="-3.524226">
        <ele>50.050</ele>
        <time>2015-06-09T09:53:09Z</time>
      </trkpt>
      <trkpt lat="43.280079" lon="-3.523794">
        <ele>53.853</ele>
        <time>2015-06-09T09:55:11Z</time>
      </trkpt>
      <trkpt lat="43.280270" lon="-3.523347">
        <ele>56.004</ele>
        <time>2015-06-09T09:55:26Z</time>
      </trkpt>
      <trkpt lat="43.280663" lon="-3.523104">
        <ele>60.014</ele>
        <time>2015-06-09T09:55:40Z</time>
      </trkpt>
      <trkpt lat="43.281075" lon="-3.523216">
        <ele>64.608</ele>
        <time>2015-06-09T09:55:56Z</time>
      </trkpt>
      <trkpt lat="43.281376" lon="-3.523671">
        <ele>63.836</ele>
        <time>2015-06-09T09:56:07Z</time>
      </trkpt>
      <trkpt lat="43.281765" lon="-3.523855">
        <ele>60.868</ele>
        <time>2015-06-09T09:56:13Z</time>
      </trkpt>
      <trkpt lat="43.282116" lon="-3.523706">
        <ele>56.418</ele>
        <time>2015-06-09T09:56:14Z</time>
      </trkpt>
      <trkpt lat="43.282333" lon="-3.523288">
        <ele>61.047</ele>
        <time>2015-06-09T09:56:56Z</time>
      </trkpt>
      <trkpt lat="43.283649" lon="-3.524387">
        <ele>64.415</ele>
        <time>2015-06-09T09:57:44Z</time>
      </trkpt>
      <trkpt lat="43.284096" lon="-3.525458">
        <ele>62.837</ele>
        <time>2015-06-09T09:58:02Z</time>
      </trkpt>
      <trkpt lat="43.284603" lon="-3.526122">
        <ele>59.469</ele>
        <time>2015-06-09T09:58:12Z</time>
      </trkpt>
      <trkpt lat="43.285046" lon="-3.527245">
        <ele>61.870</ele>
        <time>2015-06-09T09:58:30Z</time>
      </trkpt>
      <trkpt lat="43.285969" lon="-3.532162">
        <ele>60.644</ele>
        <time>2015-06-09T09:59:31Z</time>
      </trkpt>
      <trkpt lat="43.285942" lon="-3.532756">
        <ele>62.805</ele>
        <time>2015-06-09T09:59:42Z</time>
      </trkpt>
      <trkpt lat="43.286415" lon="-3.533540">
        <ele>66.615</ele>
        <time>2015-06-09T10:00:02Z</time>
      </trkpt>
      <trkpt lat="43.286839" lon="-3.534808">
        <ele>67.608</ele>
        <time>2015-06-09T10:00:27Z</time>
      </trkpt>
      <trkpt lat="43.287357" lon="-3.537936">
        <ele>71.485</ele>
        <time>2015-06-09T10:01:14Z</time>
      </trkpt>
      <trkpt lat="43.287430" lon="-3.539286">
        <ele>77.887</ele>
        <time>2015-06-09T10:01:45Z</time>
      </trkpt>
      <trkpt lat="43.287323" lon="-3.539509">
        <ele>79.047</ele>
        <time>2015-06-09T10:01:47Z</time>
      </trkpt>
      <trkpt lat="43.286892" lon="-3.539846">
        <ele>81.616</ele>
        <time>2015-06-09T10:02:10Z</time>
      </trkpt>
      <trkpt lat="43.285656" lon="-3.539978">
        <ele>83.224</ele>
        <time>2015-06-09T10:02:44Z</time>
      </trkpt>
      <trkpt lat="43.285530" lon="-3.540172">
        <ele>82.636</ele>
        <time>2015-06-09T10:02:48Z</time>
      </trkpt>
      <trkpt lat="43.285046" lon="-3.542216">
        <ele>81.268</ele>
        <time>2015-06-09T10:03:12Z</time>
      </trkpt>
      <trkpt lat="43.284508" lon="-3.543304">
        <ele>78.629</ele>
        <time>2015-06-09T10:03:25Z</time>
      </trkpt>
      <trkpt lat="43.284374" lon="-3.544370">
        <ele>76.273</ele>
        <time>2015-06-09T10:03:35Z</time>
      </trkpt>
      <trkpt lat="43.284538" lon="-3.548620">
        <ele>70.085</ele>
        <time>2015-06-09T10:04:12Z</time>
      </trkpt>
      <trkpt lat="43.284992" lon="-3.549476">
        <ele>70.613</ele>
        <time>2015-06-09T10:04:18Z</time>
      </trkpt>
      <trkpt lat="43.285721" lon="-3.550381">
        <ele>74.608</ele>
        <time>2015-06-09T10:04:44Z</time>
      </trkpt>
      <trkpt lat="43.285099" lon="-3.551350">
        <ele>71.048</ele>
        <time>2015-06-09T10:04:58Z</time>
      </trkpt>
      <trkpt lat="43.285599" lon="-3.552578">
        <ele>71.850</ele>
        <time>2015-06-09T10:05:14Z</time>
      </trkpt>
      <trkpt lat="43.285461" lon="-3.552946">
        <ele>72.680</ele>
        <time>2015-06-09T10:05:15Z</time>
      </trkpt>
      <trkpt lat="43.285152" lon="-3.553240">
        <ele>72.649</ele>
        <time>2015-06-09T10:05:26Z</time>
      </trkpt>
      <trkpt lat="43.284760" lon="-3.554380">
        <ele>71.497</ele>
        <time>2015-06-09T10:05:41Z</time>
      </trkpt>
      <trkpt lat="43.285397" lon="-3.558567">
        <ele>72.469</ele>
        <time>2015-06-09T10:06:32Z</time>
      </trkpt>
      <trkpt lat="43.285252" lon="-3.560488">
        <ele>76.881</ele>
        <time>2015-06-09T10:07:00Z</time>
      </trkpt>
      <trkpt lat="43.285080" lon="-3.560631">
        <ele>77.032</ele>
        <time>2015-06-09T10:07:05Z</time>
      </trkpt>
      <trkpt lat="43.284115" lon="-3.560681">
        <ele>76.498</ele>
        <time>2015-06-09T10:07:27Z</time>
      </trkpt>
      <trkpt lat="43.283997" lon="-3.561293">
        <ele>76.615</ele>
        <time>2015-06-09T10:27:31Z</time>
      </trkpt>
      <trkpt lat="43.283524" lon="-3.562022">
        <ele>77.026</ele>
        <time>2015-06-09T10:28:28Z</time>
      </trkpt>
      <trkpt lat="43.283581" lon="-3.562177">
        <ele>77.008</ele>
        <time>2015-06-09T10:29:10Z</time>
      </trkpt>
      <trkpt lat="43.283169" lon="-3.562073">
        <ele>79.420</ele>
        <time>2015-06-09T10:30:42Z</time>
      </trkpt>
      <trkpt lat="43.282974" lon="-3.561805">
        <ele>81.422</ele>
        <time>2015-06-09T10:30:51Z</time>
      </trkpt>
      <trkpt lat="43.282070" lon="-3.561991">
        <ele>85.222</ele>
        <time>2015-06-09T10:31:18Z</time>
      </trkpt>
      <trkpt lat="43.281494" lon="-3.561687">
        <ele>90.881</ele>
        <time>2015-06-09T10:31:38Z</time>
      </trkpt>
      <trkpt lat="43.281437" lon="-3.562196">
        <ele>90.259</ele>
        <time>2015-06-09T10:31:53Z</time>
      </trkpt>
      <trkpt lat="43.280807" lon="-3.562626">
        <ele>91.271</ele>
        <time>2015-06-09T10:34:34Z</time>
      </trkpt>
      <trkpt lat="43.280373" lon="-3.563455">
        <ele>94.413</ele>
        <time>2015-06-09T10:34:49Z</time>
      </trkpt>
      <trkpt lat="43.279713" lon="-3.563928">
        <ele>97.854</ele>
        <time>2015-06-09T10:34:56Z</time>
      </trkpt>
      <trkpt lat="43.279163" lon="-3.564007">
        <ele>102.666</ele>
        <time>2015-06-09T10:35:09Z</time>
      </trkpt>
      <trkpt lat="43.278633" lon="-3.564402">
        <ele>113.629</ele>
        <time>2015-06-09T10:35:21Z</time>
      </trkpt>
      <trkpt lat="43.277615" lon="-3.567374">
        <ele>130.621</ele>
        <time>2015-06-09T10:35:57Z</time>
      </trkpt>
      <trkpt lat="43.277237" lon="-3.567935">
        <ele>138.808</ele>
        <time>2015-06-09T10:36:08Z</time>
      </trkpt>
      <trkpt lat="43.276825" lon="-3.568130">
        <ele>145.037</ele>
        <time>2015-06-09T10:36:20Z</time>
      </trkpt>
      <trkpt lat="43.276436" lon="-3.568101">
        <ele>149.469</ele>
        <time>2015-06-09T10:36:30Z</time>
      </trkpt>
      <trkpt lat="43.276161" lon="-3.568318">
        <ele>155.469</ele>
        <time>2015-06-09T10:36:41Z</time>
      </trkpt>
      <trkpt lat="43.275589" lon="-3.568129">
        <ele>167.098</ele>
        <time>2015-06-09T10:36:52Z</time>
      </trkpt>
      <trkpt lat="43.275223" lon="-3.567806">
        <ele>179.866</ele>
        <time>2015-06-09T10:37:01Z</time>
      </trkpt>
      <trkpt lat="43.274319" lon="-3.568004">
        <ele>202.298</ele>
        <time>2015-06-09T10:37:18Z</time>
      </trkpt>
      <trkpt lat="43.274384" lon="-3.568487">
        <ele>207.460</ele>
        <time>2015-06-09T10:37:26Z</time>
      </trkpt>
      <trkpt lat="43.274258" lon="-3.568913">
        <ele>219.461</ele>
        <time>2015-06-09T10:37:37Z</time>
      </trkpt>
      <trkpt lat="43.274563" lon="-3.569826">
        <ele>231.871</ele>
        <time>2015-06-09T10:37:51Z</time>
      </trkpt>
      <trkpt lat="43.275017" lon="-3.570491">
        <ele>241.241</ele>
        <time>2015-06-09T10:38:01Z</time>
      </trkpt>
      <trkpt lat="43.274918" lon="-3.570756">
        <ele>244.815</ele>
        <time>2015-06-09T10:38:13Z</time>
      </trkpt>
      <trkpt lat="43.274471" lon="-3.570916">
        <ele>250.008</ele>
        <time>2015-06-09T10:38:24Z</time>
      </trkpt>
      <trkpt lat="43.273048" lon="-3.570444">
        <ele>273.018</ele>
        <time>2015-06-09T10:39:07Z</time>
      </trkpt>
      <trkpt lat="43.272499" lon="-3.570657">
        <ele>284.610</ele>
        <time>2015-06-09T10:39:26Z</time>
      </trkpt>
      <trkpt lat="43.271622" lon="-3.571637">
        <ele>297.010</ele>
        <time>2015-06-09T10:39:53Z</time>
      </trkpt>
      <trkpt lat="43.270943" lon="-3.571991">
        <ele>300.489</ele>
        <time>2015-06-09T10:40:00Z</time>
      </trkpt>
      <trkpt lat="43.270767" lon="-3.572367">
        <ele>303.487</ele>
        <time>2015-06-09T10:40:11Z</time>
      </trkpt>
      <trkpt lat="43.270741" lon="-3.573040">
        <ele>305.419</ele>
        <time>2015-06-09T10:40:18Z</time>
      </trkpt>
      <trkpt lat="43.269905" lon="-3.573827">
        <ele>305.661</ele>
        <time>2015-06-09T10:40:34Z</time>
      </trkpt>
      <trkpt lat="43.269806" lon="-3.574745">
        <ele>310.832</ele>
        <time>2015-06-09T10:40:47Z</time>
      </trkpt>
      <trkpt lat="43.268929" lon="-3.575985">
        <ele>316.434</ele>
        <time>2015-06-09T10:41:02Z</time>
      </trkpt>
      <trkpt lat="43.269142" lon="-3.576971">
        <ele>312.655</ele>
        <time>2015-06-09T10:41:21Z</time>
      </trkpt>
      <trkpt lat="43.269093" lon="-3.578104">
        <ele>303.210</ele>
        <time>2015-06-09T10:41:31Z</time>
      </trkpt>
      <trkpt lat="43.268845" lon="-3.578614">
        <ele>296.808</ele>
        <time>2015-06-09T10:41:47Z</time>
      </trkpt>
      <trkpt lat="43.268959" lon="-3.579288">
        <ele>299.274</ele>
        <time>2015-06-09T10:41:57Z</time>
      </trkpt>
      <trkpt lat="43.268597" lon="-3.580402">
        <ele>307.246</ele>
        <time>2015-06-09T10:42:15Z</time>
      </trkpt>
      <trkpt lat="43.268810" lon="-3.580885">
        <ele>307.066</ele>
        <time>2015-06-09T10:42:23Z</time>
      </trkpt>
      <trkpt lat="43.269199" lon="-3.581013">
        <ele>304.875</ele>
        <time>2015-06-09T10:42:30Z</time>
      </trkpt>
      <trkpt lat="43.269791" lon="-3.581740">
        <ele>311.053</ele>
        <time>2015-06-09T10:42:45Z</time>
      </trkpt>
      <trkpt lat="43.270103" lon="-3.581827">
        <ele>310.615</ele>
        <time>2015-06-09T10:42:51Z</time>
      </trkpt>
      <trkpt lat="43.270378" lon="-3.582110">
        <ele>306.627</ele>
        <time>2015-06-09T10:43:00Z</time>
      </trkpt>
      <trkpt lat="43.270531" lon="-3.582567">
        <ele>308.898</ele>
        <time>2015-06-09T10:43:08Z</time>
      </trkpt>
      <trkpt lat="43.270508" lon="-3.583544">
        <ele>320.282</ele>
        <time>2015-06-09T10:43:26Z</time>
      </trkpt>
      <trkpt lat="43.270344" lon="-3.583795">
        <ele>328.243</ele>
        <time>2015-06-09T10:43:29Z</time>
      </trkpt>
      <trkpt lat="43.269485" lon="-3.583953">
        <ele>338.017</ele>
        <time>2015-06-09T10:43:52Z</time>
      </trkpt>
      <trkpt lat="43.269005" lon="-3.584599">
        <ele>351.208</ele>
        <time>2015-06-09T10:44:06Z</time>
      </trkpt>
      <trkpt lat="43.268600" lon="-3.584473">
        <ele>361.029</ele>
        <time>2015-06-09T10:44:18Z</time>
      </trkpt>
      <trkpt lat="43.268097" lon="-3.584576">
        <ele>370.831</ele>
        <time>2015-06-09T10:44:29Z</time>
      </trkpt>
      <trkpt lat="43.267559" lon="-3.585061">
        <ele>379.831</ele>
        <time>2015-06-09T10:44:37Z</time>
      </trkpt>
      <trkpt lat="43.266983" lon="-3.587114">
        <ele>375.670</ele>
        <time>2015-06-09T10:46:42Z</time>
      </trkpt>
      <trkpt lat="43.267227" lon="-3.587970">
        <ele>367.218</ele>
        <time>2015-06-09T10:46:56Z</time>
      </trkpt>
      <trkpt lat="43.268185" lon="-3.589129">
        <ele>356.010</ele>
        <time>2015-06-09T10:47:16Z</time>
      </trkpt>
      <trkpt lat="43.268791" lon="-3.590139">
        <ele>343.242</ele>
        <time>2015-06-09T10:47:28Z</time>
      </trkpt>
      <trkpt lat="43.268806" lon="-3.590705">
        <ele>337.843</ele>
        <time>2015-06-09T10:47:29Z</time>
      </trkpt>
      <trkpt lat="43.268436" lon="-3.591779">
        <ele>328.495</ele>
        <time>2015-06-09T10:47:45Z</time>
      </trkpt>
      <trkpt lat="43.268452" lon="-3.592426">
        <ele>320.849</ele>
        <time>2015-06-09T10:47:52Z</time>
      </trkpt>
      <trkpt lat="43.267708" lon="-3.592229">
        <ele>307.423</ele>
        <time>2015-06-09T10:48:04Z</time>
      </trkpt>
      <trkpt lat="43.267246" lon="-3.592641">
        <ele>307.608</ele>
        <time>2015-06-09T10:48:15Z</time>
      </trkpt>
      <trkpt lat="43.266869" lon="-3.593933">
        <ele>302.890</ele>
        <time>2015-06-09T10:48:31Z</time>
      </trkpt>
      <trkpt lat="43.265926" lon="-3.595456">
        <ele>285.222</ele>
        <time>2015-06-09T10:48:49Z</time>
      </trkpt>
      <trkpt lat="43.265518" lon="-3.595846">
        <ele>276.892</ele>
        <time>2015-06-09T10:48:57Z</time>
      </trkpt>
      <trkpt lat="43.265972" lon="-3.595939">
        <ele>267.631</ele>
        <time>2015-06-09T10:49:09Z</time>
      </trkpt>
      <trkpt lat="43.265518" lon="-3.596320">
        <ele>258.029</ele>
        <time>2015-06-09T10:49:20Z</time>
      </trkpt>
      <trkpt lat="43.265827" lon="-3.597238">
        <ele>241.251</ele>
        <time>2015-06-09T10:49:29Z</time>
      </trkpt>
      <trkpt lat="43.264919" lon="-3.597026">
        <ele>228.413</ele>
        <time>2015-06-09T10:49:49Z</time>
      </trkpt>
      <trkpt lat="43.265129" lon="-3.597414">
        <ele>220.874</ele>
        <time>2015-06-09T10:49:57Z</time>
      </trkpt>
      <trkpt lat="43.264477" lon="-3.597580">
        <ele>208.633</ele>
        <time>2015-06-09T10:50:12Z</time>
      </trkpt>
      <trkpt lat="43.264729" lon="-3.597896">
        <ele>205.223</ele>
        <time>2015-06-09T10:50:28Z</time>
      </trkpt>
      <trkpt lat="43.265358" lon="-3.598152">
        <ele>198.615</ele>
        <time>2015-06-09T10:50:39Z</time>
      </trkpt>
      <trkpt lat="43.266171" lon="-3.598914">
        <ele>188.008</ele>
        <time>2015-06-09T10:50:52Z</time>
      </trkpt>
      <trkpt lat="43.267323" lon="-3.598880">
        <ele>178.014</ele>
        <time>2015-06-09T10:51:02Z</time>
      </trkpt>
      <trkpt lat="43.267471" lon="-3.598343">
        <ele>172.686</ele>
        <time>2015-06-09T10:51:14Z</time>
      </trkpt>
      <trkpt lat="43.267960" lon="-3.598734">
        <ele>166.686</ele>
        <time>2015-06-09T10:51:23Z</time>
      </trkpt>
      <trkpt lat="43.268578" lon="-3.598591">
        <ele>159.655</ele>
        <time>2015-06-09T10:51:30Z</time>
      </trkpt>
      <trkpt lat="43.270317" lon="-3.597420">
        <ele>134.253</ele>
        <time>2015-06-09T10:51:49Z</time>
      </trkpt>
      <trkpt lat="43.270832" lon="-3.596832">
        <ele>126.485</ele>
        <time>2015-06-09T10:51:56Z</time>
      </trkpt>
      <trkpt lat="43.271275" lon="-3.596685">
        <ele>117.667</ele>
        <time>2015-06-09T10:52:02Z</time>
      </trkpt>
      <trkpt lat="43.271595" lon="-3.596313">
        <ele>114.898</ele>
        <time>2015-06-09T10:52:03Z</time>
      </trkpt>
      <trkpt lat="43.272083" lon="-3.596173">
        <ele>108.882</ele>
        <time>2015-06-09T10:52:15Z</time>
      </trkpt>
      <trkpt lat="43.272545" lon="-3.596353">
        <ele>107.643</ele>
        <time>2015-06-09T10:53:34Z</time>
      </trkpt>
      <trkpt lat="43.272499" lon="-3.596189">
        <ele>107.817</ele>
        <time>2015-06-09T10:54:51Z</time>
      </trkpt>
      <trkpt lat="43.272514" lon="-3.596979">
        <ele>107.008</ele>
        <time>2015-06-09T10:55:34Z</time>
      </trkpt>
      <trkpt lat="43.273384" lon="-3.598346">
        <ele>107.099</ele>
        <time>2015-06-09T10:55:55Z</time>
      </trkpt>
      <trkpt lat="43.274040" lon="-3.598892">
        <ele>112.251</ele>
        <time>2015-06-09T10:56:13Z</time>
      </trkpt>
      <trkpt lat="43.273788" lon="-3.600326">
        <ele>110.621</ele>
        <time>2015-06-09T10:56:31Z</time>
      </trkpt>
      <trkpt lat="43.274059" lon="-3.601254">
        <ele>107.270</ele>
        <time>2015-06-09T10:56:40Z</time>
      </trkpt>
      <trkpt lat="43.274502" lon="-3.601820">
        <ele>107.638</ele>
        <time>2015-06-09T10:56:48Z</time>
      </trkpt>
      <trkpt lat="43.275665" lon="-3.604059">
        <ele>110.630</ele>
        <time>2015-06-09T10:57:22Z</time>
      </trkpt>
      <trkpt lat="43.276894" lon="-3.605779">
        <ele>114.852</ele>
        <time>2015-06-09T10:57:59Z</time>
      </trkpt>
      <trkpt lat="43.277290" lon="-3.606648">
        <ele>111.663</ele>
        <time>2015-06-09T10:58:15Z</time>
      </trkpt>
      <trkpt lat="43.277336" lon="-3.609558">
        <ele>112.438</ele>
        <time>2015-06-09T10:59:03Z</time>
      </trkpt>
      <trkpt lat="43.277168" lon="-3.610696">
        <ele>112.870</ele>
        <time>2015-06-09T10:59:22Z</time>
      </trkpt>
      <trkpt lat="43.277191" lon="-3.612079">
        <ele>114.217</ele>
        <time>2015-06-09T10:59:52Z</time>
      </trkpt>
      <trkpt lat="43.277004" lon="-3.612885">
        <ele>115.808</ele>
        <time>2015-06-09T11:00:13Z</time>
      </trkpt>
      <trkpt lat="43.277554" lon="-3.614763">
        <ele>121.894</ele>
        <time>2015-06-09T11:01:02Z</time>
      </trkpt>
      <trkpt lat="43.277592" lon="-3.615211">
        <ele>127.416</ele>
        <time>2015-06-09T11:01:26Z</time>
      </trkpt>
      <trkpt lat="43.277264" lon="-3.615580">
        <ele>130.026</ele>
        <time>2015-06-09T11:01:47Z</time>
      </trkpt>
      <trkpt lat="43.277222" lon="-3.616057">
        <ele>135.835</ele>
        <time>2015-06-09T11:02:08Z</time>
      </trkpt>
      <trkpt lat="43.277996" lon="-3.619056">
        <ele>171.893</ele>
        <time>2015-06-09T11:05:20Z</time>
      </trkpt>
      <trkpt lat="43.277775" lon="-3.620353">
        <ele>173.855</ele>
        <time>2015-06-09T11:06:52Z</time>
      </trkpt>
      <trkpt lat="43.278126" lon="-3.622524">
        <ele>166.437</ele>
        <time>2015-06-09T11:07:12Z</time>
      </trkpt>
      <trkpt lat="43.277653" lon="-3.623995">
        <ele>160.668</ele>
        <time>2015-06-09T11:07:24Z</time>
      </trkpt>
      <trkpt lat="43.277672" lon="-3.624889">
        <ele>157.819</ele>
        <time>2015-06-09T11:07:33Z</time>
      </trkpt>
      <trkpt lat="43.278507" lon="-3.627657">
        <ele>154.409</ele>
        <time>2015-06-09T11:08:05Z</time>
      </trkpt>
      <trkpt lat="43.279552" lon="-3.629909">
        <ele>151.019</ele>
        <time>2015-06-09T11:08:35Z</time>
      </trkpt>
      <trkpt lat="43.280190" lon="-3.630859">
        <ele>149.208</ele>
        <time>2015-06-09T11:08:48Z</time>
      </trkpt>
      <trkpt lat="43.280193" lon="-3.632372">
        <ele>149.862</ele>
        <time>2015-06-09T11:09:04Z</time>
      </trkpt>
      <trkpt lat="43.280426" lon="-3.633490">
        <ele>155.474</ele>
        <time>2015-06-09T11:09:31Z</time>
      </trkpt>
      <trkpt lat="43.280537" lon="-3.635999">
        <ele>161.684</ele>
        <time>2015-06-09T11:10:19Z</time>
      </trkpt>
      <trkpt lat="43.280540" lon="-3.638453">
        <ele>169.043</ele>
        <time>2015-06-09T11:11:16Z</time>
      </trkpt>
      <trkpt lat="43.279819" lon="-3.640713">
        <ele>176.891</ele>
        <time>2015-06-09T11:12:17Z</time>
      </trkpt>
      <trkpt lat="43.279514" lon="-3.643408">
        <ele>168.453</ele>
        <time>2015-06-09T11:12:40Z</time>
      </trkpt>
      <trkpt lat="43.279732" lon="-3.645035">
        <ele>167.635</ele>
        <time>2015-06-09T11:12:58Z</time>
      </trkpt>
      <trkpt lat="43.279640" lon="-3.645970">
        <ele>168.466</ele>
        <time>2015-06-09T11:13:10Z</time>
      </trkpt>
      <trkpt lat="43.280128" lon="-3.648708">
        <ele>173.674</ele>
        <time>2015-06-09T11:13:54Z</time>
      </trkpt>
      <trkpt lat="43.280579" lon="-3.650270">
        <ele>177.256</ele>
        <time>2015-06-09T11:14:21Z</time>
      </trkpt>
      <trkpt lat="43.280472" lon="-3.652206">
        <ele>187.821</ele>
        <time>2015-06-09T11:31:32Z</time>
      </trkpt>
      <trkpt lat="43.279724" lon="-3.655592">
        <ele>217.008</ele>
        <time>2015-06-09T11:33:31Z</time>
      </trkpt>
      <trkpt lat="43.278709" lon="-3.656718">
        <ele>215.438</ele>
        <time>2015-06-09T11:33:50Z</time>
      </trkpt>
      <trkpt lat="43.278473" lon="-3.657375">
        <ele>218.470</ele>
        <time>2015-06-09T11:33:58Z</time>
      </trkpt>
      <trkpt lat="43.277992" lon="-3.657806">
        <ele>225.840</ele>
        <time>2015-06-09T11:34:07Z</time>
      </trkpt>
      <trkpt lat="43.277725" lon="-3.658266">
        <ele>230.859</ele>
        <time>2015-06-09T11:34:18Z</time>
      </trkpt>
      <trkpt lat="43.277725" lon="-3.658700">
        <ele>235.057</ele>
        <time>2015-06-09T11:34:19Z</time>
      </trkpt>
      <trkpt lat="43.278385" lon="-3.661353">
        <ele>256.869</ele>
        <time>2015-06-09T11:34:53Z</time>
      </trkpt>
      <trkpt lat="43.278934" lon="-3.662146">
        <ele>268.821</ele>
        <time>2015-06-09T11:35:08Z</time>
      </trkpt>
      <trkpt lat="43.280376" lon="-3.663436">
        <ele>305.492</ele>
        <time>2015-06-09T11:35:41Z</time>
      </trkpt>
      <trkpt lat="43.280598" lon="-3.663311">
        <ele>310.058</ele>
        <time>2015-06-09T11:35:46Z</time>
      </trkpt>
      <trkpt lat="43.280807" lon="-3.662530">
        <ele>311.452</ele>
        <time>2015-06-09T11:35:55Z</time>
      </trkpt>
      <trkpt lat="43.280678" lon="-3.661258">
        <ele>322.817</ele>
        <time>2015-06-09T11:36:11Z</time>
      </trkpt>
      <trkpt lat="43.281639" lon="-3.661525">
        <ele>342.408</ele>
        <time>2015-06-09T11:36:31Z</time>
      </trkpt>
      <trkpt lat="43.281910" lon="-3.662244">
        <ele>349.046</ele>
        <time>2015-06-09T11:36:40Z</time>
      </trkpt>
      <trkpt lat="43.282185" lon="-3.662470">
        <ele>359.238</ele>
        <time>2015-06-09T11:36:44Z</time>
      </trkpt>
      <trkpt lat="43.281746" lon="-3.663392">
        <ele>372.828</ele>
        <time>2015-06-09T11:37:04Z</time>
      </trkpt>
      <trkpt lat="43.282154" lon="-3.663666">
        <ele>383.877</ele>
        <time>2015-06-09T11:37:14Z</time>
      </trkpt>
      <trkpt lat="43.282833" lon="-3.664928">
        <ele>410.645</ele>
        <time>2015-06-09T11:37:46Z</time>
      </trkpt>
      <trkpt lat="43.282902" lon="-3.665467">
        <ele>416.817</ele>
        <time>2015-06-09T11:37:53Z</time>
      </trkpt>
      <trkpt lat="43.282784" lon="-3.665859">
        <ele>426.229</ele>
        <time>2015-06-09T11:38:01Z</time>
      </trkpt>
      <trkpt lat="43.283012" lon="-3.665825">
        <ele>432.050</ele>
        <time>2015-06-09T11:38:06Z</time>
      </trkpt>
      <trkpt lat="43.283329" lon="-3.665520">
        <ele>438.831</ele>
        <time>2015-06-09T11:38:13Z</time>
      </trkpt>
      <trkpt lat="43.283642" lon="-3.665609">
        <ele>445.261</ele>
        <time>2015-06-09T11:38:19Z</time>
      </trkpt>
      <trkpt lat="43.283310" lon="-3.666495">
        <ele>466.807</ele>
        <time>2015-06-09T11:38:34Z</time>
      </trkpt>
      <trkpt lat="43.282921" lon="-3.667042">
        <ele>473.808</ele>
        <time>2015-06-09T11:38:43Z</time>
      </trkpt>
      <trkpt lat="43.282631" lon="-3.668134">
        <ele>479.294</ele>
        <time>2015-06-09T11:38:53Z</time>
      </trkpt>
      <trkpt lat="43.282227" lon="-3.668377">
        <ele>481.656</ele>
        <time>2015-06-09T11:39:02Z</time>
      </trkpt>
      <trkpt lat="43.281773" lon="-3.668292">
        <ele>491.256</ele>
        <time>2015-06-09T11:39:10Z</time>
      </trkpt>
      <trkpt lat="43.281700" lon="-3.668517">
        <ele>495.465</ele>
        <time>2015-06-09T11:41:22Z</time>
      </trkpt>
      <trkpt lat="43.282501" lon="-3.668770">
        <ele>505.483</ele>
        <time>2015-06-09T11:44:13Z</time>
      </trkpt>
      <trkpt lat="43.283218" lon="-3.668262">
        <ele>509.015</ele>
        <time>2015-06-09T11:47:32Z</time>
      </trkpt>
      <trkpt lat="43.284016" lon="-3.668590">
        <ele>509.017</ele>
        <time>2015-06-09T11:47:50Z</time>
      </trkpt>
      <trkpt lat="43.284359" lon="-3.669237">
        <ele>505.428</ele>
        <time>2015-06-09T11:47:54Z</time>
      </trkpt>
      <trkpt lat="43.284531" lon="-3.670350">
        <ele>489.491</ele>
        <time>2015-06-09T11:48:11Z</time>
      </trkpt>
      <trkpt lat="43.284828" lon="-3.670917">
        <ele>482.281</ele>
        <time>2015-06-09T11:48:18Z</time>
      </trkpt>
      <trkpt lat="43.285873" lon="-3.670681">
        <ele>498.019</ele>
        <time>2015-06-09T11:49:19Z</time>
      </trkpt>
      <trkpt lat="43.286400" lon="-3.670815">
        <ele>505.608</ele>
        <time>2015-06-09T11:50:01Z</time>
      </trkpt>
      <trkpt lat="43.287014" lon="-3.672002">
        <ele>509.270</ele>
        <time>2015-06-09T11:50:46Z</time>
      </trkpt>
      <trkpt lat="43.287621" lon="-3.674008">
        <ele>499.612</ele>
        <time>2015-06-09T11:51:09Z</time>
      </trkpt>
      <trkpt lat="43.288303" lon="-3.674229">
        <ele>508.452</ele>
        <time>2015-06-09T11:51:46Z</time>
      </trkpt>
      <trkpt lat="43.288864" lon="-3.674962">
        <ele>505.481</ele>
        <time>2015-06-09T11:51:55Z</time>
      </trkpt>
      <trkpt lat="43.289398" lon="-3.674800">
        <ele>509.869</ele>
        <time>2015-06-09T11:52:22Z</time>
      </trkpt>
      <trkpt lat="43.290005" lon="-3.674825">
        <ele>516.891</ele>
        <time>2015-06-09T11:53:01Z</time>
      </trkpt>
      <trkpt lat="43.290421" lon="-3.675194">
        <ele>522.693</ele>
        <time>2015-06-09T11:53:33Z</time>
      </trkpt>
      <trkpt lat="43.291061" lon="-3.674671">
        <ele>523.874</ele>
        <time>2015-06-09T11:55:06Z</time>
      </trkpt>
      <trkpt lat="43.291828" lon="-3.674595">
        <ele>516.481</ele>
        <time>2015-06-09T11:55:16Z</time>
      </trkpt>
      <trkpt lat="43.292084" lon="-3.674249">
        <ele>515.061</ele>
        <time>2015-06-09T11:55:20Z</time>
      </trkpt>
      <trkpt lat="43.292057" lon="-3.673505">
        <ele>515.817</ele>
        <time>2015-06-09T11:55:35Z</time>
      </trkpt>
      <trkpt lat="43.291584" lon="-3.672477">
        <ele>527.808</ele>
        <time>2015-06-09T11:56:16Z</time>
      </trkpt>
      <trkpt lat="43.291431" lon="-3.671779">
        <ele>535.069</ele>
        <time>2015-06-09T11:56:49Z</time>
      </trkpt>
      <trkpt lat="43.292683" lon="-3.671362">
        <ele>530.491</ele>
        <time>2015-06-09T11:57:19Z</time>
      </trkpt>
      <trkpt lat="43.293327" lon="-3.671924">
        <ele>527.061</ele>
        <time>2015-06-09T11:57:39Z</time>
      </trkpt>
      <trkpt lat="43.293892" lon="-3.671115">
        <ele>518.690</ele>
        <time>2015-06-09T11:57:50Z</time>
      </trkpt>
      <trkpt lat="43.294296" lon="-3.671054">
        <ele>517.668</ele>
        <time>2015-06-09T11:57:57Z</time>
      </trkpt>
      <trkpt lat="43.294693" lon="-3.671585">
        <ele>514.460</ele>
        <time>2015-06-09T11:58:06Z</time>
      </trkpt>
      <trkpt lat="43.294647" lon="-3.672802">
        <ele>531.292</ele>
        <time>2015-06-09T11:59:31Z</time>
      </trkpt>
      <trkpt lat="43.294567" lon="-3.673243">
        <ele>539.483</ele>
        <time>2015-06-09T12:00:32Z</time>
      </trkpt>
      <trkpt lat="43.294357" lon="-3.673523">
        <ele>543.887</ele>
        <time>2015-06-09T12:00:47Z</time>
      </trkpt>
      <trkpt lat="43.294388" lon="-3.673773">
        <ele>552.042</ele>
        <time>2015-06-09T12:01:29Z</time>
      </trkpt>
      <trkpt lat="43.293793" lon="-3.674327">
        <ele>561.426</ele>
        <time>2015-06-09T12:02:27Z</time>
      </trkpt>
      <trkpt lat="43.294216" lon="-3.674712">
        <ele>569.808</ele>
        <time>2015-06-09T12:03:24Z</time>
      </trkpt>
      <trkpt lat="43.294491" lon="-3.675451">
        <ele>576.069</ele>
        <time>2015-06-09T12:04:08Z</time>
      </trkpt>
      <trkpt lat="43.295223" lon="-3.675518">
        <ele>571.481</ele>
        <time>2015-06-09T12:04:21Z</time>
      </trkpt>
      <trkpt lat="43.295494" lon="-3.676176">
        <ele>569.641</ele>
        <time>2015-06-09T12:04:31Z</time>
      </trkpt>
      <trkpt lat="43.295921" lon="-3.676534">
        <ele>569.890</ele>
        <time>2015-06-09T12:05:28Z</time>
      </trkpt>
      <trkpt lat="43.297161" lon="-3.677170">
        <ele>563.058</ele>
        <time>2015-06-09T12:05:56Z</time>
      </trkpt>
      <trkpt lat="43.297924" lon="-3.677315">
        <ele>559.290</ele>
        <time>2015-06-09T12:06:11Z</time>
      </trkpt>
      <trkpt lat="43.298168" lon="-3.677569">
        <ele>559.262</ele>
        <time>2015-06-09T12:06:20Z</time>
      </trkpt>
      <trkpt lat="43.299496" lon="-3.678200">
        <ele>561.423</ele>
        <time>2015-06-09T12:08:26Z</time>
      </trkpt>
      <trkpt lat="43.300705" lon="-3.678358">
        <ele>559.459</ele>
        <time>2015-06-09T12:09:01Z</time>
      </trkpt>
      <trkpt lat="43.301922" lon="-3.678117">
        <ele>553.803</ele>
        <time>2015-06-09T12:09:23Z</time>
      </trkpt>
      <trkpt lat="43.302399" lon="-3.677679">
        <ele>553.623</ele>
        <time>2015-06-09T12:10:51Z</time>
      </trkpt>
      <trkpt lat="43.303738" lon="-3.676869">
        <ele>552.808</ele>
        <time>2015-06-09T12:11:40Z</time>
      </trkpt>
      <trkpt lat="43.304134" lon="-3.676909">
        <ele>542.846</ele>
        <time>2015-06-09T12:11:50Z</time>
      </trkpt>
      <trkpt lat="43.305290" lon="-3.678003">
        <ele>542.848</ele>
        <time>2015-06-09T12:13:02Z</time>
      </trkpt>
      <trkpt lat="43.305672" lon="-3.678146">
        <ele>550.278</ele>
        <time>2015-06-09T12:13:34Z</time>
      </trkpt>
      <trkpt lat="43.306973" lon="-3.679863">
        <ele>559.657</ele>
        <time>2015-06-09T12:15:50Z</time>
      </trkpt>
      <trkpt lat="43.307320" lon="-3.680554">
        <ele>558.275</ele>
        <time>2015-06-09T12:16:30Z</time>
      </trkpt>
      <trkpt lat="43.308792" lon="-3.682158">
        <ele>588.217</ele>
        <time>2015-06-09T12:19:45Z</time>
      </trkpt>
      <trkpt lat="43.309349" lon="-3.682371">
        <ele>594.099</ele>
        <time>2015-06-09T12:20:38Z</time>
      </trkpt>
      <trkpt lat="43.309708" lon="-3.682218">
        <ele>589.880</ele>
        <time>2015-06-09T12:20:53Z</time>
      </trkpt>
      <trkpt lat="43.310059" lon="-3.681878">
        <ele>582.096</ele>
        <time>2015-06-09T12:21:04Z</time>
      </trkpt>
      <trkpt lat="43.310593" lon="-3.680951">
        <ele>561.231</ele>
        <time>2015-06-09T12:21:26Z</time>
      </trkpt>
      <trkpt lat="43.310650" lon="-3.681193">
        <ele>560.624</ele>
        <time>2015-06-09T12:21:36Z</time>
      </trkpt>
      <trkpt lat="43.310757" lon="-3.681119">
        <ele>558.808</ele>
        <time>2015-06-09T12:21:52Z</time>
      </trkpt>
      <trkpt lat="43.310947" lon="-3.682847">
        <ele>553.850</ele>
        <time>2015-06-09T12:22:36Z</time>
      </trkpt>
      <trkpt lat="43.311810" lon="-3.684911">
        <ele>556.472</ele>
        <time>2015-06-09T12:24:13Z</time>
      </trkpt>
      <trkpt lat="43.312576" lon="-3.685555">
        <ele>568.882</ele>
        <time>2015-06-09T12:25:28Z</time>
      </trkpt>
      <trkpt lat="43.313377" lon="-3.685832">
        <ele>571.881</ele>
        <time>2015-06-09T12:26:16Z</time>
      </trkpt>
      <trkpt lat="43.314236" lon="-3.686342">
        <ele>572.299</ele>
        <time>2015-06-09T12:27:17Z</time>
      </trkpt>
      <trkpt lat="43.314960" lon="-3.687057">
        <ele>575.021</ele>
        <time>2015-06-09T12:28:02Z</time>
      </trkpt>
      <trkpt lat="43.316406" lon="-3.689012">
        <ele>574.473</ele>
        <time>2015-06-09T12:29:08Z</time>
      </trkpt>
      <trkpt lat="43.317307" lon="-3.691501">
        <ele>566.664</ele>
        <time>2015-06-09T12:30:07Z</time>
      </trkpt>
      <trkpt lat="43.317577" lon="-3.691297">
        <ele>564.443</ele>
        <time>2015-06-09T12:30:10Z</time>
      </trkpt>
      <trkpt lat="43.318020" lon="-3.690390">
        <ele>552.064</ele>
        <time>2015-06-09T12:32:46Z</time>
      </trkpt>
      <trkpt lat="43.318748" lon="-3.688339">
        <ele>530.210</ele>
        <time>2015-06-09T12:33:19Z</time>
      </trkpt>
      <trkpt lat="43.319405" lon="-3.687663">
        <ele>516.608</ele>
        <time>2015-06-09T12:33:41Z</time>
      </trkpt>
      <trkpt lat="43.319080" lon="-3.686903">
        <ele>506.625</ele>
        <time>2015-06-09T12:33:57Z</time>
      </trkpt>
      <trkpt lat="43.318840" lon="-3.685293">
        <ele>481.257</ele>
        <time>2015-06-09T12:34:28Z</time>
      </trkpt>
      <trkpt lat="43.318806" lon="-3.683649">
        <ele>457.077</ele>
        <time>2015-06-09T12:34:57Z</time>
      </trkpt>
      <trkpt lat="43.319149" lon="-3.681952">
        <ele>430.066</ele>
        <time>2015-06-09T12:35:32Z</time>
      </trkpt>
      <trkpt lat="43.319054" lon="-3.681153">
        <ele>419.614</ele>
        <time>2015-06-09T12:35:45Z</time>
      </trkpt>
      <trkpt lat="43.319420" lon="-3.679433">
        <ele>397.086</ele>
        <time>2015-06-09T12:36:12Z</time>
      </trkpt>
      <trkpt lat="43.320110" lon="-3.678531">
        <ele>379.068</ele>
        <time>2015-06-09T12:36:38Z</time>
      </trkpt>
      <trkpt lat="43.320919" lon="-3.677854">
        <ele>359.859</ele>
        <time>2015-06-09T12:36:53Z</time>
      </trkpt>
      <trkpt lat="43.321117" lon="-3.676825">
        <ele>345.286</ele>
        <time>2015-06-09T12:37:23Z</time>
      </trkpt>
      <trkpt lat="43.321564" lon="-3.677136">
        <ele>333.460</ele>
        <time>2015-06-09T12:37:40Z</time>
      </trkpt>
      <trkpt lat="43.321735" lon="-3.677569">
        <ele>328.026</ele>
        <time>2015-06-09T12:37:51Z</time>
      </trkpt>
      <trkpt lat="43.322159" lon="-3.678028">
        <ele>316.608</ele>
        <time>2015-06-09T12:38:08Z</time>
      </trkpt>
      <trkpt lat="43.322460" lon="-3.677542">
        <ele>306.029</ele>
        <time>2015-06-09T12:38:26Z</time>
      </trkpt>
      <trkpt lat="43.324188" lon="-3.677686">
        <ele>301.631</ele>
        <time>2015-06-09T12:39:14Z</time>
      </trkpt>
      <trkpt lat="43.325012" lon="-3.677233">
        <ele>299.021</ele>
        <time>2015-06-09T12:39:35Z</time>
      </trkpt>
      <trkpt lat="43.326057" lon="-3.677356">
        <ele>286.250</ele>
        <time>2015-06-09T12:39:56Z</time>
      </trkpt>
      <trkpt lat="43.325916" lon="-3.680491">
        <ele>278.888</ele>
        <time>2015-06-09T12:40:37Z</time>
      </trkpt>
      <trkpt lat="43.326000" lon="-3.681949">
        <ele>278.020</ele>
        <time>2015-06-09T12:40:58Z</time>
      </trkpt>
      <trkpt lat="43.326584" lon="-3.683983">
        <ele>259.022</ele>
        <time>2015-06-09T12:41:16Z</time>
      </trkpt>
      <trkpt lat="43.326504" lon="-3.684986">
        <ele>247.243</ele>
        <time>2015-06-09T12:41:26Z</time>
      </trkpt>
      <trkpt lat="43.325962" lon="-3.685630">
        <ele>236.285</ele>
        <time>2015-06-09T12:41:38Z</time>
      </trkpt>
      <trkpt lat="43.326939" lon="-3.685529">
        <ele>225.489</ele>
        <time>2015-06-09T12:41:52Z</time>
      </trkpt>
      <trkpt lat="43.327583" lon="-3.685113">
        <ele>215.017</ele>
        <time>2015-06-09T12:42:01Z</time>
      </trkpt>
      <trkpt lat="43.327850" lon="-3.684554">
        <ele>208.008</ele>
        <time>2015-06-09T12:42:08Z</time>
      </trkpt>
      <trkpt lat="43.328583" lon="-3.683815">
        <ele>191.689</ele>
        <time>2015-06-09T12:42:20Z</time>
      </trkpt>
      <trkpt lat="43.329060" lon="-3.682908">
        <ele>177.831</ele>
        <time>2015-06-09T12:42:33Z</time>
      </trkpt>
      <trkpt lat="43.329224" lon="-3.683203">
        <ele>173.641</ele>
        <time>2015-06-09T12:42:39Z</time>
      </trkpt>
      <trkpt lat="43.328838" lon="-3.685673">
        <ele>151.090</ele>
        <time>2015-06-09T12:43:04Z</time>
      </trkpt>
      <trkpt lat="43.328979" lon="-3.685926">
        <ele>146.848</ele>
        <time>2015-06-09T12:43:09Z</time>
      </trkpt>
      <trkpt lat="43.329533" lon="-3.685500">
        <ele>136.860</ele>
        <time>2015-06-09T12:43:19Z</time>
      </trkpt>
      <trkpt lat="43.330334" lon="-3.684270">
        <ele>119.282</ele>
        <time>2015-06-09T12:43:36Z</time>
      </trkpt>
      <trkpt lat="43.330864" lon="-3.683894">
        <ele>113.823</ele>
        <time>2015-06-09T12:43:44Z</time>
      </trkpt>
      <trkpt lat="43.331394" lon="-3.682715">
        <ele>104.081</ele>
        <time>2015-06-09T12:43:57Z</time>
      </trkpt>
      <trkpt lat="43.331501" lon="-3.682059">
        <ele>102.661</ele>
        <time>2015-06-09T12:44:05Z</time>
      </trkpt>
      <trkpt lat="43.332058" lon="-3.681457">
        <ele>98.617</ele>
        <time>2015-06-09T12:44:16Z</time>
      </trkpt>
      <trkpt lat="43.332485" lon="-3.680315">
        <ele>94.608</ele>
        <time>2015-06-09T12:44:30Z</time>
      </trkpt>
      <trkpt lat="43.334141" lon="-3.680093">
        <ele>85.219</ele>
        <time>2015-06-09T12:44:45Z</time>
      </trkpt>
      <trkpt lat="43.334557" lon="-3.679868">
        <ele>80.011</ele>
        <time>2015-06-09T12:44:57Z</time>
      </trkpt>
      <trkpt lat="43.335659" lon="-3.678171">
        <ele>71.631</ele>
        <time>2015-06-09T12:45:17Z</time>
      </trkpt>
      <trkpt lat="43.336960" lon="-3.676756">
        <ele>63.440</ele>
        <time>2015-06-09T12:45:41Z</time>
      </trkpt>
      <trkpt lat="43.337860" lon="-3.675181">
        <ele>60.218</ele>
        <time>2015-06-09T12:46:26Z</time>
      </trkpt>
      <trkpt lat="43.339153" lon="-3.674545">
        <ele>51.650</ele>
        <time>2015-06-09T12:46:41Z</time>
      </trkpt>
      <trkpt lat="43.340008" lon="-3.673698">
        <ele>46.082</ele>
        <time>2015-06-09T12:46:49Z</time>
      </trkpt>
      <trkpt lat="43.340481" lon="-3.673512">
        <ele>45.043</ele>
        <time>2015-06-09T12:47:02Z</time>
      </trkpt>
      <trkpt lat="43.341324" lon="-3.674733">
        <ele>43.491</ele>
        <time>2015-06-09T12:47:21Z</time>
      </trkpt>
      <trkpt lat="43.342552" lon="-3.677048">
        <ele>43.481</ele>
        <time>2015-06-09T13:02:23Z</time>
      </trkpt>
      <trkpt lat="43.341911" lon="-3.679247">
        <ele>40.619</ele>
        <time>2015-06-09T13:02:51Z</time>
      </trkpt>
      <trkpt lat="43.341908" lon="-3.683198">
        <ele>36.208</ele>
        <time>2015-06-09T13:03:43Z</time>
      </trkpt>
      <trkpt lat="43.341782" lon="-3.683059">
        <ele>36.460</ele>
        <time>2015-06-09T13:03:51Z</time>
      </trkpt>
      <trkpt lat="43.341694" lon="-3.683184">
        <ele>37.042</ele>
        <time>2015-06-09T13:03:59Z</time>
      </trkpt>
      <trkpt lat="43.341351" lon="-3.684409">
        <ele>37.892</ele>
        <time>2015-06-09T13:04:18Z</time>
      </trkpt>
      <trkpt lat="43.340790" lon="-3.685262">
        <ele>38.411</ele>
        <time>2015-06-09T13:04:32Z</time>
      </trkpt>
      <trkpt lat="43.340542" lon="-3.686421">
        <ele>37.479</ele>
        <time>2015-06-09T13:04:47Z</time>
      </trkpt>
      <trkpt lat="43.340580" lon="-3.687440">
        <ele>37.441</ele>
        <time>2015-06-09T13:05:00Z</time>
      </trkpt>
      <trkpt lat="43.340275" lon="-3.689646">
        <ele>39.843</ele>
        <time>2015-06-09T13:05:32Z</time>
      </trkpt>
      <trkpt lat="43.340446" lon="-3.690586">
        <ele>40.894</ele>
        <time>2015-06-09T13:05:47Z</time>
      </trkpt>
      <trkpt lat="43.340752" lon="-3.690913">
        <ele>38.878</ele>
        <time>2015-06-09T13:05:53Z</time>
      </trkpt>
      <trkpt lat="43.341236" lon="-3.692369">
        <ele>34.233</ele>
        <time>2015-06-09T13:06:09Z</time>
      </trkpt>
      <trkpt lat="43.341881" lon="-3.692473">
        <ele>32.426</ele>
        <time>2015-06-09T13:06:19Z</time>
      </trkpt>
      <trkpt lat="43.343300" lon="-3.693212">
        <ele>29.008</ele>
        <time>2015-06-09T13:06:39Z</time>
      </trkpt>
      <trkpt lat="43.344860" lon="-3.693146">
        <ele>27.258</ele>
        <time>2015-06-09T13:07:04Z</time>
      </trkpt>
      <trkpt lat="43.345036" lon="-3.693703">
        <ele>28.220</ele>
        <time>2015-06-09T13:07:14Z</time>
      </trkpt>
      <trkpt lat="43.346016" lon="-3.695075">
        <ele>24.230</ele>
        <time>2015-06-09T13:07:34Z</time>
      </trkpt>
      <trkpt lat="43.345810" lon="-3.695755">
        <ele>23.859</ele>
        <time>2015-06-09T13:07:44Z</time>
      </trkpt>
      <trkpt lat="43.345802" lon="-3.696770">
        <ele>25.037</ele>
        <time>2015-06-09T13:07:57Z</time>
      </trkpt>
      <trkpt lat="43.346970" lon="-3.699588">
        <ele>34.099</ele>
        <time>2015-06-09T13:08:51Z</time>
      </trkpt>
      <trkpt lat="43.347404" lon="-3.701074">
        <ele>32.291</ele>
        <time>2015-06-09T13:09:16Z</time>
      </trkpt>
      <trkpt lat="43.348095" lon="-3.702152">
        <ele>30.422</ele>
        <time>2015-06-09T13:09:32Z</time>
      </trkpt>
      <trkpt lat="43.348446" lon="-3.703005">
        <ele>29.481</ele>
        <time>2015-06-09T13:09:43Z</time>
      </trkpt>
      <trkpt lat="43.349018" lon="-3.703084">
        <ele>27.861</ele>
        <time>2015-06-09T13:09:51Z</time>
      </trkpt>
      <trkpt lat="43.350780" lon="-3.703750">
        <ele>24.217</ele>
        <time>2015-06-09T13:10:18Z</time>
      </trkpt>
      <trkpt lat="43.352036" lon="-3.704629">
        <ele>15.808</ele>
        <time>2015-06-09T13:10:37Z</time>
      </trkpt>
      <trkpt lat="43.352173" lon="-3.705861">
        <ele>15.029</ele>
        <time>2015-06-09T13:10:54Z</time>
      </trkpt>
      <trkpt lat="43.352741" lon="-3.706821">
        <ele>10.241</ele>
        <time>2015-06-09T13:11:06Z</time>
      </trkpt>
      <trkpt lat="43.352451" lon="-3.707734">
        <ele>10.451</ele>
        <time>2015-06-09T13:11:22Z</time>
      </trkpt>
      <trkpt lat="43.353020" lon="-3.708383">
        <ele>11.630</ele>
        <time>2015-06-09T13:11:43Z</time>
      </trkpt>
      <trkpt lat="43.353539" lon="-3.709360">
        <ele>10.238</ele>
        <time>2015-06-09T13:11:57Z</time>
      </trkpt>
      <trkpt lat="43.354015" lon="-3.711212">
        <ele>10.080</ele>
        <time>2015-06-09T13:12:20Z</time>
      </trkpt>
      <trkpt lat="43.354366" lon="-3.712015">
        <ele>10.652</ele>
        <time>2015-06-09T13:12:32Z</time>
      </trkpt>
      <trkpt lat="43.354969" lon="-3.712544">
        <ele>10.833</ele>
        <time>2015-06-09T13:12:46Z</time>
      </trkpt>
      <trkpt lat="43.355415" lon="-3.712738">
        <ele>13.083</ele>
        <time>2015-06-09T13:12:53Z</time>
      </trkpt>
      <trkpt lat="43.360703" lon="-3.713739">
        <ele>6.225</ele>
        <time>2015-06-09T13:14:22Z</time>
      </trkpt>
      <trkpt lat="43.362499" lon="-3.713740">
        <ele>5.017</ele>
        <time>2015-06-09T13:14:56Z</time>
      </trkpt>
      <trkpt lat="43.364479" lon="-3.714536">
        <ele>0.808</ele>
        <time>2015-06-09T13:15:23Z</time>
      </trkpt>
      <trkpt lat="43.365150" lon="-3.714114">
        <ele>0.299</ele>
        <time>2015-06-09T13:15:39Z</time>
      </trkpt>
      <trkpt lat="43.367432" lon="-3.713795">
        <ele>-0.241</ele>
        <time>2015-06-09T13:16:22Z</time>
      </trkpt>
      <trkpt lat="43.367134" lon="-3.712956">
        <ele>-0.491</ele>
        <time>2015-06-09T13:16:38Z</time>
      </trkpt>
      <trkpt lat="43.367218" lon="-3.712793">
        <ele>-0.220</ele>
        <time>2015-06-09T13:16:42Z</time>
      </trkpt>
      <trkpt lat="43.368797" lon="-3.712299">
        <ele>-1.418</ele>
        <time>2015-06-09T13:17:09Z</time>
      </trkpt>
      <trkpt lat="43.370327" lon="-3.712122">
        <ele>-2.660</ele>
        <time>2015-06-09T13:17:34Z</time>
      </trkpt>
      <trkpt lat="43.370739" lon="-3.711670">
        <ele>-3.642</ele>
        <time>2015-06-09T13:17:43Z</time>
      </trkpt>
      <trkpt lat="43.373386" lon="-3.709916">
        <ele>-4.843</ele>
        <time>2015-06-09T13:18:31Z</time>
      </trkpt>
      <trkpt lat="43.373585" lon="-3.709050">
        <ele>-5.085</ele>
        <time>2015-06-09T13:18:44Z</time>
      </trkpt>
      <trkpt lat="43.375011" lon="-3.709396">
        <ele>-5.689</ele>
        <time>2015-06-09T13:19:08Z</time>
      </trkpt>
      <trkpt lat="43.376400" lon="-3.709241">
        <ele>-8.017</ele>
        <time>2015-06-09T13:19:31Z</time>
      </trkpt>
      <trkpt lat="43.376621" lon="-3.709324">
        <ele>-8.408</ele>
        <time>2015-06-09T13:19:35Z</time>
      </trkpt>
      <trkpt lat="43.377254" lon="-3.710866">
        <ele>-7.439</ele>
        <time>2015-06-09T13:19:54Z</time>
      </trkpt>
      <trkpt lat="43.377975" lon="-3.711913">
        <ele>-7.481</ele>
        <time>2015-06-09T13:20:14Z</time>
      </trkpt>
      <trkpt lat="43.378178" lon="-3.712686">
        <ele>-4.841</ele>
        <time>2015-06-09T13:20:28Z</time>
      </trkpt>
      <trkpt lat="43.379887" lon="-3.715574">
        <ele>-9.450</ele>
        <time>2015-06-09T13:21:15Z</time>
      </trkpt>
      <trkpt lat="43.380569" lon="-3.718242">
        <ele>-10.618</ele>
        <time>2015-06-09T13:21:48Z</time>
      </trkpt>
      <trkpt lat="43.381310" lon="-3.720437">
        <ele>-9.860</ele>
        <time>2015-06-09T13:22:18Z</time>
      </trkpt>
      <trkpt lat="43.381409" lon="-3.721884">
        <ele>-8.892</ele>
        <time>2015-06-09T13:22:38Z</time>
      </trkpt>
      <trkpt lat="43.381897" lon="-3.723600">
        <ele>-12.043</ele>
        <time>2015-06-09T13:22:58Z</time>
      </trkpt>
      <trkpt lat="43.382328" lon="-3.724315">
        <ele>-12.843</ele>
        <time>2015-06-09T13:23:10Z</time>
      </trkpt>
      <trkpt lat="43.384201" lon="-3.726332">
        <ele>-13.864</ele>
        <time>2015-06-09T13:23:52Z</time>
      </trkpt>
      <trkpt lat="43.384636" lon="-3.727147">
        <ele>-13.810</ele>
        <time>2015-06-09T13:24:05Z</time>
      </trkpt>
      <trkpt lat="43.385586" lon="-3.728235">
        <ele>-14.008</ele>
        <time>2015-06-09T13:24:25Z</time>
      </trkpt>
      <trkpt lat="43.385506" lon="-3.728855">
        <ele>-13.475</ele>
        <time>2015-06-09T13:24:38Z</time>
      </trkpt>
      <trkpt lat="43.385651" lon="-3.731291">
        <ele>-14.647</ele>
        <time>2015-06-09T13:25:13Z</time>
      </trkpt>
      <trkpt lat="43.386688" lon="-3.731356">
        <ele>23.367</ele>
        <time>2018-04-19T12:15:31Z</time>
      </trkpt>
      <trkpt lat="43.387173" lon="-3.731152">
        <ele>24.296</ele>
        <time>2018-04-19T12:15:41Z</time>
      </trkpt>
    </trkseg>
  </trk>
</gpx>
